Missouri River (Missouri), Napolean (06894650)

StateMissouriLatestUnknown (77600 cfs)
RiverMissouri RiverRatingObservedEstimated
Updated2020-08-14 6:00 (38 minutes ago)Flood - The river is flooding. Obstacles can be treacherous or deadly. The river should be avoided at this stage for casual trips and definitely for the inexperienced. Trips should be attempted only with protective gear and equipment.Flood(none)(none)
Discharge77600 cfs (median: 63200 cfs)High - The river is high and potentially dangerous, especially for the young and / or inexperienced. Normal stream obstacles are sometimes difficult to navigate. Extended distances can be attempted, but canoe travel may not be advisable.High(none)(none)
Height12.92 feetGood - Conditions are ideal for a canoe or kayak. Boats typically will drag on fewer than one-quarter of riffles, if at all, and portages are unnecessary or rare. Normal float lengths can be attempted without a problem.Good(none)(none)
TrendFalling (falling over 24 hours)Low - River is low but can still be floated. Some riffles are okay but most come with significant dragging and might need a portage. Float lengths should be reduced to accommodate low flow, dragging, and portages.Low(none)(none)
USGSExternal icon USGS Site (External icon Google Maps)Poor - River is too low to float comfortably. Most or all riffles will drag or must be portaged and some obstacles (such as slick shelf rock) cause undue problems. Avoid the river at this stage for casual paddling trips.Poor(none)(none)

Trending Data

Plot Image

Trips for Missouri River (Missouri), Napolean (06894650)

DateStartEndDistanceConditionDischargeHeightFishingDetails

A total of 0 rows are displayed.

Condition Descriptions

Fishing Conditions

Fish Species

Notes

Classic Trip List

The classic River Trips application is still available for use. It is updated with the new system using a data retrofit. It is no longer maintained. The original River Trips application is no longer updated (as of 1 Dec 2016) but can be checked for errors or for the condition of the data before it was converted to the new system.

Gauge Data Table

ObservationHeightDischargeMaximum
Discharge
Minimum
Discharge
Mean
Discharge
P05P10P20P25P50
(Median)
P75P80P90P95
2020-08-14 06:00 12.92 77600 132000 (2019) 45500 (2017) 76400 48800 53700 63200 106000 121000
2020-08-14 05:00 12.96 77900 132000 (2019) 45500 (2017) 76400 48800 53700 63200 106000 121000
2020-08-14 04:00 12.95 77800 132000 (2019) 45500 (2017) 76400 48800 53700 63200 106000 121000
2020-08-14 03:00 12.97 77900 132000 (2019) 45500 (2017) 76400 48800 53700 63200 106000 121000
2020-08-14 02:00 13.00 78200 132000 (2019) 45500 (2017) 76400 48800 53700 63200 106000 121000
2020-08-14 01:00 12.99 78100 132000 (2019) 45500 (2017) 76400 48800 53700 63200 106000 121000
2020-08-14 00:00 13.02 78300 132000 (2019) 45500 (2017) 76400 48800 53700 63200 106000 121000
2020-08-13 23:00 13.01 78300 126000 (2019) 45900 (2017) 73700 46600 47600 68000 103000 117000
2020-08-13 22:00 13.01 78300 126000 (2019) 45900 (2017) 73700 46600 47600 68000 103000 117000
2020-08-13 21:00 13.02 78300 126000 (2019) 45900 (2017) 73700 46600 47600 68000 103000 117000
2020-08-13 20:00 13.03 78400 126000 (2019) 45900 (2017) 73700 46600 47600 68000 103000 117000
2020-08-13 19:00 13.04 78500 126000 (2019) 45900 (2017) 73700 46600 47600 68000 103000 117000
2020-08-13 18:00 13.06 78600 126000 (2019) 45900 (2017) 73700 46600 47600 68000 103000 117000
2020-08-13 17:00 13.08 78800 126000 (2019) 45900 (2017) 73700 46600 47600 68000 103000 117000
2020-08-13 16:00 13.10 79000 126000 (2019) 45900 (2017) 73700 46600 47600 68000 103000 117000
2020-08-13 15:00 13.09 78900 126000 (2019) 45900 (2017) 73700 46600 47600 68000 103000 117000
2020-08-13 14:00 13.09 78900 126000 (2019) 45900 (2017) 73700 46600 47600 68000 103000 117000
2020-08-13 13:00 13.11 80200 126000 (2019) 45900 (2017) 73700 46600 47600 68000 103000 117000
2020-08-13 12:00 13.12 80300 126000 (2019) 45900 (2017) 73700 46600 47600 68000 103000 117000
2020-08-13 11:00 13.13 80400 126000 (2019) 45900 (2017) 73700 46600 47600 68000 103000 117000
2020-08-13 10:00 13.13 80400 126000 (2019) 45900 (2017) 73700 46600 47600 68000 103000 117000
2020-08-13 09:00 13.15 80500 126000 (2019) 45900 (2017) 73700 46600 47600 68000 103000 117000
2020-08-13 08:00 13.16 80600 126000 (2019) 45900 (2017) 73700 46600 47600 68000 103000 117000
2020-08-13 07:00 13.16 80600 126000 (2019) 45900 (2017) 73700 46600 47600 68000 103000 117000
2020-08-13 06:00 13.17 80700 126000 (2019) 45900 (2017) 73700 46600 47600 68000 103000 117000
2020-08-13 05:00 13.16 80600 126000 (2019) 45900 (2017) 73700 46600 47600 68000 103000 117000
2020-08-13 04:00 13.16 80600 126000 (2019) 45900 (2017) 73700 46600 47600 68000 103000 117000
2020-08-13 03:00 13.15 80500 126000 (2019) 45900 (2017) 73700 46600 47600 68000 103000 117000
2020-08-13 02:00 13.15 80500 126000 (2019) 45900 (2017) 73700 46600 47600 68000 103000 117000
2020-08-13 01:00 13.15 80500 126000 (2019) 45900 (2017) 73700 46600 47600 68000 103000 117000
2020-08-13 00:00 13.16 80600 126000 (2019) 45900 (2017) 73700 46600 47600 68000 103000 117000
2020-08-12 23:00 13.15 80500 122000 (2019) 46600 (2017) 75800 47100 47700 79500 102000 114000
2020-08-12 22:00 13.14 80400 122000 (2019) 46600 (2017) 75800 47100 47700 79500 102000 114000
2020-08-12 21:00 13.13 80400 122000 (2019) 46600 (2017) 75800 47100 47700 79500 102000 114000
2020-08-12 20:00 13.13 80400 122000 (2019) 46600 (2017) 75800 47100 47700 79500 102000 114000
2020-08-12 19:00 13.13 80400 122000 (2019) 46600 (2017) 75800 47100 47700 79500 102000 114000
2020-08-12 18:00 13.12 80300 122000 (2019) 46600 (2017) 75800 47100 47700 79500 102000 114000
2020-08-12 17:00 13.11 80200 122000 (2019) 46600 (2017) 75800 47100 47700 79500 102000 114000
2020-08-12 16:00 13.09 80100 122000 (2019) 46600 (2017) 75800 47100 47700 79500 102000 114000
2020-08-12 15:00 13.11 80200 122000 (2019) 46600 (2017) 75800 47100 47700 79500 102000 114000
2020-08-12 14:00 13.00 79300 122000 (2019) 46600 (2017) 75800 47100 47700 79500 102000 114000
2020-08-12 13:00 13.10 80100 122000 (2019) 46600 (2017) 75800 47100 47700 79500 102000 114000
2020-08-12 12:00 13.10 80100 122000 (2019) 46600 (2017) 75800 47100 47700 79500 102000 114000
2020-08-12 11:00 13.09 80100 122000 (2019) 46600 (2017) 75800 47100 47700 79500 102000 114000
2020-08-12 10:00 13.09 80100 122000 (2019) 46600 (2017) 75800 47100 47700 79500 102000 114000
2020-08-12 09:00 13.09 80100 122000 (2019) 46600 (2017) 75800 47100 47700 79500 102000 114000
2020-08-12 08:00 13.09 80100 122000 (2019) 46600 (2017) 75800 47100 47700 79500 102000 114000
2020-08-12 07:00 13.08 80000 122000 (2019) 46600 (2017) 75800 47100 47700 79500 102000 114000
2020-08-12 06:00 13.09 80100 122000 (2019) 46600 (2017) 75800 47100 47700 79500 102000 114000
2020-08-12 05:00 13.09 80100 122000 (2019) 46600 (2017) 75800 47100 47700 79500 102000 114000
2020-08-12 04:00 13.10 80100 122000 (2019) 46600 (2017) 75800 47100 47700 79500 102000 114000
2020-08-12 03:00 13.09 80100 122000 (2019) 46600 (2017) 75800 47100 47700 79500 102000 114000
2020-08-12 02:00 13.09 80100 122000 (2019) 46600 (2017) 75800 47100 47700 79500 102000 114000
2020-08-12 01:00 13.09 80100 122000 (2019) 46600 (2017) 75800 47100 47700 79500 102000 114000
2020-08-12 00:00 13.10 80100 122000 (2019) 46600 (2017) 75800 47100 47700 79500 102000 114000
2020-08-11 23:00 13.09 80100 121000 (2019) 47700 (2017) 77800 48000 48300 80100 106000 115000
2020-08-11 22:00 13.09 80100 121000 (2019) 47700 (2017) 77800 48000 48300 80100 106000 115000
2020-08-11 21:00 13.08 80000 121000 (2019) 47700 (2017) 77800 48000 48300 80100 106000 115000
2020-08-11 20:00 13.10 80100 121000 (2019) 47700 (2017) 77800 48000 48300 80100 106000 115000
2020-08-11 19:00 13.11 80200 121000 (2019) 47700 (2017) 77800 48000 48300 80100 106000 115000
2020-08-11 18:00 13.11 80200 121000 (2019) 47700 (2017) 77800 48000 48300 80100 106000 115000
2020-08-11 17:00 13.10 80100 121000 (2019) 47700 (2017) 77800 48000 48300 80100 106000 115000
2020-08-11 16:00 13.12 80300 121000 (2019) 47700 (2017) 77800 48000 48300 80100 106000 115000
2020-08-11 15:00 13.14 80400 121000 (2019) 47700 (2017) 77800 48000 48300 80100 106000 115000
2020-08-11 14:00 13.14 80400 121000 (2019) 47700 (2017) 77800 48000 48300 80100 106000 115000
2020-08-11 13:00 13.14 80400 121000 (2019) 47700 (2017) 77800 48000 48300 80100 106000 115000
2020-08-11 12:00 13.13 80400 121000 (2019) 47700 (2017) 77800 48000 48300 80100 106000 115000
2020-08-11 11:00 13.14 80400 121000 (2019) 47700 (2017) 77800 48000 48300 80100 106000 115000
2020-08-11 10:00 13.16 80600 121000 (2019) 47700 (2017) 77800 48000 48300 80100 106000 115000
2020-08-11 09:00 13.16 80600 121000 (2019) 47700 (2017) 77800 48000 48300 80100 106000 115000
2020-08-11 08:00 13.18 80800 121000 (2019) 47700 (2017) 77800 48000 48300 80100 106000 115000
2020-08-11 07:00 13.20 80900 121000 (2019) 47700 (2017) 77800 48000 48300 80100 106000 115000
2020-08-11 06:00 13.20 80900 121000 (2019) 47700 (2017) 77800 48000 48300 80100 106000 115000
2020-08-11 05:00 13.21 81000 121000 (2019) 47700 (2017) 77800 48000 48300 80100 106000 115000
2020-08-11 04:00 13.23 81200 121000 (2019) 47700 (2017) 77800 48000 48300 80100 106000 115000
2020-08-11 03:00 13.24 81200 121000 (2019) 47700 (2017) 77800 48000 48300 80100 106000 115000
2020-08-11 02:00 13.25 81300 121000 (2019) 47700 (2017) 77800 48000 48300 80100 106000 115000
2020-08-11 01:00 13.27 81500 121000 (2019) 47700 (2017) 77800 48000 48300 80100 106000 115000
2020-08-11 00:00 13.29 81600 121000 (2019) 47700 (2017) 77800 48000 48300 80100 106000 115000
2020-08-10 23:00 13.30 81700 123000 (2019) 48800 (2017) 73500 49100 49500 65100 102000 114000
2020-08-10 22:00 13.31 81800 123000 (2019) 48800 (2017) 73500 49100 49500 65100 102000 114000
2020-08-10 21:00 13.34 82000 123000 (2019) 48800 (2017) 73500 49100 49500 65100 102000 114000
2020-08-10 20:00 13.33 82000 123000 (2019) 48800 (2017) 73500 49100 49500 65100 102000 114000
2020-08-10 19:00 13.35 82100 123000 (2019) 48800 (2017) 73500 49100 49500 65100 102000 114000
2020-08-10 18:00 13.35 82100 123000 (2019) 48800 (2017) 73500 49100 49500 65100 102000 114000
2020-08-10 17:00 13.40 82500 123000 (2019) 48800 (2017) 73500 49100 49500 65100 102000 114000
2020-08-10 16:00 13.40 82500 123000 (2019) 48800 (2017) 73500 49100 49500 65100 102000 114000
2020-08-10 15:00 13.40 82500 123000 (2019) 48800 (2017) 73500 49100 49500 65100 102000 114000
2020-08-10 14:00 13.42 82700 123000 (2019) 48800 (2017) 73500 49100 49500 65100 102000 114000
2020-08-10 13:00 13.43 82800 123000 (2019) 48800 (2017) 73500 49100 49500 65100 102000 114000
2020-08-10 12:00 13.45 82900 123000 (2019) 48800 (2017) 73500 49100 49500 65100 102000 114000
2020-08-10 11:00 13.44 82800 123000 (2019) 48800 (2017) 73500 49100 49500 65100 102000 114000
2020-08-10 10:00 13.45 82900 123000 (2019) 48800 (2017) 73500 49100 49500 65100 102000 114000
2020-08-10 09:00 13.45 82900 123000 (2019) 48800 (2017) 73500 49100 49500 65100 102000 114000
2020-08-10 08:00 13.45 82900 123000 (2019) 48800 (2017) 73500 49100 49500 65100 102000 114000
2020-08-10 07:00 13.46 83000 123000 (2019) 48800 (2017) 73500 49100 49500 65100 102000 114000
2020-08-10 06:00 13.45 82900 123000 (2019) 48800 (2017) 73500 49100 49500 65100 102000 114000
2020-08-10 05:00 13.44 82800 123000 (2019) 48800 (2017) 73500 49100 49500 65100 102000 114000
2020-08-10 04:00 13.46 83000 123000 (2019) 48800 (2017) 73500 49100 49500 65100 102000 114000
2020-08-10 03:00 13.45 82900 123000 (2019) 48800 (2017) 73500 49100 49500 65100 102000 114000
2020-08-10 02:00 13.43 82800 123000 (2019) 48800 (2017) 73500 49100 49500 65100 102000 114000
2020-08-10 01:00 13.42 82700 123000 (2019) 48800 (2017) 73500 49100 49500 65100 102000 114000
2020-08-10 00:00 13.40 82500 123000 (2019) 48800 (2017) 73500 49100 49500 65100 102000 114000
2020-08-09 23:00 13.37 82300 125000 (2019) 50000 (2017) 73500 50400 50900 60200 103000 116000
2020-08-09 22:00 13.35 82100 125000 (2019) 50000 (2017) 73500 50400 50900 60200 103000 116000
2020-08-09 21:00 13.35 82100 125000 (2019) 50000 (2017) 73500 50400 50900 60200 103000 116000
2020-08-09 20:00 13.32 81900 125000 (2019) 50000 (2017) 73500 50400 50900 60200 103000 116000
2020-08-09 19:00 13.29 81600 125000 (2019) 50000 (2017) 73500 50400 50900 60200 103000 116000
2020-08-09 18:00 13.27 81500 125000 (2019) 50000 (2017) 73500 50400 50900 60200 103000 116000
2020-08-09 17:00 13.24 81200 125000 (2019) 50000 (2017) 73500 50400 50900 60200 103000 116000
2020-08-09 16:00 13.24 81200 125000 (2019) 50000 (2017) 73500 50400 50900 60200 103000 116000
2020-08-09 15:00 13.19 80800 125000 (2019) 50000 (2017) 73500 50400 50900 60200 103000 116000
2020-08-09 14:00 13.19 80800 125000 (2019) 50000 (2017) 73500 50400 50900 60200 103000 116000
2020-08-09 13:00 13.17 80700 125000 (2019) 50000 (2017) 73500 50400 50900 60200 103000 116000
2020-08-09 12:00 13.13 80400 125000 (2019) 50000 (2017) 73500 50400 50900 60200 103000 116000
2020-08-09 11:00 13.11 80200 125000 (2019) 50000 (2017) 73500 50400 50900 60200 103000 116000
2020-08-09 10:00 13.11 80200 125000 (2019) 50000 (2017) 73500 50400 50900 60200 103000 116000
2020-08-09 09:00 13.09 80100 125000 (2019) 50000 (2017) 73500 50400 50900 60200 103000 116000
2020-08-09 08:00 13.09 80100 125000 (2019) 50000 (2017) 73500 50400 50900 60200 103000 116000
2020-08-09 07:00 13.07 79900 125000 (2019) 50000 (2017) 73500 50400 50900 60200 103000 116000
2020-08-09 06:00 13.03 79600 125000 (2019) 50000 (2017) 73500 50400 50900 60200 103000 116000
2020-08-09 05:00 13.02 79500 125000 (2019) 50000 (2017) 73500 50400 50900 60200 103000 116000
2020-08-09 04:00 13.00 79300 125000 (2019) 50000 (2017) 73500 50400 50900 60200 103000 116000
2020-08-09 03:00 12.97 79100 125000 (2019) 50000 (2017) 73500 50400 50900 60200 103000 116000
2020-08-09 02:00 12.95 79000 125000 (2019) 50000 (2017) 73500 50400 50900 60200 103000 116000
2020-08-09 01:00 12.91 78600 125000 (2019) 50000 (2017) 73500 50400 50900 60200 103000 116000
2020-08-09 00:00 12.91 78600 125000 (2019) 50000 (2017) 73500 50400 50900 60200 103000 116000
2020-08-08 23:00 12.91 78600 128000 (2019) 53100 (2017) 76200 53400 53800 63500 105000 119000
2020-08-08 22:00 12.90 78600 128000 (2019) 53100 (2017) 76200 53400 53800 63500 105000 119000
2020-08-08 21:00 12.88 78400 128000 (2019) 53100 (2017) 76200 53400 53800 63500 105000 119000
2020-08-08 20:00 12.87 78300 128000 (2019) 53100 (2017) 76200 53400 53800 63500 105000 119000
2020-08-08 19:00 12.87 78300 128000 (2019) 53100 (2017) 76200 53400 53800 63500 105000 119000
2020-08-08 18:00 12.87 78300 128000 (2019) 53100 (2017) 76200 53400 53800 63500 105000 119000
2020-08-08 17:00 12.87 78300 128000 (2019) 53100 (2017) 76200 53400 53800 63500 105000 119000
2020-08-08 16:00 12.88 78400 128000 (2019) 53100 (2017) 76200 53400 53800 63500 105000 119000
2020-08-08 15:00 12.87 78300 128000 (2019) 53100 (2017) 76200 53400 53800 63500 105000 119000
2020-08-08 14:00 12.87 78300 128000 (2019) 53100 (2017) 76200 53400 53800 63500 105000 119000
2020-08-08 13:00 12.85 78200 128000 (2019) 53100 (2017) 76200 53400 53800 63500 105000 119000
2020-08-08 12:00 12.83 78000 128000 (2019) 53100 (2017) 76200 53400 53800 63500 105000 119000
2020-08-08 11:00 12.79 77700 128000 (2019) 53100 (2017) 76200 53400 53800 63500 105000 119000
2020-08-08 10:00 12.77 77600 128000 (2019) 53100 (2017) 76200 53400 53800 63500 105000 119000
2020-08-08 09:00 12.74 77300 128000 (2019) 53100 (2017) 76200 53400 53800 63500 105000 119000
2020-08-08 08:00 12.70 77000 128000 (2019) 53100 (2017) 76200 53400 53800 63500 105000 119000
2020-08-08 07:00 12.71 77100 128000 (2019) 53100 (2017) 76200 53400 53800 63500 105000 119000
2020-08-08 06:00 12.70 77000 128000 (2019) 53100 (2017) 76200 53400 53800 63500 105000 119000
2020-08-08 05:00 12.73 77200 128000 (2019) 53100 (2017) 76200 53400 53800 63500 105000 119000
2020-08-08 04:00 12.70 77000 128000 (2019) 53100 (2017) 76200 53400 53800 63500 105000 119000
2020-08-08 03:00 12.71 77100 128000 (2019) 53100 (2017) 76200 53400 53800 63500 105000 119000
2020-08-08 02:00 12.72 77200 128000 (2019) 53100 (2017) 76200 53400 53800 63500 105000 119000
2020-08-08 01:00 12.74 77300 128000 (2019) 53100 (2017) 76200 53400 53800 63500 105000 119000
2020-08-08 00:00 12.74 77300 128000 (2019) 53100 (2017) 76200 53400 53800 63500 105000 119000
2020-08-07 23:00 12.74 77300 128000 (2019) 56800 (2016) 80300 58800 61700 68600 105000 119000
2020-08-07 22:00 12.75 77400 128000 (2019) 56800 (2016) 80300 58800 61700 68600 105000 119000
2020-08-07 21:00 12.77 77600 128000 (2019) 56800 (2016) 80300 58800 61700 68600 105000 119000
2020-08-07 20:00 12.77 77600 128000 (2019) 56800 (2016) 80300 58800 61700 68600 105000 119000
2020-08-07 19:00 12.77 77600 128000 (2019) 56800 (2016) 80300 58800 61700 68600 105000 119000
2020-08-07 18:00 12.78 77600 128000 (2019) 56800 (2016) 80300 58800 61700 68600 105000 119000
2020-08-07 17:00 12.77 77600 128000 (2019) 56800 (2016) 80300 58800 61700 68600 105000 119000
2020-08-07 16:00 12.78 77600 128000 (2019) 56800 (2016) 80300 58800 61700 68600 105000 119000
2020-08-07 15:00 12.79 77700 128000 (2019) 56800 (2016) 80300 58800 61700 68600 105000 119000
2020-08-07 14:00 12.78 77600 128000 (2019) 56800 (2016) 80300 58800 61700 68600 105000 119000
2020-08-07 13:00 12.77 77600 128000 (2019) 56800 (2016) 80300 58800 61700 68600 105000 119000
2020-08-07 12:00 12.75 77400 128000 (2019) 56800 (2016) 80300 58800 61700 68600 105000 119000
2020-08-07 11:00 12.75 77400 128000 (2019) 56800 (2016) 80300 58800 61700 68600 105000 119000
2020-08-07 10:00 12.76 77500 128000 (2019) 56800 (2016) 80300 58800 61700 68600 105000 119000
2020-08-07 09:00 12.75 77400 128000 (2019) 56800 (2016) 80300 58800 61700 68600 105000 119000
2020-08-07 08:00 12.75 77400 128000 (2019) 56800 (2016) 80300 58800 61700 68600 105000 119000
2020-08-07 07:00 12.74 77300 128000 (2019) 56800 (2016) 80300 58800 61700 68600 105000 119000
2020-08-07 06:00 12.74 77300 128000 (2019) 56800 (2016) 80300 58800 61700 68600 105000 119000
2020-08-07 05:00 12.73 77200 128000 (2019) 56800 (2016) 80300 58800 61700 68600 105000 119000
2020-08-07 04:00 12.73 77200 128000 (2019) 56800 (2016) 80300 58800 61700 68600 105000 119000
2020-08-07 03:00 12.74 77300 128000 (2019) 56800 (2016) 80300 58800 61700 68600 105000 119000
2020-08-07 02:00 12.73 77200 128000 (2019) 56800 (2016) 80300 58800 61700 68600 105000 119000
2020-08-07 01:00 12.72 77200 128000 (2019) 56800 (2016) 80300 58800 61700 68600 105000 119000
2020-08-07 00:00 12.73 77200 128000 (2019) 56800 (2016) 80300 58800 61700 68600 105000 119000
2020-08-06 23:00 12.72 77200 129000 (2019) 59300 (2016) 84400 61400 64400 81000 106000 120000
2020-08-06 22:00 12.71 77100 129000 (2019) 59300 (2016) 84400 61400 64400 81000 106000 120000
2020-08-06 21:00 12.73 77200 129000 (2019) 59300 (2016) 84400 61400 64400 81000 106000 120000
2020-08-06 20:00 12.71 77100 129000 (2019) 59300 (2016) 84400 61400 64400 81000 106000 120000
2020-08-06 19:00 12.72 77200 129000 (2019) 59300 (2016) 84400 61400 64400 81000 106000 120000
2020-08-06 18:00 12.75 77400 129000 (2019) 59300 (2016) 84400 61400 64400 81000 106000 120000
2020-08-06 17:00 12.75 77400 129000 (2019) 59300 (2016) 84400 61400 64400 81000 106000 120000
2020-08-06 16:00 12.77 77600 129000 (2019) 59300 (2016) 84400 61400 64400 81000 106000 120000
2020-08-06 15:00 12.77 77600 129000 (2019) 59300 (2016) 84400 61400 64400 81000 106000 120000
2020-08-06 14:00 12.77 77600 129000 (2019) 59300 (2016) 84400 61400 64400 81000 106000 120000
2020-08-06 13:00 12.76 77500 129000 (2019) 59300 (2016) 84400 61400 64400 81000 106000 120000
2020-08-06 12:00 12.77 77600 129000 (2019) 59300 (2016) 84400 61400 64400 81000 106000 120000
2020-08-06 11:00 12.78 77600 129000 (2019) 59300 (2016) 84400 61400 64400 81000 106000 120000
2020-08-06 10:00 12.78 77600 129000 (2019) 59300 (2016) 84400 61400 64400 81000 106000 120000
2020-08-06 09:00 12.77 77600 129000 (2019) 59300 (2016) 84400 61400 64400 81000 106000 120000
2020-08-06 08:00 12.78 77600 129000 (2019) 59300 (2016) 84400 61400 64400 81000 106000 120000
2020-08-06 07:00 12.78 77600 129000 (2019) 59300 (2016) 84400 61400 64400 81000 106000 120000
2020-08-06 06:00 12.76 77500 129000 (2019) 59300 (2016) 84400 61400 64400 81000 106000 120000
2020-08-06 05:00 12.75 77400 129000 (2019) 59300 (2016) 84400 61400 64400 81000 106000 120000
2020-08-06 04:00 12.73 77200 129000 (2019) 59300 (2016) 84400 61400 64400 81000 106000 120000
2020-08-06 03:00 12.73 77200 129000 (2019) 59300 (2016) 84400 61400 64400 81000 106000 120000
2020-08-06 02:00 12.70 77000 129000 (2019) 59300 (2016) 84400 61400 64400 81000 106000 120000
2020-08-06 01:00 12.69 76900 129000 (2019) 59300 (2016) 84400 61400 64400 81000 106000 120000
2020-08-06 00:00 12.66 76700 129000 (2019) 59300 (2016) 84400 61400 64400 81000 106000 120000
2020-08-05 23:00 12.63 76500 129000 (2019) 47400 (2017) 77500 49900 53500 70200 105000 119000
2020-08-05 22:00 12.60 76200 129000 (2019) 47400 (2017) 77500 49900 53500 70200 105000 119000
2020-08-05 21:00 12.57 76000 129000 (2019) 47400 (2017) 77500 49900 53500 70200 105000 119000
2020-08-05 20:00 12.54 75800 129000 (2019) 47400 (2017) 77500 49900 53500 70200 105000 119000
2020-08-05 19:00 12.49 75400 129000 (2019) 47400 (2017) 77500 49900 53500 70200 105000 119000
2020-08-05 18:00 12.45 75100 129000 (2019) 47400 (2017) 77500 49900 53500 70200 105000 119000
2020-08-05 17:00 12.42 74900 129000 (2019) 47400 (2017) 77500 49900 53500 70200 105000 119000
2020-08-05 16:00 12.39 74700 129000 (2019) 47400 (2017) 77500 49900 53500 70200 105000 119000
2020-08-05 15:00 12.35 74400 129000 (2019) 47400 (2017) 77500 49900 53500 70200 105000 119000
2020-08-05 14:00 12.33 74200 129000 (2019) 47400 (2017) 77500 49900 53500 70200 105000 119000
2020-08-05 13:00 12.32 74100 129000 (2019) 47400 (2017) 77500 49900 53500 70200 105000 119000
2020-08-05 12:00 12.29 73900 129000 (2019) 47400 (2017) 77500 49900 53500 70200 105000 119000
2020-08-05 11:00 12.27 73800 129000 (2019) 47400 (2017) 77500 49900 53500 70200 105000 119000
2020-08-05 10:00 12.25 73600 129000 (2019) 47400 (2017) 77500 49900 53500 70200 105000 119000
2020-08-05 09:00 12.22 73400 129000 (2019) 47400 (2017) 77500 49900 53500 70200 105000 119000
2020-08-05 08:00 12.23 73500 129000 (2019) 47400 (2017) 77500 49900 53500 70200 105000 119000
2020-08-05 07:00 12.20 73200 129000 (2019) 47400 (2017) 77500 49900 53500 70200 105000 119000
2020-08-05 06:00 12.21 73300 129000 (2019) 47400 (2017) 77500 49900 53500 70200 105000 119000
2020-08-05 05:00 12.23 73500 129000 (2019) 47400 (2017) 77500 49900 53500 70200 105000 119000
2020-08-05 04:00 12.25 73600 129000 (2019) 47400 (2017) 77500 49900 53500 70200 105000 119000
2020-08-05 03:00 12.24 73500 129000 (2019) 47400 (2017) 77500 49900 53500 70200 105000 119000
2020-08-05 02:00 12.25 73600 129000 (2019) 47400 (2017) 77500 49900 53500 70200 105000 119000
2020-08-05 01:00 12.25 73600 129000 (2019) 47400 (2017) 77500 49900 53500 70200 105000 119000
2020-08-05 00:00 12.28 73800 129000 (2019) 47400 (2017) 77500 49900 53500 70200 105000 119000
2020-08-04 23:00 12.28 73800 131000 (2019) 46800 (2017) 77100 48200 50300 71600 107000 121000
2020-08-04 22:00 12.29 73900 131000 (2019) 46800 (2017) 77100 48200 50300 71600 107000 121000
2020-08-04 21:00 12.31 74100 131000 (2019) 46800 (2017) 77100 48200 50300 71600 107000 121000
2020-08-04 20:00 12.33 74200 131000 (2019) 46800 (2017) 77100 48200 50300 71600 107000 121000
2020-08-04 19:00 12.35 74400 131000 (2019) 46800 (2017) 77100 48200 50300 71600 107000 121000
2020-08-04 18:00 12.37 74500 131000 (2019) 46800 (2017) 77100 48200 50300 71600 107000 121000
2020-08-04 17:00 12.41 74800 131000 (2019) 46800 (2017) 77100 48200 50300 71600 107000 121000
2020-08-04 16:00 12.42 74900 131000 (2019) 46800 (2017) 77100 48200 50300 71600 107000 121000
2020-08-04 15:00 12.46 75200 131000 (2019) 46800 (2017) 77100 48200 50300 71600 107000 121000
2020-08-04 14:00 12.50 75500 131000 (2019) 46800 (2017) 77100 48200 50300 71600 107000 121000
2020-08-04 13:00 12.53 75700 131000 (2019) 46800 (2017) 77100 48200 50300 71600 107000 121000
2020-08-04 12:00 12.55 75900 131000 (2019) 46800 (2017) 77100 48200 50300 71600 107000 121000
2020-08-04 11:00 12.59 76200 131000 (2019) 46800 (2017) 77100 48200 50300 71600 107000 121000
2020-08-04 10:00 12.61 76300 131000 (2019) 46800 (2017) 77100 48200 50300 71600 107000 121000
2020-08-04 09:00 12.65 76600 131000 (2019) 46800 (2017) 77100 48200 50300 71600 107000 121000
2020-08-04 08:00 12.70 77000 131000 (2019) 46800 (2017) 77100 48200 50300 71600 107000 121000
2020-08-04 07:00 12.73 77200 131000 (2019) 46800 (2017) 77100 48200 50300 71600 107000 121000
2020-08-04 06:00 12.76 77500 131000 (2019) 46800 (2017) 77100 48200 50300 71600 107000 121000
2020-08-04 05:00 12.80 77800 131000 (2019) 46800 (2017) 77100 48200 50300 71600 107000 121000
2020-08-04 04:00 12.85 78200 131000 (2019) 46800 (2017) 77100 48200 50300 71600 107000 121000
2020-08-04 03:00 12.88 78400 131000 (2019) 46800 (2017) 77100 48200 50300 71600 107000 121000
2020-08-04 02:00 12.93 78800 131000 (2019) 46800 (2017) 77100 48200 50300 71600 107000 121000
2020-08-04 01:00 12.98 79200 131000 (2019) 46800 (2017) 77100 48200 50300 71600 107000 121000
2020-08-04 00:00 13.02 79500 131000 (2019) 46800 (2017) 77100 48200 50300 71600 107000 121000
2020-08-03 23:00 13.06 79800 140000 (2019) 47600 (2017) 79600 48000 48700 76400 112000 129000
2020-08-03 22:00 13.04 79700 140000 (2019) 47600 (2017) 79600 48000 48700 76400 112000 129000
2020-08-03 21:00 13.16 80600 140000 (2019) 47600 (2017) 79600 48000 48700 76400 112000 129000
2020-08-03 20:00 13.22 81100 140000 (2019) 47600 (2017) 79600 48000 48700 76400 112000 129000
2020-08-03 19:00 13.28 81600 140000 (2019) 47600 (2017) 79600 48000 48700 76400 112000 129000
2020-08-03 18:00 13.32 81900 140000 (2019) 47600 (2017) 79600 48000 48700 76400 112000 129000
2020-08-03 17:00 13.40 82500 140000 (2019) 47600 (2017) 79600 48000 48700 76400 112000 129000
2020-08-03 16:00 13.46 83000 140000 (2019) 47600 (2017) 79600 48000 48700 76400 112000 129000
2020-08-03 15:00 13.52 83500 140000 (2019) 47600 (2017) 79600 48000 48700 76400 112000 129000
2020-08-03 14:00 13.60 84100 140000 (2019) 47600 (2017) 79600 48000 48700 76400 112000 129000
2020-08-03 13:00 13.68 84800 140000 (2019) 47600 (2017) 79600 48000 48700 76400 112000 129000
2020-08-03 12:00 13.75 85400 140000 (2019) 47600 (2017) 79600 48000 48700 76400 112000 129000
2020-08-03 11:00 13.82 86000 140000 (2019) 47600 (2017) 79600 48000 48700 76400 112000 129000
2020-08-03 10:00 13.90 86600 140000 (2019) 47600 (2017) 79600 48000 48700 76400 112000 129000
2020-08-03 09:00 13.98 87300 140000 (2019) 47600 (2017) 79600 48000 48700 76400 112000 129000
2020-08-03 08:00 14.05 87900 140000 (2019) 47600 (2017) 79600 48000 48700 76400 112000 129000
2020-08-03 07:00 14.15 88700 140000 (2019) 47600 (2017) 79600 48000 48700 76400 112000 129000
2020-08-03 06:00 14.21 89200 140000 (2019) 47600 (2017) 79600 48000 48700 76400 112000 129000
2020-08-03 05:00 14.31 90100 140000 (2019) 47600 (2017) 79600 48000 48700 76400 112000 129000
2020-08-03 04:00 14.41 90900 140000 (2019) 47600 (2017) 79600 48000 48700 76400 112000 129000
2020-08-03 03:00 14.49 91600 140000 (2019) 47600 (2017) 79600 48000 48700 76400 112000 129000
2020-08-03 02:00 14.58 92400 140000 (2019) 47600 (2017) 79600 48000 48700 76400 112000 129000
2020-08-03 01:00 14.65 93000 140000 (2019) 47600 (2017) 79600 48000 48700 76400 112000 129000
2020-08-03 00:00 14.75 93900 140000 (2019) 47600 (2017) 79600 48000 48700 76400 112000 129000
2020-08-02 23:00 14.85 94800 151000 (2019) 48200 (2017) 83500 48800 49700 81300 118000 138000
2020-08-02 22:00 14.93 95500 151000 (2019) 48200 (2017) 83500 48800 49700 81300 118000 138000
2020-08-02 21:00 15.02 96300 151000 (2019) 48200 (2017) 83500 48800 49700 81300 118000 138000
2020-08-02 20:00 15.13 97300 151000 (2019) 48200 (2017) 83500 48800 49700 81300 118000 138000
2020-08-02 19:00 15.23 98200 151000 (2019) 48200 (2017) 83500 48800 49700 81300 118000 138000
2020-08-02 18:00 15.32 99000 151000 (2019) 48200 (2017) 83500 48800 49700 81300 118000 138000
2020-08-02 17:00 15.38 99600 151000 (2019) 48200 (2017) 83500 48800 49700 81300 118000 138000
2020-08-02 16:00 15.49 101000 151000 (2019) 48200 (2017) 83500 48800 49700 81300 118000 138000
2020-08-02 15:00 15.56 101000 151000 (2019) 48200 (2017) 83500 48800 49700 81300 118000 138000
2020-08-02 14:00 15.65 102000 151000 (2019) 48200 (2017) 83500 48800 49700 81300 118000 138000
2020-08-02 13:00 15.74 103000 151000 (2019) 48200 (2017) 83500 48800 49700 81300 118000 138000
2020-08-02 12:00 15.83 104000 151000 (2019) 48200 (2017) 83500 48800 49700 81300 118000 138000
2020-08-02 11:00 15.91 105000 151000 (2019) 48200 (2017) 83500 48800 49700 81300 118000 138000
2020-08-02 10:00 16.02 106000 151000 (2019) 48200 (2017) 83500 48800 49700 81300 118000 138000
2020-08-02 09:00 16.11 106000 151000 (2019) 48200 (2017) 83500 48800 49700 81300 118000 138000
2020-08-02 08:00 16.21 107000 151000 (2019) 48200 (2017) 83500 48800 49700 81300 118000 138000
2020-08-02 07:00 16.31 108000 151000 (2019) 48200 (2017) 83500 48800 49700 81300 118000 138000
2020-08-02 06:00 16.37 109000 151000 (2019) 48200 (2017) 83500 48800 49700 81300 118000 138000
2020-08-02 05:00 16.48 110000 151000 (2019) 48200 (2017) 83500 48800 49700 81300 118000 138000
2020-08-02 04:00 16.56 111000 151000 (2019) 48200 (2017) 83500 48800 49700 81300 118000 138000
2020-08-02 03:00 16.68 112000 151000 (2019) 48200 (2017) 83500 48800 49700 81300 118000 138000
2020-08-02 02:00 16.78 113000 151000 (2019) 48200 (2017) 83500 48800 49700 81300 118000 138000
2020-08-02 01:00 16.92 114000 151000 (2019) 48200 (2017) 83500 48800 49700 81300 118000 138000
2020-08-02 00:00 17.02 115000 151000 (2019) 48200 (2017) 83500 48800 49700 81300 118000 138000
2020-08-01 23:00 17.12 116000 144000 (2019) 49900 (2017) 84600 50500 51400 87000 117000 133000
2020-08-01 22:00 17.28 118000 144000 (2019) 49900 (2017) 84600 50500 51400 87000 117000 133000
2020-08-01 21:00 17.43 120000 144000 (2019) 49900 (2017) 84600 50500 51400 87000 117000 133000
2020-08-01 20:00 17.57 121000 144000 (2019) 49900 (2017) 84600 50500 51400 87000 117000 133000
2020-08-01 19:00 17.73 123000 144000 (2019) 49900 (2017) 84600 50500 51400 87000 117000 133000
2020-08-01 18:00 17.89 124000 144000 (2019) 49900 (2017) 84600 50500 51400 87000 117000 133000
2020-08-01 17:00 18.07 126000 144000 (2019) 49900 (2017) 84600 50500 51400 87000 117000 133000
2020-08-01 16:00 18.25 128000 144000 (2019) 49900 (2017) 84600 50500 51400 87000 117000 133000
2020-08-01 15:00 18.46 131000 144000 (2019) 49900 (2017) 84600 50500 51400 87000 117000 133000
2020-08-01 14:00 18.65 133000 144000 (2019) 49900 (2017) 84600 50500 51400 87000 117000 133000
2020-08-01 13:00 18.85 135000 144000 (2019) 49900 (2017) 84600 50500 51400 87000 117000 133000
2020-08-01 12:00 19.06 137000 144000 (2019) 49900 (2017) 84600 50500 51400 87000 117000 133000
2020-08-01 11:00 19.30 140000 144000 (2019) 49900 (2017) 84600 50500 51400 87000 117000 133000
2020-08-01 10:00 19.47 142000 144000 (2019) 49900 (2017) 84600 50500 51400 87000 117000 133000
2020-08-01 09:00 19.72 145000 144000 (2019) 49900 (2017) 84600 50500 51400 87000 117000 133000
2020-08-01 08:00 19.94 148000 144000 (2019) 49900 (2017) 84600 50500 51400 87000 117000 133000
2020-08-01 07:00 20.16 150000 144000 (2019) 49900 (2017) 84600 50500 51400 87000 117000 133000
2020-08-01 06:00 20.35 153000 144000 (2019) 49900 (2017) 84600 50500 51400 87000 117000 133000
2020-08-01 05:00 20.55 155000 144000 (2019) 49900 (2017) 84600 50500 51400 87000 117000 133000
2020-08-01 04:00 20.75 158000 144000 (2019) 49900 (2017) 84600 50500 51400 87000 117000 133000
2020-08-01 03:00 20.94 160000 144000 (2019) 49900 (2017) 84600 50500 51400 87000 117000 133000
2020-08-01 02:00 21.08 162000 144000 (2019) 49900 (2017) 84600 50500 51400 87000 117000 133000
2020-08-01 01:00 21.29 165000 144000 (2019) 49900 (2017) 84600 50500 51400 87000 117000 133000
2020-08-01 00:00 21.43 167000 144000 (2019) 49900 (2017) 84600 50500 51400 87000 117000 133000
2020-07-31 23:00 21.59 169000 147000 (2019) 51700 (2016) 88400 51900 52100 88700 124000 138000
2020-07-31 22:00 21.70 170000 147000 (2019) 51700 (2016) 88400 51900 52100 88700 124000 138000
2020-07-31 21:00 21.83 172000 147000 (2019) 51700 (2016) 88400 51900 52100 88700 124000 138000
2020-07-31 20:00 21.89 173000 147000 (2019) 51700 (2016) 88400 51900 52100 88700 124000 138000
2020-07-31 19:00 21.97 174000 147000 (2019) 51700 (2016) 88400 51900 52100 88700 124000 138000
2020-07-31 18:00 21.99 174000 147000 (2019) 51700 (2016) 88400 51900 52100 88700 124000 138000
2020-07-31 17:00 22.03 174000 147000 (2019) 51700 (2016) 88400 51900 52100 88700 124000 138000
2020-07-31 16:00 22.02 174000 147000 (2019) 51700 (2016) 88400 51900 52100 88700 124000 138000
2020-07-31 15:00 21.97 174000 147000 (2019) 51700 (2016) 88400 51900 52100 88700 124000 138000
2020-07-31 14:00 21.88 172000 147000 (2019) 51700 (2016) 88400 51900 52100 88700 124000 138000
2020-07-31 13:00 21.76 171000 147000 (2019) 51700 (2016) 88400 51900 52100 88700 124000 138000
2020-07-31 12:00 21.55 168000 147000 (2019) 51700 (2016) 88400 51900 52100 88700 124000 138000
2020-07-31 11:00 21.34 165000 147000 (2019) 51700 (2016) 88400 51900 52100 88700 124000 138000
2020-07-31 10:00 21.06 162000 147000 (2019) 51700 (2016) 88400 51900 52100 88700 124000 138000
2020-07-31 09:00 20.76 158000 147000 (2019) 51700 (2016) 88400 51900 52100 88700 124000 138000
2020-07-31 08:00 20.38 153000 147000 (2019) 51700 (2016) 88400 51900 52100 88700 124000 138000
2020-07-31 07:00 19.94 148000 147000 (2019) 51700 (2016) 88400 51900 52100 88700 124000 138000
2020-07-31 06:00 19.47 142000 147000 (2019) 51700 (2016) 88400 51900 52100 88700 124000 138000
2020-07-31 05:00 19.03 137000 147000 (2019) 51700 (2016) 88400 51900 52100 88700 124000 138000
2020-07-31 04:00 18.60 132000 147000 (2019) 51700 (2016) 88400 51900 52100 88700 124000 138000
2020-07-31 03:00 18.17 128000 147000 (2019) 51700 (2016) 88400 51900 52100 88700 124000 138000
2020-07-31 02:00 17.82 124000 147000 (2019) 51700 (2016) 88400 51900 52100 88700 124000 138000
2020-07-31 01:00 17.52 121000 147000 (2019) 51700 (2016) 88400 51900 52100 88700 124000 138000
2020-07-31 00:00 17.26 118000 147000 (2019) 51700 (2016) 88400 51900 52100 88700 124000 138000
2020-07-30 23:00 16.98 115000 151000 (2019) 51600 (2016) 87600 52300 53200 89100 121000 139000
2020-07-30 22:00 16.81 113000 151000 (2019) 51600 (2016) 87600 52300 53200 89100 121000 139000
2020-07-30 21:00 16.65 112000 151000 (2019) 51600 (2016) 87600 52300 53200 89100 121000 139000
2020-07-30 20:00 16.49 110000 151000 (2019) 51600 (2016) 87600 52300 53200 89100 121000 139000
2020-07-30 19:00 16.37 109000 151000 (2019) 51600 (2016) 87600 52300 53200 89100 121000 139000
2020-07-30 18:00 16.19 107000 151000 (2019) 51600 (2016) 87600 52300 53200 89100 121000 139000
2020-07-30 17:00 16.01 105000 151000 (2019) 51600 (2016) 87600 52300 53200 89100 121000 139000
2020-07-30 16:00 15.85 104000 151000 (2019) 51600 (2016) 87600 52300 53200 89100 121000 139000
2020-07-30 15:00 15.72 103000 151000 (2019) 51600 (2016) 87600 52300 53200 89100 121000 139000
2020-07-30 14:00 15.54 101000 151000 (2019) 51600 (2016) 87600 52300 53200 89100 121000 139000
2020-07-30 13:00 15.42 99900 151000 (2019) 51600 (2016) 87600 52300 53200 89100 121000 139000
2020-07-30 12:00 15.26 98500 151000 (2019) 51600 (2016) 87600 52300 53200 89100 121000 139000
2020-07-30 11:00 15.11 97100 151000 (2019) 51600 (2016) 87600 52300 53200 89100 121000 139000
2020-07-30 10:00 14.95 95700 151000 (2019) 51600 (2016) 87600 52300 53200 89100 121000 139000
2020-07-30 09:00 14.78 94200 151000 (2019) 51600 (2016) 87600 52300 53200 89100 121000 139000
2020-07-30 08:00 14.64 92900 151000 (2019) 51600 (2016) 87600 52300 53200 89100 121000 139000
2020-07-30 07:00 14.50 91700 151000 (2019) 51600 (2016) 87600 52300 53200 89100 121000 139000
2020-07-30 06:00 14.35 90400 151000 (2019) 51600 (2016) 87600 52300 53200 89100 121000 139000
2020-07-30 05:00 14.19 89100 151000 (2019) 51600 (2016) 87600 52300 53200 89100 121000 139000
2020-07-30 04:00 14.10 88300 151000 (2019) 51600 (2016) 87600 52300 53200 89100 121000 139000
2020-07-30 03:00 13.98 87300 151000 (2019) 51600 (2016) 87600 52300 53200 89100 121000 139000
2020-07-30 02:00 13.90 86600 151000 (2019) 51600 (2016) 87600 52300 53200 89100 121000 139000
2020-07-30 01:00 13.82 86000 151000 (2019) 51600 (2016) 87600 52300 53200 89100 121000 139000
2020-07-30 00:00 13.74 85300 151000 (2019) 51600 (2016) 87600 52300 53200 89100 121000 139000
2020-07-29 23:00 13.67 84700 158000 (2019) 52600 (2016) 87500 53700 55300 75900 125000 145000
2020-07-29 22:00 13.61 84200 158000 (2019) 52600 (2016) 87500 53700 55300 75900 125000 145000
2020-07-29 21:00 13.58 84000 158000 (2019) 52600 (2016) 87500 53700 55300 75900 125000 145000
2020-07-29 20:00 13.54 83700 158000 (2019) 52600 (2016) 87500 53700 55300 75900 125000 145000
2020-07-29 19:00 13.52 83500 158000 (2019) 52600 (2016) 87500 53700 55300 75900 125000 145000
2020-07-29 18:00 13.50 83300 158000 (2019) 52600 (2016) 87500 53700 55300 75900 125000 145000
2020-07-29 17:00 13.50 83300 158000 (2019) 52600 (2016) 87500 53700 55300 75900 125000 145000
2020-07-29 16:00 13.50 83300 158000 (2019) 52600 (2016) 87500 53700 55300 75900 125000 145000
2020-07-29 15:00 13.53 83600 158000 (2019) 52600 (2016) 87500 53700 55300 75900 125000 145000
2020-07-29 14:00 13.55 83700 158000 (2019) 52600 (2016) 87500 53700 55300 75900 125000 145000
2020-07-29 13:00 13.57 83900 158000 (2019) 52600 (2016) 87500 53700 55300 75900 125000 145000
2020-07-29 12:00 13.60 84100 158000 (2019) 52600 (2016) 87500 53700 55300 75900 125000 145000
2020-07-29 11:00 13.63 84400 158000 (2019) 52600 (2016) 87500 53700 55300 75900 125000 145000
2020-07-29 10:00 13.64 84500 158000 (2019) 52600 (2016) 87500 53700 55300 75900 125000 145000
2020-07-29 09:00 13.68 84800 158000 (2019) 52600 (2016) 87500 53700 55300 75900 125000 145000
2020-07-29 08:00 13.70 85000 158000 (2019) 52600 (2016) 87500 53700 55300 75900 125000 145000
2020-07-29 07:00 13.71 85000 158000 (2019) 52600 (2016) 87500 53700 55300 75900 125000 145000
2020-07-29 06:00 13.71 85000 158000 (2019) 52600 (2016) 87500 53700 55300 75900 125000 145000
2020-07-29 05:00 13.70 85000 158000 (2019) 52600 (2016) 87500 53700 55300 75900 125000 145000
2020-07-29 04:00 13.71 85000 158000 (2019) 52600 (2016) 87500 53700 55300 75900 125000 145000
2020-07-29 03:00 13.70 85000 158000 (2019) 52600 (2016) 87500 53700 55300 75900 125000 145000
2020-07-29 02:00 13.70 85000 158000 (2019) 52600 (2016) 87500 53700 55300 75900 125000 145000
2020-07-29 01:00 13.70 85000 158000 (2019) 52600 (2016) 87500 53700 55300 75900 125000 145000
2020-07-29 00:00 13.66 84600 158000 (2019) 52600 (2016) 87500 53700 55300 75900 125000 145000
2020-07-28 23:00 13.64 84500 166000 (2019) 53500 (2016) 94300 57900 64400 83600 130000 151000
2020-07-28 22:00 13.61 84200 166000 (2019) 53500 (2016) 94300 57900 64400 83600 130000 151000
2020-07-28 21:00 13.57 83900 166000 (2019) 53500 (2016) 94300 57900 64400 83600 130000 151000
2020-07-28 20:00 13.53 83600 166000 (2019) 53500 (2016) 94300 57900 64400 83600 130000 151000
2020-07-28 19:00 13.49 83300 166000 (2019) 53500 (2016) 94300 57900 64400 83600 130000 151000
2020-07-28 18:00 13.44 82800 166000 (2019) 53500 (2016) 94300 57900 64400 83600 130000 151000
2020-07-28 17:00 13.38 82400 166000 (2019) 53500 (2016) 94300 57900 64400 83600 130000 151000
2020-07-28 16:00 13.30 81700 166000 (2019) 53500 (2016) 94300 57900 64400 83600 130000 151000
2020-07-28 15:00 13.24 81200 166000 (2019) 53500 (2016) 94300 57900 64400 83600 130000 151000
2020-07-28 14:00 13.16 80600 166000 (2019) 53500 (2016) 94300 57900 64400 83600 130000 151000
2020-07-28 13:00 13.08 80000 166000 (2019) 53500 (2016) 94300 57900 64400 83600 130000 151000
2020-07-28 12:00 12.99 79300 166000 (2019) 53500 (2016) 94300 57900 64400 83600 130000 151000
2020-07-28 11:00 12.92 78700 166000 (2019) 53500 (2016) 94300 57900 64400 83600 130000 151000
2020-07-28 10:00 12.85 78200 166000 (2019) 53500 (2016) 94300 57900 64400 83600 130000 151000
2020-07-28 09:00 12.77 77600 166000 (2019) 53500 (2016) 94300 57900 64400 83600 130000 151000
2020-07-28 08:00 12.73 77200 166000 (2019) 53500 (2016) 94300 57900 64400 83600 130000 151000
2020-07-28 07:00 12.66 76700 166000 (2019) 53500 (2016) 94300 57900 64400 83600 130000 151000
2020-07-28 06:00 12.61 76300 166000 (2019) 53500 (2016) 94300 57900 64400 83600 130000 151000
2020-07-28 05:00 12.57 76000 166000 (2019) 53500 (2016) 94300 57900 64400 83600 130000 151000
2020-07-28 04:00 12.56 75900 166000 (2019) 53500 (2016) 94300 57900 64400 83600 130000 151000
2020-07-28 03:00 12.55 75900 166000 (2019) 53500 (2016) 94300 57900 64400 83600 130000 151000
2020-07-28 02:00 12.56 75900 166000 (2019) 53500 (2016) 94300 57900 64400 83600 130000 151000
2020-07-28 01:00 12.58 76100 166000 (2019) 53500 (2016) 94300 57900 64400 83600 130000 151000
2020-07-28 00:00 12.60 76200 166000 (2019) 53500 (2016) 94300 57900 64400 83600 130000 151000
2020-07-27 23:00 12.66 76700 168000 (2019) 54800 (2016) 97400 59200 65800 93000 131000 153000
2020-07-27 22:00 12.71 77100 168000 (2019) 54800 (2016) 97400 59200 65800 93000 131000 153000
2020-07-27 21:00 12.80 77800 168000 (2019) 54800 (2016) 97400 59200 65800 93000 131000 153000
2020-07-27 20:00 12.91 78600 168000 (2019) 54800 (2016) 97400 59200 65800 93000 131000 153000
2020-07-27 19:00 12.99 79300 168000 (2019) 54800 (2016) 97400 59200 65800 93000 131000 153000
2020-07-27 18:00 13.09 80100 168000 (2019) 54800 (2016) 97400 59200 65800 93000 131000 153000
2020-07-27 17:00 13.19 80800 168000 (2019) 54800 (2016) 97400 59200 65800 93000 131000 153000
2020-07-27 16:00 13.28 81600 168000 (2019) 54800 (2016) 97400 59200 65800 93000 131000 153000
2020-07-27 15:00 13.36 82200 168000 (2019) 54800 (2016) 97400 59200 65800 93000 131000 153000
2020-07-27 14:00 13.42 82700 168000 (2019) 54800 (2016) 97400 59200 65800 93000 131000 153000
2020-07-27 13:00 13.46 83000 168000 (2019) 54800 (2016) 97400 59200 65800 93000 131000 153000
2020-07-27 12:00 13.45 82900 168000 (2019) 54800 (2016) 97400 59200 65800 93000 131000 153000
2020-07-27 11:00 13.39 82400 168000 (2019) 54800 (2016) 97400 59200 65800 93000 131000 153000
2020-07-27 10:00 13.30 81700 168000 (2019) 54800 (2016) 97400 59200 65800 93000 131000 153000
2020-07-27 09:00 13.13 80400 168000 (2019) 54800 (2016) 97400 59200 65800 93000 131000 153000
2020-07-27 08:00 12.91 78600 168000 (2019) 54800 (2016) 97400 59200 65800 93000 131000 153000
2020-07-27 07:00 12.65 76600 168000 (2019) 54800 (2016) 97400 59200 65800 93000 131000 153000
2020-07-27 06:00 12.34 74300 168000 (2019) 54800 (2016) 97400 59200 65800 93000 131000 153000
2020-07-27 05:00 12.04 72100 168000 (2019) 54800 (2016) 97400 59200 65800 93000 131000 153000
2020-07-27 04:00 11.76 70000 168000 (2019) 54800 (2016) 97400 59200 65800 93000 131000 153000
2020-07-27 03:00 11.65 69200 168000 (2019) 54800 (2016) 97400 59200 65800 93000 131000 153000
2020-07-27 02:00 11.60 68900 168000 (2019) 54800 (2016) 97400 59200 65800 93000 131000 153000
2020-07-27 01:00 11.58 68700 168000 (2019) 54800 (2016) 97400 59200 65800 93000 131000 153000
2020-07-27 00:00 11.55 68500 168000 (2019) 54800 (2016) 97400 59200 65800 93000 131000 153000
2020-07-26 23:00 11.57 68700 167000 (2019) 48400 (2017) 87700 50100 52700 70500 131000 153000
2020-07-26 22:00 11.56 68600 167000 (2019) 48400 (2017) 87700 50100 52700 70500 131000 153000
2020-07-26 21:00 11.55 68500 167000 (2019) 48400 (2017) 87700 50100 52700 70500 131000 153000
2020-07-26 20:00 11.57 68700 167000 (2019) 48400 (2017) 87700 50100 52700 70500 131000 153000
2020-07-26 19:00 11.59 68800 167000 (2019) 48400 (2017) 87700 50100 52700 70500 131000 153000
2020-07-26 18:00 11.58 68700 167000 (2019) 48400 (2017) 87700 50100 52700 70500 131000 153000
2020-07-26 17:00 11.58 68700 167000 (2019) 48400 (2017) 87700 50100 52700 70500 131000 153000
2020-07-26 16:00 11.59 68800 167000 (2019) 48400 (2017) 87700 50100 52700 70500 131000 153000
2020-07-26 15:00 11.61 68900 167000 (2019) 48400 (2017) 87700 50100 52700 70500 131000 153000
2020-07-26 14:00 11.60 68900 167000 (2019) 48400 (2017) 87700 50100 52700 70500 131000 153000
2020-07-26 13:00 11.64 69200 167000 (2019) 48400 (2017) 87700 50100 52700 70500 131000 153000
2020-07-26 12:00 11.63 69100 167000 (2019) 48400 (2017) 87700 50100 52700 70500 131000 153000
2020-07-26 11:00 11.65 69200 167000 (2019) 48400 (2017) 87700 50100 52700 70500 131000 153000
2020-07-26 10:00 11.64 69200 167000 (2019) 48400 (2017) 87700 50100 52700 70500 131000 153000
2020-07-26 09:00 11.66 69300 167000 (2019) 48400 (2017) 87700 50100 52700 70500 131000 153000
2020-07-26 08:00 11.68 69400 167000 (2019) 48400 (2017) 87700 50100 52700 70500 131000 153000
2020-07-26 07:00 11.66 69300 167000 (2019) 48400 (2017) 87700 50100 52700 70500 131000 153000
2020-07-26 06:00 11.67 69400 167000 (2019) 48400 (2017) 87700 50100 52700 70500 131000 153000
2020-07-26 05:00 11.70 69600 167000 (2019) 48400 (2017) 87700 50100 52700 70500 131000 153000
2020-07-26 04:00 11.69 69500 167000 (2019) 48400 (2017) 87700 50100 52700 70500 131000 153000
2020-07-26 03:00 11.72 69700 167000 (2019) 48400 (2017) 87700 50100 52700 70500 131000 153000
2020-07-26 02:00 11.72 69700 167000 (2019) 48400 (2017) 87700 50100 52700 70500 131000 153000
2020-07-26 01:00 11.73 69800 167000 (2019) 48400 (2017) 87700 50100 52700 70500 131000 153000
2020-07-26 00:00 11.73 69800 167000 (2019) 48400 (2017) 87700 50100 52700 70500 131000 153000
2020-07-25 23:00 11.75 69900 167000 (2019) 48800 (2017) 88700 51000 54300 71300 132000 153000
2020-07-25 22:00 11.76 70000 167000 (2019) 48800 (2017) 88700 51000 54300 71300 132000 153000
2020-07-25 21:00 11.75 69900 167000 (2019) 48800 (2017) 88700 51000 54300 71300 132000 153000
2020-07-25 20:00 11.77 70100 167000 (2019) 48800 (2017) 88700 51000 54300 71300 132000 153000
2020-07-25 19:00 11.77 70100 167000 (2019) 48800 (2017) 88700 51000 54300 71300 132000 153000
2020-07-25 18:00 11.77 70100 167000 (2019) 48800 (2017) 88700 51000 54300 71300 132000 153000
2020-07-25 17:00 11.79 70200 167000 (2019) 48800 (2017) 88700 51000 54300 71300 132000 153000
2020-07-25 16:00 11.80 70300 167000 (2019) 48800 (2017) 88700 51000 54300 71300 132000 153000
2020-07-25 15:00 11.80 70300 167000 (2019) 48800 (2017) 88700 51000 54300 71300 132000 153000
2020-07-25 14:00 11.79 70200 167000 (2019) 48800 (2017) 88700 51000 54300 71300 132000 153000
2020-07-25 13:00 11.80 70300 167000 (2019) 48800 (2017) 88700 51000 54300 71300 132000 153000
2020-07-25 12:00 11.82 70500 167000 (2019) 48800 (2017) 88700 51000 54300 71300 132000 153000
2020-07-25 11:00 11.83 70500 167000 (2019) 48800 (2017) 88700 51000 54300 71300 132000 153000
2020-07-25 10:00 11.83 70500 167000 (2019) 48800 (2017) 88700 51000 54300 71300 132000 153000
2020-07-25 09:00 11.81 70400 167000 (2019) 48800 (2017) 88700 51000 54300 71300 132000 153000
2020-07-25 08:00 11.83 70500 167000 (2019) 48800 (2017) 88700 51000 54300 71300 132000 153000
2020-07-25 07:00 11.84 70600 167000 (2019) 48800 (2017) 88700 51000 54300 71300 132000 153000
2020-07-25 06:00 11.83 70500 167000 (2019) 48800 (2017) 88700 51000 54300 71300 132000 153000
2020-07-25 05:00 11.86 70700 167000 (2019) 48800 (2017) 88700 51000 54300 71300 132000 153000
2020-07-25 04:00 11.85 70700 167000 (2019) 48800 (2017) 88700 51000 54300 71300 132000 153000
2020-07-25 03:00 11.87 70800 167000 (2019) 48800 (2017) 88700 51000 54300 71300 132000 153000
2020-07-25 02:00 11.87 70800 167000 (2019) 48800 (2017) 88700 51000 54300 71300 132000 153000
2020-07-25 01:00 11.87 70800 167000 (2019) 48800 (2017) 88700 51000 54300 71300 132000 153000
2020-07-25 00:00 11.90 71000 167000 (2019) 48800 (2017) 88700 51000 54300 71300 132000 153000
2020-07-24 23:00 11.92 71200 170000 (2019) 51000 (2017) 91700 53400 56900 75600 135000 156000
2020-07-24 22:00 11.92 71200 170000 (2019) 51000 (2017) 91700 53400 56900 75600 135000 156000
2020-07-24 21:00 11.95 71400 170000 (2019) 51000 (2017) 91700 53400 56900 75600 135000 156000
2020-07-24 20:00 11.96 71500 170000 (2019) 51000 (2017) 91700 53400 56900 75600 135000 156000
2020-07-24 19:00 11.97 71500 170000 (2019) 51000 (2017) 91700 53400 56900 75600 135000 156000
2020-07-24 18:00 12.01 71800 170000 (2019) 51000 (2017) 91700 53400 56900 75600 135000 156000
2020-07-24 17:00 12.02 71900 170000 (2019) 51000 (2017) 91700 53400 56900 75600 135000 156000
2020-07-24 16:00 12.05 72100 170000 (2019) 51000 (2017) 91700 53400 56900 75600 135000 156000
2020-07-24 15:00 12.08 72300 170000 (2019) 51000 (2017) 91700 53400 56900 75600 135000 156000
2020-07-24 14:00 12.12 72600 170000 (2019) 51000 (2017) 91700 53400 56900 75600 135000 156000
2020-07-24 13:00 12.13 72700 170000 (2019) 51000 (2017) 91700 53400 56900 75600 135000 156000
2020-07-24 12:00 12.17 73000 170000 (2019) 51000 (2017) 91700 53400 56900 75600 135000 156000
2020-07-24 11:00 12.20 73200 170000 (2019) 51000 (2017) 91700 53400 56900 75600 135000 156000
2020-07-24 10:00 12.25 73600 170000 (2019) 51000 (2017) 91700 53400 56900 75600 135000 156000
2020-07-24 09:00 12.30 74000 170000 (2019) 51000 (2017) 91700 53400 56900 75600 135000 156000
2020-07-24 08:00 12.35 74400 170000 (2019) 51000 (2017) 91700 53400 56900 75600 135000 156000
2020-07-24 07:00 12.39 74700 170000 (2019) 51000 (2017) 91700 53400 56900 75600 135000 156000
2020-07-24 06:00 12.43 75000 170000 (2019) 51000 (2017) 91700 53400 56900 75600 135000 156000
2020-07-24 05:00 12.49 75400 170000 (2019) 51000 (2017) 91700 53400 56900 75600 135000 156000
2020-07-24 04:00 12.54 75800 170000 (2019) 51000 (2017) 91700 53400 56900 75600 135000 156000
2020-07-24 03:00 12.61 76300 170000 (2019) 51000 (2017) 91700 53400 56900 75600 135000 156000
2020-07-24 02:00 12.66 76700 170000 (2019) 51000 (2017) 91700 53400 56900 75600 135000 156000
2020-07-24 01:00 12.70 77000 170000 (2019) 51000 (2017) 91700 53400 56900 75600 135000 156000
2020-07-24 00:00 12.76 77500 170000 (2019) 51000 (2017) 91700 53400 56900 75600 135000 156000
2020-07-23 23:00 12.81 77900 177000 (2019) 55700 (2017) 97500 58500 62600 85400 139000 162000
2020-07-23 22:00 12.87 78300 177000 (2019) 55700 (2017) 97500 58500 62600 85400 139000 162000
2020-07-23 21:00 12.95 79000 177000 (2019) 55700 (2017) 97500 58500 62600 85400 139000 162000
2020-07-23 20:00 13.02 79500 177000 (2019) 55700 (2017) 97500 58500 62600 85400 139000 162000
2020-07-23 19:00 13.08 80000 177000 (2019) 55700 (2017) 97500 58500 62600 85400 139000 162000
2020-07-23 18:00 13.15 80500 177000 (2019) 55700 (2017) 97500 58500 62600 85400 139000 162000
2020-07-23 17:00 13.20 80900 177000 (2019) 55700 (2017) 97500 58500 62600 85400 139000 162000
2020-07-23 16:00 13.26 81400 177000 (2019) 55700 (2017) 97500 58500 62600 85400 139000 162000
2020-07-23 15:00 13.32 81900 177000 (2019) 55700 (2017) 97500 58500 62600 85400 139000 162000
2020-07-23 14:00 13.40 82500 177000 (2019) 55700 (2017) 97500 58500 62600 85400 139000 162000
2020-07-23 13:00 13.46 83000 177000 (2019) 55700 (2017) 97500 58500 62600 85400 139000 162000
2020-07-23 12:00 13.53 83600 177000 (2019) 55700 (2017) 97500 58500 62600 85400 139000 162000
2020-07-23 11:00 13.60 84100 177000 (2019) 55700 (2017) 97500 58500 62600 85400 139000 162000
2020-07-23 10:00 13.67 84700 177000 (2019) 55700 (2017) 97500 58500 62600 85400 139000 162000
2020-07-23 09:00 13.74 85300 177000 (2019) 55700 (2017) 97500 58500 62600 85400 139000 162000
2020-07-23 08:00 13.81 85900 177000 (2019) 55700 (2017) 97500 58500 62600 85400 139000 162000
2020-07-23 07:00 13.88 86500 177000 (2019) 55700 (2017) 97500 58500 62600 85400 139000 162000
2020-07-23 06:00 13.96 87100 177000 (2019) 55700 (2017) 97500 58500 62600 85400 139000 162000
2020-07-23 05:00 14.02 87600 177000 (2019) 55700 (2017) 97500 58500 62600 85400 139000 162000
2020-07-23 04:00 14.09 88200 177000 (2019) 55700 (2017) 97500 58500 62600 85400 139000 162000
2020-07-23 03:00 14.17 88900 177000 (2019) 55700 (2017) 97500 58500 62600 85400 139000 162000
2020-07-23 02:00 14.24 89500 177000 (2019) 55700 (2017) 97500 58500 62600 85400 139000 162000
2020-07-23 01:00 14.29 89900 177000 (2019) 55700 (2017) 97500 58500 62600 85400 139000 162000
2020-07-23 00:00 14.35 90400 177000 (2019) 55700 (2017) 97500 58500 62600 85400 139000 162000
2020-07-22 23:00 14.42 91000 180000 (2019) 53400 (2017) 102000 58200 65500 97500 141000 164000
2020-07-22 22:00 14.48 91600 180000 (2019) 53400 (2017) 102000 58200 65500 97500 141000 164000
2020-07-22 21:00 14.55 92200 180000 (2019) 53400 (2017) 102000 58200 65500 97500 141000 164000
2020-07-22 20:00 14.62 92800 180000 (2019) 53400 (2017) 102000 58200 65500 97500 141000 164000
2020-07-22 19:00 14.71 93600 180000 (2019) 53400 (2017) 102000 58200 65500 97500 141000 164000
2020-07-22 18:00 14.81 94400 180000 (2019) 53400 (2017) 102000 58200 65500 97500 141000 164000
2020-07-22 17:00 14.89 95100 180000 (2019) 53400 (2017) 102000 58200 65500 97500 141000 164000
2020-07-22 16:00 15.00 96100 180000 (2019) 53400 (2017) 102000 58200 65500 97500 141000 164000
2020-07-22 15:00 15.69 105000 180000 (2019) 53400 (2017) 102000 58200 65500 97500 141000 164000
2020-07-22 14:00 15.19 100000 180000 (2019) 53400 (2017) 102000 58200 65500 97500 141000 164000
2020-07-22 13:00 15.30 101000 180000 (2019) 53400 (2017) 102000 58200 65500 97500 141000 164000
2020-07-22 12:00 15.40 102000 180000 (2019) 53400 (2017) 102000 58200 65500 97500 141000 164000
2020-07-22 11:00 15.48 103000 180000 (2019) 53400 (2017) 102000 58200 65500 97500 141000 164000
2020-07-22 10:00 15.60 104000 180000 (2019) 53400 (2017) 102000 58200 65500 97500 141000 164000
2020-07-22 09:00 15.69 105000 180000 (2019) 53400 (2017) 102000 58200 65500 97500 141000 164000
2020-07-22 08:00 15.83 106000 180000 (2019) 53400 (2017) 102000 58200 65500 97500 141000 164000
2020-07-22 07:00 15.88 107000 180000 (2019) 53400 (2017) 102000 58200 65500 97500 141000 164000
2020-07-22 06:00 15.94 107000 180000 (2019) 53400 (2017) 102000 58200 65500 97500 141000 164000
2020-07-22 05:00 16.04 108000 180000 (2019) 53400 (2017) 102000 58200 65500 97500 141000 164000
2020-07-22 04:00 16.10 109000 180000 (2019) 53400 (2017) 102000 58200 65500 97500 141000 164000
2020-07-22 03:00 16.12 109000 180000 (2019) 53400 (2017) 102000 58200 65500 97500 141000 164000
2020-07-22 02:00 16.18 110000 180000 (2019) 53400 (2017) 102000 58200 65500 97500 141000 164000
2020-07-22 01:00 16.18 110000 180000 (2019) 53400 (2017) 102000 58200 65500 97500 141000 164000
2020-07-22 00:00 16.17 109000 180000 (2019) 53400 (2017) 102000 58200 65500 97500 141000 164000
2020-07-21 23:00 16.13 109000 177000 (2019) 52700 (2017) 108000 60500 72200 101000 147000 165000
2020-07-21 22:00 16.08 109000 177000 (2019) 52700 (2017) 108000 60500 72200 101000 147000 165000
2020-07-21 21:00 16.05 108000 177000 (2019) 52700 (2017) 108000 60500 72200 101000 147000 165000
2020-07-21 20:00 16.01 108000 177000 (2019) 52700 (2017) 108000 60500 72200 101000 147000 165000
2020-07-21 19:00 15.96 107000 177000 (2019) 52700 (2017) 108000 60500 72200 101000 147000 165000
2020-07-21 18:00 15.90 107000 177000 (2019) 52700 (2017) 108000 60500 72200 101000 147000 165000
2020-07-21 17:00 15.83 106000 177000 (2019) 52700 (2017) 108000 60500 72200 101000 147000 165000
2020-07-21 16:00 15.79 106000 177000 (2019) 52700 (2017) 108000 60500 72200 101000 147000 165000
2020-07-21 15:00 15.73 105000 177000 (2019) 52700 (2017) 108000 60500 72200 101000 147000 165000
2020-07-21 14:00 15.65 104000 177000 (2019) 52700 (2017) 108000 60500 72200 101000 147000 165000
2020-07-21 13:00 15.54 103000 177000 (2019) 52700 (2017) 108000 60500 72200 101000 147000 165000
2020-07-21 12:00 15.45 103000 177000 (2019) 52700 (2017) 108000 60500 72200 101000 147000 165000
2020-07-21 11:00 15.33 101000 177000 (2019) 52700 (2017) 108000 60500 72200 101000 147000 165000
2020-07-21 10:00 15.18 100000 177000 (2019) 52700 (2017) 108000 60500 72200 101000 147000 165000
2020-07-21 09:00 15.03 98700 177000 (2019) 52700 (2017) 108000 60500 72200 101000 147000 165000
2020-07-21 08:00 14.84 96900 177000 (2019) 52700 (2017) 108000 60500 72200 101000 147000 165000
2020-07-21 07:00 14.62 95000 177000 (2019) 52700 (2017) 108000 60500 72200 101000 147000 165000
2020-07-21 06:00 14.35 92600 177000 (2019) 52700 (2017) 108000 60500 72200 101000 147000 165000
2020-07-21 05:00 14.07 90200 177000 (2019) 52700 (2017) 108000 60500 72200 101000 147000 165000
2020-07-21 04:00 13.77 87600 177000 (2019) 52700 (2017) 108000 60500 72200 101000 147000 165000
2020-07-21 03:00 13.47 85100 177000 (2019) 52700 (2017) 108000 60500 72200 101000 147000 165000
2020-07-21 02:00 13.19 82800 177000 (2019) 52700 (2017) 108000 60500 72200 101000 147000 165000
2020-07-21 01:00 12.91 80600 177000 (2019) 52700 (2017) 108000 60500 72200 101000 147000 165000
2020-07-21 00:00 12.66 78600 177000 (2019) 52700 (2017) 108000 60500 72200 101000 147000 165000
2020-07-20 23:00 12.45 77000 167000 (2019) 52300 (2017) 103000 60600 73000 101000 135000 154000
2020-07-20 22:00 12.24 75400 167000 (2019) 52300 (2017) 103000 60600 73000 101000 135000 154000
2020-07-20 21:00 12.07 74100 167000 (2019) 52300 (2017) 103000 60600 73000 101000 135000 154000
2020-07-20 20:00 11.93 73100 167000 (2019) 52300 (2017) 103000 60600 73000 101000 135000 154000
2020-07-20 19:00 11.80 72100 167000 (2019) 52300 (2017) 103000 60600 73000 101000 135000 154000
2020-07-20 18:00 11.69 71300 167000 (2019) 52300 (2017) 103000 60600 73000 101000 135000 154000
2020-07-20 17:00 11.58 70500 167000 (2019) 52300 (2017) 103000 60600 73000 101000 135000 154000
2020-07-20 16:00 11.49 69900 167000 (2019) 52300 (2017) 103000 60600 73000 101000 135000 154000
2020-07-20 15:00 11.42 69400 167000 (2019) 52300 (2017) 103000 60600 73000 101000 135000 154000
2020-07-20 14:00 11.36 68900 167000 (2019) 52300 (2017) 103000 60600 73000 101000 135000 154000
2020-07-20 13:00 11.33 68700 167000 (2019) 52300 (2017) 103000 60600 73000 101000 135000 154000
2020-07-20 12:00 11.31 68600 167000 (2019) 52300 (2017) 103000 60600 73000 101000 135000 154000
2020-07-20 11:00 11.33 68700 167000 (2019) 52300 (2017) 103000 60600 73000 101000 135000 154000
2020-07-20 10:00 11.33 68700 167000 (2019) 52300 (2017) 103000 60600 73000 101000 135000 154000
2020-07-20 09:00 11.29 68400 167000 (2019) 52300 (2017) 103000 60600 73000 101000 135000 154000
2020-07-20 08:00 11.29 68400 167000 (2019) 52300 (2017) 103000 60600 73000 101000 135000 154000
2020-07-20 07:00 11.31 68600 167000 (2019) 52300 (2017) 103000 60600 73000 101000 135000 154000
2020-07-20 06:00 11.19 67700 167000 (2019) 52300 (2017) 103000 60600 73000 101000 135000 154000
2020-07-20 05:00 11.12 67300 167000 (2019) 52300 (2017) 103000 60600 73000 101000 135000 154000
2020-07-20 04:00 11.10 67100 167000 (2019) 52300 (2017) 103000 60600 73000 101000 135000 154000
2020-07-20 03:00 11.12 67300 167000 (2019) 52300 (2017) 103000 60600 73000 101000 135000 154000
2020-07-20 02:00 11.15 67500 167000 (2019) 52300 (2017) 103000 60600 73000 101000 135000 154000
2020-07-20 01:00 11.16 67500 167000 (2019) 52300 (2017) 103000 60600 73000 101000 135000 154000
2020-07-20 00:00 11.18 67700 167000 (2019) 52300 (2017) 103000 60600 73000 101000 135000 154000
2020-07-19 23:00 11.17 67600 167000 (2019) 53000 (2017) 96500 55100 58300 96700 135000 154000
2020-07-19 22:00 11.17 67600 167000 (2019) 53000 (2017) 96500 55100 58300 96700 135000 154000
2020-07-19 21:00 11.18 67700 167000 (2019) 53000 (2017) 96500 55100 58300 96700 135000 154000
2020-07-19 20:00 11.18 67700 167000 (2019) 53000 (2017) 96500 55100 58300 96700 135000 154000
2020-07-19 19:00 11.22 68000 167000 (2019) 53000 (2017) 96500 55100 58300 96700 135000 154000
2020-07-19 18:00 11.23 68000 167000 (2019) 53000 (2017) 96500 55100 58300 96700 135000 154000
2020-07-19 17:00 11.25 68200 167000 (2019) 53000 (2017) 96500 55100 58300 96700 135000 154000
2020-07-19 16:00 11.26 68200 167000 (2019) 53000 (2017) 96500 55100 58300 96700 135000 154000
2020-07-19 15:00 11.26 68200 167000 (2019) 53000 (2017) 96500 55100 58300 96700 135000 154000
2020-07-19 14:00 11.27 68300 167000 (2019) 53000 (2017) 96500 55100 58300 96700 135000 154000
2020-07-19 13:00 11.30 68500 167000 (2019) 53000 (2017) 96500 55100 58300 96700 135000 154000
2020-07-19 12:00 11.30 68500 167000 (2019) 53000 (2017) 96500 55100 58300 96700 135000 154000
2020-07-19 11:00 11.31 68600 167000 (2019) 53000 (2017) 96500 55100 58300 96700 135000 154000
2020-07-19 10:00 11.31 68600 167000 (2019) 53000 (2017) 96500 55100 58300 96700 135000 154000
2020-07-19 09:00 11.36 68900 167000 (2019) 53000 (2017) 96500 55100 58300 96700 135000 154000
2020-07-19 08:00 11.35 68900 167000 (2019) 53000 (2017) 96500 55100 58300 96700 135000 154000
2020-07-19 07:00 11.36 68900 167000 (2019) 53000 (2017) 96500 55100 58300 96700 135000 154000
2020-07-19 06:00 11.38 69100 167000 (2019) 53000 (2017) 96500 55100 58300 96700 135000 154000
2020-07-19 05:00 11.40 69200 167000 (2019) 53000 (2017) 96500 55100 58300 96700 135000 154000
2020-07-19 04:00 11.41 69300 167000 (2019) 53000 (2017) 96500 55100 58300 96700 135000 154000
2020-07-19 03:00 11.45 69600 167000 (2019) 53000 (2017) 96500 55100 58300 96700 135000 154000
2020-07-19 02:00 11.50 69900 167000 (2019) 53000 (2017) 96500 55100 58300 96700 135000 154000
2020-07-19 01:00 11.51 70000 167000 (2019) 53000 (2017) 96500 55100 58300 96700 135000 154000
2020-07-19 00:00 11.53 70200 167000 (2019) 53000 (2017) 96500 55100 58300 96700 135000 154000
2020-07-18 23:00 11.57 70500 167000 (2019) 54400 (2017) 100000 56200 58800 102000 141000 157000
2020-07-18 22:00 11.62 70800 167000 (2019) 54400 (2017) 100000 56200 58800 102000 141000 157000
2020-07-18 21:00 11.67 71200 167000 (2019) 54400 (2017) 100000 56200 58800 102000 141000 157000
2020-07-18 20:00 11.70 71400 167000 (2019) 54400 (2017) 100000 56200 58800 102000 141000 157000
2020-07-18 19:00 11.76 71800 167000 (2019) 54400 (2017) 100000 56200 58800 102000 141000 157000
2020-07-18 18:00 11.81 72200 167000 (2019) 54400 (2017) 100000 56200 58800 102000 141000 157000
2020-07-18 17:00 11.84 72400 167000 (2019) 54400 (2017) 100000 56200 58800 102000 141000 157000
2020-07-18 16:00 11.92 73000 167000 (2019) 54400 (2017) 100000 56200 58800 102000 141000 157000
2020-07-18 15:00 11.99 73500 167000 (2019) 54400 (2017) 100000 56200 58800 102000 141000 157000
2020-07-18 14:00 12.06 74100 167000 (2019) 54400 (2017) 100000 56200 58800 102000 141000 157000
2020-07-18 13:00 12.14 74700 167000 (2019) 54400 (2017) 100000 56200 58800 102000 141000 157000
2020-07-18 12:00 12.22 75300 167000 (2019) 54400 (2017) 100000 56200 58800 102000 141000 157000
2020-07-18 11:00 12.27 75600 167000 (2019) 54400 (2017) 100000 56200 58800 102000 141000 157000
2020-07-18 10:00 12.35 76200 167000 (2019) 54400 (2017) 100000 56200 58800 102000 141000 157000
2020-07-18 09:00 12.45 77000 167000 (2019) 54400 (2017) 100000 56200 58800 102000 141000 157000
2020-07-18 08:00 12.54 77700 167000 (2019) 54400 (2017) 100000 56200 58800 102000 141000 157000
2020-07-18 07:00 12.63 78400 167000 (2019) 54400 (2017) 100000 56200 58800 102000 141000 157000
2020-07-18 06:00 12.74 79300 167000 (2019) 54400 (2017) 100000 56200 58800 102000 141000 157000
2020-07-18 05:00 12.81 79800 167000 (2019) 54400 (2017) 100000 56200 58800 102000 141000 157000
2020-07-18 04:00 12.91 80600 167000 (2019) 54400 (2017) 100000 56200 58800 102000 141000 157000
2020-07-18 03:00 13.02 81500 167000 (2019) 54400 (2017) 100000 56200 58800 102000 141000 157000
2020-07-18 02:00 13.13 82400 167000 (2019) 54400 (2017) 100000 56200 58800 102000 141000 157000
2020-07-18 01:00 13.23 83200 167000 (2019) 54400 (2017) 100000 56200 58800 102000 141000 157000
2020-07-18 00:00 13.33 84000 167000 (2019) 54400 (2017) 100000 56200 58800 102000 141000 157000
2020-07-17 23:00 13.45 85000 166000 (2019) 58400 (2017) 94700 59600 61300 88200 131000 152000
2020-07-17 22:00 13.56 85900 166000 (2019) 58400 (2017) 94700 59600 61300 88200 131000 152000
2020-07-17 21:00 13.68 86900 166000 (2019) 58400 (2017) 94700 59600 61300 88200 131000 152000
2020-07-17 20:00 13.76 87500 166000 (2019) 58400 (2017) 94700 59600 61300 88200 131000 152000
2020-07-17 19:00 13.87 88500 166000 (2019) 58400 (2017) 94700 59600 61300 88200 131000 152000
2020-07-17 18:00 13.96 89200 166000 (2019) 58400 (2017) 94700 59600 61300 88200 131000 152000
2020-07-17 17:00 14.06 90100 166000 (2019) 58400 (2017) 94700 59600 61300 88200 131000 152000
2020-07-17 16:00 14.12 90600 166000 (2019) 58400 (2017) 94700 59600 61300 88200 131000 152000
2020-07-17 15:00 14.20 91300 166000 (2019) 58400 (2017) 94700 59600 61300 88200 131000 152000
2020-07-17 14:00 14.30 92200 166000 (2019) 58400 (2017) 94700 59600 61300 88200 131000 152000
2020-07-17 13:00 14.38 92900 166000 (2019) 58400 (2017) 94700 59600 61300 88200 131000 152000
2020-07-17 12:00 14.44 93400 166000 (2019) 58400 (2017) 94700 59600 61300 88200 131000 152000
2020-07-17 11:00 14.50 93900 166000 (2019) 58400 (2017) 94700 59600 61300 88200 131000 152000
2020-07-17 10:00 14.54 94300 166000 (2019) 58400 (2017) 94700 59600 61300 88200 131000 152000
2020-07-17 09:00 14.58 94600 166000 (2019) 58400 (2017) 94700 59600 61300 88200 131000 152000
2020-07-17 08:00 14.63 95100 166000 (2019) 58400 (2017) 94700 59600 61300 88200 131000 152000
2020-07-17 07:00 14.67 95400 166000 (2019) 58400 (2017) 94700 59600 61300 88200 131000 152000
2020-07-17 06:00 14.70 95700 166000 (2019) 58400 (2017) 94700 59600 61300 88200 131000 152000
2020-07-17 05:00 14.72 95900 166000 (2019) 58400 (2017) 94700 59600 61300 88200 131000 152000
2020-07-17 04:00 14.74 96000 166000 (2019) 58400 (2017) 94700 59600 61300 88200 131000 152000
2020-07-17 03:00 14.75 96100 166000 (2019) 58400 (2017) 94700 59600 61300 88200 131000 152000
2020-07-17 02:00 14.78 96400 166000 (2019) 58400 (2017) 94700 59600 61300 88200 131000 152000
2020-07-17 01:00 14.76 96200 166000 (2019) 58400 (2017) 94700 59600 61300 88200 131000 152000
2020-07-17 00:00 14.76 96200 166000 (2019) 58400 (2017) 94700 59600 61300 88200 131000 152000
2020-07-16 23:00 14.76 96200 162000 (2019) 63300 (2017) 93900 64400 65900 78300 130000 149000
2020-07-16 22:00 14.74 96000 162000 (2019) 63300 (2017) 93900 64400 65900 78300 130000 149000
2020-07-16 21:00 14.71 95800 162000 (2019) 63300 (2017) 93900 64400 65900 78300 130000 149000
2020-07-16 20:00 14.69 95600 162000 (2019) 63300 (2017) 93900 64400 65900 78300 130000 149000
2020-07-16 19:00 14.65 95200 162000 (2019) 63300 (2017) 93900 64400 65900 78300 130000 149000
2020-07-16 18:00 14.64 95100 162000 (2019) 63300 (2017) 93900 64400 65900 78300 130000 149000
2020-07-16 17:00 14.61 94900 162000 (2019) 63300 (2017) 93900 64400 65900 78300 130000 149000
2020-07-16 16:00 14.56 94400 162000 (2019) 63300 (2017) 93900 64400 65900 78300 130000 149000
2020-07-16 15:00 14.53 94200 162000 (2019) 63300 (2017) 93900 64400 65900 78300 130000 149000
2020-07-16 14:00 14.49 93800 162000 (2019) 63300 (2017) 93900 64400 65900 78300 130000 149000
2020-07-16 13:00 14.45 93500 162000 (2019) 63300 (2017) 93900 64400 65900 78300 130000 149000
2020-07-16 12:00 14.42 93200 162000 (2019) 63300 (2017) 93900 64400 65900 78300 130000 149000
2020-07-16 11:00 14.39 92900 162000 (2019) 63300 (2017) 93900 64400 65900 78300 130000 149000
2020-07-16 10:00 14.36 92700 162000 (2019) 63300 (2017) 93900 64400 65900 78300 130000 149000
2020-07-16 09:00 14.36 92700 162000 (2019) 63300 (2017) 93900 64400 65900 78300 130000 149000
2020-07-16 08:00 14.33 92400 162000 (2019) 63300 (2017) 93900 64400 65900 78300 130000 149000
2020-07-16 07:00 14.31 92200 162000 (2019) 63300 (2017) 93900 64400 65900 78300 130000 149000
2020-07-16 06:00 14.32 92300 162000 (2019) 63300 (2017) 93900 64400 65900 78300 130000 149000
2020-07-16 05:00 14.31 92200 162000 (2019) 63300 (2017) 93900 64400 65900 78300 130000 149000
2020-07-16 04:00 14.26 91800 162000 (2019) 63300 (2017) 93900 64400 65900 78300 130000 149000
2020-07-16 03:00 14.23 91600 162000 (2019) 63300 (2017) 93900 64400 65900 78300 130000 149000
2020-07-16 02:00 14.20 91300 162000 (2019) 63300 (2017) 93900 64400 65900 78300 130000 149000
2020-07-16 01:00 14.16 90900 162000 (2019) 63300 (2017) 93900 64400 65900 78300 130000 149000
2020-07-16 00:00 14.10 90400 162000 (2019) 63300 (2017) 93900 64400 65900 78300 130000 149000
2020-07-15 23:00 14.04 89900 162000 (2019) 63500 (2017) 96600 65900 69600 81600 131000 150000
2020-07-15 22:00 13.97 89300 162000 (2019) 63500 (2017) 96600 65900 69600 81600 131000 150000
2020-07-15 21:00 13.88 88600 162000 (2019) 63500 (2017) 96600 65900 69600 81600 131000 150000
2020-07-15 20:00 13.77 87600 162000 (2019) 63500 (2017) 96600 65900 69600 81600 131000 150000
2020-07-15 19:00 13.64 86500 162000 (2019) 63500 (2017) 96600 65900 69600 81600 131000 150000
2020-07-15 18:00 13.49 85300 162000 (2019) 63500 (2017) 96600 65900 69600 81600 131000 150000
2020-07-15 17:00 13.33 84000 162000 (2019) 63500 (2017) 96600 65900 69600 81600 131000 150000
2020-07-15 16:00 13.15 82500 162000 (2019) 63500 (2017) 96600 65900 69600 81600 131000 150000
2020-07-15 15:00 12.95 80900 162000 (2019) 63500 (2017) 96600 65900 69600 81600 131000 150000
2020-07-15 14:00 12.75 79300 162000 (2019) 63500 (2017) 96600 65900 69600 81600 131000 150000
2020-07-15 13:00 12.55 77800 162000 (2019) 63500 (2017) 96600 65900 69600 81600 131000 150000
2020-07-15 12:00 12.38 76500 162000 (2019) 63500 (2017) 96600 65900 69600 81600 131000 150000
2020-07-15 11:00 12.24 75400 162000 (2019) 63500 (2017) 96600 65900 69600 81600 131000 150000
2020-07-15 10:00 12.08 74200 162000 (2019) 63500 (2017) 96600 65900 69600 81600 131000 150000
2020-07-15 09:00 11.96 73300 162000 (2019) 63500 (2017) 96600 65900 69600 81600 131000 150000
2020-07-15 08:00 11.92 73000 162000 (2019) 63500 (2017) 96600 65900 69600 81600 131000 150000
2020-07-15 07:00 11.86 72600 162000 (2019) 63500 (2017) 96600 65900 69600 81600 131000 150000
2020-07-15 06:00 11.73 71600 162000 (2019) 63500 (2017) 96600 65900 69600 81600 131000 150000
2020-07-15 05:00 11.65 71000 162000 (2019) 63500 (2017) 96600 65900 69600 81600 131000 150000
2020-07-15 04:00 11.61 70700 162000 (2019) 63500 (2017) 96600 65900 69600 81600 131000 150000
2020-07-15 03:00 11.62 70800 162000 (2019) 63500 (2017) 96600 65900 69600 81600 131000 150000
2020-07-15 02:00 11.64 71000 162000 (2019) 63500 (2017) 96600 65900 69600 81600 131000 150000
2020-07-15 01:00 11.62 70800 162000 (2019) 63500 (2017) 96600 65900 69600 81600 131000 150000
2020-07-15 00:00 11.66 71100 162000 (2019) 63500 (2017) 96600 65900 69600 81600 131000 150000
2020-07-14 23:00 11.66 71100 163000 (2019) 61200 (2017) 98000 65400 71600 82800 132000 151000
2020-07-14 22:00 11.66 71100 163000 (2019) 61200 (2017) 98000 65400 71600 82800 132000 151000
2020-07-14 21:00 11.67 71200 163000 (2019) 61200 (2017) 98000 65400 71600 82800 132000 151000
2020-07-14 20:00 11.66 71100 163000 (2019) 61200 (2017) 98000 65400 71600 82800 132000 151000
2020-07-14 19:00 11.67 71200 163000 (2019) 61200 (2017) 98000 65400 71600 82800 132000 151000
2020-07-14 18:00 11.67 71200 163000 (2019) 61200 (2017) 98000 65400 71600 82800 132000 151000
2020-07-14 17:00 11.67 71200 163000 (2019) 61200 (2017) 98000 65400 71600 82800 132000 151000
2020-07-14 16:00 11.69 71300 163000 (2019) 61200 (2017) 98000 65400 71600 82800 132000 151000
2020-07-14 15:00 11.69 71300 163000 (2019) 61200 (2017) 98000 65400 71600 82800 132000 151000
2020-07-14 14:00 11.69 71300 163000 (2019) 61200 (2017) 98000 65400 71600 82800 132000 151000
2020-07-14 13:00 11.70 71400 163000 (2019) 61200 (2017) 98000 65400 71600 82800 132000 151000
2020-07-14 12:00 11.69 71300 163000 (2019) 61200 (2017) 98000 65400 71600 82800 132000 151000
2020-07-14 11:00 11.70 71400 163000 (2019) 61200 (2017) 98000 65400 71600 82800 132000 151000
2020-07-14 10:00 11.72 71500 163000 (2019) 61200 (2017) 98000 65400 71600 82800 132000 151000
2020-07-14 09:00 11.73 71600 163000 (2019) 61200 (2017) 98000 65400 71600 82800 132000 151000
2020-07-14 08:00 11.74 71700 163000 (2019) 61200 (2017) 98000 65400 71600 82800 132000 151000
2020-07-14 07:00 11.73 71600 163000 (2019) 61200 (2017) 98000 65400 71600 82800 132000 151000
2020-07-14 06:00 11.75 71800 163000 (2019) 61200 (2017) 98000 65400 71600 82800 132000 151000
2020-07-14 05:00 11.74 71700 163000 (2019) 61200 (2017) 98000 65400 71600 82800 132000 151000
2020-07-14 04:00 11.76 71800 163000 (2019) 61200 (2017) 98000 65400 71600 82800 132000 151000
2020-07-14 03:00 11.76 71800 163000 (2019) 61200 (2017) 98000 65400 71600 82800 132000 151000
2020-07-14 02:00 11.79 72100 163000 (2019) 61200 (2017) 98000 65400 71600 82800 132000 151000
2020-07-14 01:00 11.77 71900 163000 (2019) 61200 (2017) 98000 65400 71600 82800 132000 151000
2020-07-14 00:00 11.77 71900 163000 (2019) 61200 (2017) 98000 65400 71600 82800 132000 151000
2020-07-13 23:00 11.76 71800 164000 (2019) 57600 (2017) 97500 62300 69300 81900 134000 152000
2020-07-13 22:00 11.75 71800 164000 (2019) 57600 (2017) 97500 62300 69300 81900 134000 152000
2020-07-13 21:00 11.75 71800 164000 (2019) 57600 (2017) 97500 62300 69300 81900 134000 152000
2020-07-13 20:00 11.75 71800 164000 (2019) 57600 (2017) 97500 62300 69300 81900 134000 152000
2020-07-13 19:00 11.75 71800 164000 (2019) 57600 (2017) 97500 62300 69300 81900 134000 152000
2020-07-13 18:00 11.77 71900 164000 (2019) 57600 (2017) 97500 62300 69300 81900 134000 152000
2020-07-13 17:00 11.72 71500 164000 (2019) 57600 (2017) 97500 62300 69300 81900 134000 152000
2020-07-13 16:00 11.74 71700 164000 (2019) 57600 (2017) 97500 62300 69300 81900 134000 152000
2020-07-13 15:00 11.73 71600 164000 (2019) 57600 (2017) 97500 62300 69300 81900 134000 152000
2020-07-13 14:00 11.73 71600 164000 (2019) 57600 (2017) 97500 62300 69300 81900 134000 152000
2020-07-13 13:00 11.74 71700 164000 (2019) 57600 (2017) 97500 62300 69300 81900 134000 152000
2020-07-13 12:00 11.72 71500 164000 (2019) 57600 (2017) 97500 62300 69300 81900 134000 152000
2020-07-13 11:00 11.71 71500 164000 (2019) 57600 (2017) 97500 62300 69300 81900 134000 152000
2020-07-13 10:00 11.71 71500 164000 (2019) 57600 (2017) 97500 62300 69300 81900 134000 152000
2020-07-13 09:00 11.71 71500 164000 (2019) 57600 (2017) 97500 62300 69300 81900 134000 152000
2020-07-13 08:00 11.70 71400 164000 (2019) 57600 (2017) 97500 62300 69300 81900 134000 152000
2020-07-13 07:00 11.68 71300 164000 (2019) 57600 (2017) 97500 62300 69300 81900 134000 152000
2020-07-13 06:00 11.66 71100 164000 (2019) 57600 (2017) 97500 62300 69300 81900 134000 152000
2020-07-13 05:00 11.63 70900 164000 (2019) 57600 (2017) 97500 62300 69300 81900 134000 152000
2020-07-13 04:00 11.60 70700 164000 (2019) 57600 (2017) 97500 62300 69300 81900 134000 152000
2020-07-13 03:00 11.58 70500 164000 (2019) 57600 (2017) 97500 62300 69300 81900 134000 152000
2020-07-13 02:00 11.57 70500 164000 (2019) 57600 (2017) 97500 62300 69300 81900 134000 152000
2020-07-13 01:00 11.56 70400 164000 (2019) 57600 (2017) 97500 62300 69300 81900 134000 152000
2020-07-13 00:00 11.54 70200 164000 (2019) 57600 (2017) 97500 62300 69300 81900 134000 152000
2020-07-12 23:00 11.52 70100 166000 (2019) 59400 (2017) 97300 62200 66300 83800 135000 154000
2020-07-12 22:00 11.52 70100 166000 (2019) 59400 (2017) 97300 62200 66300 83800 135000 154000
2020-07-12 21:00 11.52 70100 166000 (2019) 59400 (2017) 97300 62200 66300 83800 135000 154000
2020-07-12 20:00 11.52 70100 166000 (2019) 59400 (2017) 97300 62200 66300 83800 135000 154000
2020-07-12 19:00 11.50 69900 166000 (2019) 59400 (2017) 97300 62200 66300 83800 135000 154000
2020-07-12 18:00 11.51 70000 166000 (2019) 59400 (2017) 97300 62200 66300 83800 135000 154000
2020-07-12 17:00 11.51 70000 166000 (2019) 59400 (2017) 97300 62200 66300 83800 135000 154000
2020-07-12 16:00 11.51 70000 166000 (2019) 59400 (2017) 97300 62200 66300 83800 135000 154000
2020-07-12 15:00 11.51 70000 166000 (2019) 59400 (2017) 97300 62200 66300 83800 135000 154000
2020-07-12 14:00 11.54 70200 166000 (2019) 59400 (2017) 97300 62200 66300 83800 135000 154000
2020-07-12 13:00 11.54 70200 166000 (2019) 59400 (2017) 97300 62200 66300 83800 135000 154000
2020-07-12 12:00 11.55 70300 166000 (2019) 59400 (2017) 97300 62200 66300 83800 135000 154000
2020-07-12 11:00 11.55 70300 166000 (2019) 59400 (2017) 97300 62200 66300 83800 135000 154000
2020-07-12 10:00 11.59 70600 166000 (2019) 59400 (2017) 97300 62200 66300 83800 135000 154000
2020-07-12 09:00 11.60 70700 166000 (2019) 59400 (2017) 97300 62200 66300 83800 135000 154000
2020-07-12 08:00 11.63 70900 166000 (2019) 59400 (2017) 97300 62200 66300 83800 135000 154000
2020-07-12 07:00 11.64 71000 166000 (2019) 59400 (2017) 97300 62200 66300 83800 135000 154000
2020-07-12 06:00 11.66 71100 166000 (2019) 59400 (2017) 97300 62200 66300 83800 135000 154000
2020-07-12 05:00 11.67 71200 166000 (2019) 59400 (2017) 97300 62200 66300 83800 135000 154000
2020-07-12 04:00 11.71 71500 166000 (2019) 59400 (2017) 97300 62200 66300 83800 135000 154000
2020-07-12 03:00 11.71 71500 166000 (2019) 59400 (2017) 97300 62200 66300 83800 135000 154000
2020-07-12 02:00 11.73 71600 166000 (2019) 59400 (2017) 97300 62200 66300 83800 135000 154000
2020-07-12 01:00 11.75 71800 166000 (2019) 59400 (2017) 97300 62200 66300 83800 135000 154000
2020-07-12 00:00 11.77 71900 166000 (2019) 59400 (2017) 97300 62200 66300 83800 135000 154000
2020-07-11 23:00 11.80 72100 168000 (2019) 62400 (2017) 100000 64000 66400 93800 137000 156000
2020-07-11 22:00 11.85 72500 168000 (2019) 62400 (2017) 100000 64000 66400 93800 137000 156000
2020-07-11 21:00 11.87 72600 168000 (2019) 62400 (2017) 100000 64000 66400 93800 137000 156000
2020-07-11 20:00 11.90 72900 168000 (2019) 62400 (2017) 100000 64000 66400 93800 137000 156000
2020-07-11 19:00 11.90 72900 168000 (2019) 62400 (2017) 100000 64000 66400 93800 137000 156000
2020-07-11 18:00 11.93 73100 168000 (2019) 62400 (2017) 100000 64000 66400 93800 137000 156000
2020-07-11 17:00 11.96 73300 168000 (2019) 62400 (2017) 100000 64000 66400 93800 137000 156000
2020-07-11 16:00 11.97 73400 168000 (2019) 62400 (2017) 100000 64000 66400 93800 137000 156000
2020-07-11 15:00 11.99 73500 168000 (2019) 62400 (2017) 100000 64000 66400 93800 137000 156000
2020-07-11 14:00 12.00 73600 168000 (2019) 62400 (2017) 100000 64000 66400 93800 137000 156000
2020-07-11 13:00 12.02 73800 168000 (2019) 62400 (2017) 100000 64000 66400 93800 137000 156000
2020-07-11 12:00 12.03 73800 168000 (2019) 62400 (2017) 100000 64000 66400 93800 137000 156000
2020-07-11 11:00 12.03 73800 168000 (2019) 62400 (2017) 100000 64000 66400 93800 137000 156000
2020-07-11 10:00 12.04 73900 168000 (2019) 62400 (2017) 100000 64000 66400 93800 137000 156000
2020-07-11 09:00 12.06 74100 168000 (2019) 62400 (2017) 100000 64000 66400 93800 137000 156000
2020-07-11 08:00 12.07 74100 168000 (2019) 62400 (2017) 100000 64000 66400 93800 137000 156000
2020-07-11 07:00 12.08 74200 168000 (2019) 62400 (2017) 100000 64000 66400 93800 137000 156000
2020-07-11 06:00 12.09 74300 168000 (2019) 62400 (2017) 100000 64000 66400 93800 137000 156000
2020-07-11 05:00 12.11 74400 168000 (2019) 62400 (2017) 100000 64000 66400 93800 137000 156000
2020-07-11 04:00 12.10 74400 168000 (2019) 62400 (2017) 100000 64000 66400 93800 137000 156000
2020-07-11 03:00 12.10 74400 168000 (2019) 62400 (2017) 100000 64000 66400 93800 137000 156000
2020-07-11 02:00 12.10 74400 168000 (2019) 62400 (2017) 100000 64000 66400 93800 137000 156000
2020-07-11 01:00 12.13 74600 168000 (2019) 62400 (2017) 100000 64000 66400 93800 137000 156000
2020-07-11 00:00 12.13 74600 168000 (2019) 62400 (2017) 100000 64000 66400 93800 137000 156000
2020-07-10 23:00 12.13 74600 176000 (2019) 64700 (2017) 106000 68000 72900 99900 142000 162000
2020-07-10 22:00 12.13 74600 176000 (2019) 64700 (2017) 106000 68000 72900 99900 142000 162000
2020-07-10 21:00 12.13 74600 176000 (2019) 64700 (2017) 106000 68000 72900 99900 142000 162000
2020-07-10 20:00 12.16 74800 176000 (2019) 64700 (2017) 106000 68000 72900 99900 142000 162000
2020-07-10 19:00 12.15 74700 176000 (2019) 64700 (2017) 106000 68000 72900 99900 142000 162000
2020-07-10 18:00 12.15 74700 176000 (2019) 64700 (2017) 106000 68000 72900 99900 142000 162000
2020-07-10 17:00 12.16 74800 176000 (2019) 64700 (2017) 106000 68000 72900 99900 142000 162000
2020-07-10 16:00 12.17 74900 176000 (2019) 64700 (2017) 106000 68000 72900 99900 142000 162000
2020-07-10 15:00 12.17 74900 176000 (2019) 64700 (2017) 106000 68000 72900 99900 142000 162000
2020-07-10 14:00 12.19 75000 176000 (2019) 64700 (2017) 106000 68000 72900 99900 142000 162000
2020-07-10 13:00 12.20 75100 176000 (2019) 64700 (2017) 106000 68000 72900 99900 142000 162000
2020-07-10 12:00 12.22 75300 176000 (2019) 64700 (2017) 106000 68000 72900 99900 142000 162000
2020-07-10 11:00 12.22 75300 176000 (2019) 64700 (2017) 106000 68000 72900 99900 142000 162000
2020-07-10 10:00 12.23 75300 176000 (2019) 64700 (2017) 106000 68000 72900 99900 142000 162000
2020-07-10 09:00 12.24 75400 176000 (2019) 64700 (2017) 106000 68000 72900 99900 142000 162000
2020-07-10 08:00 12.25 75500 176000 (2019) 64700 (2017) 106000 68000 72900 99900 142000 162000
2020-07-10 07:00 12.26 75600 176000 (2019) 64700 (2017) 106000 68000 72900 99900 142000 162000
2020-07-10 06:00 12.27 75600 176000 (2019) 64700 (2017) 106000 68000 72900 99900 142000 162000
2020-07-10 05:00 12.30 75900 176000 (2019) 64700 (2017) 106000 68000 72900 99900 142000 162000
2020-07-10 04:00 12.30 75900 176000 (2019) 64700 (2017) 106000 68000 72900 99900 142000 162000
2020-07-10 03:00 12.32 76000 176000 (2019) 64700 (2017) 106000 68000 72900 99900 142000 162000
2020-07-10 02:00 12.35 76200 176000 (2019) 64700 (2017) 106000 68000 72900 99900 142000 162000
2020-07-10 01:00 12.38 76500 176000 (2019) 64700 (2017) 106000 68000 72900 99900 142000 162000
2020-07-10 00:00 12.37 76400 176000 (2019) 64700 (2017) 106000 68000 72900 99900 142000 162000
2020-07-09 23:00 12.38 76500 178000 (2019) 66700 (2017) 110000 68900 72300 113000 147000 166000
2020-07-09 22:00 12.40 76600 178000 (2019) 66700 (2017) 110000 68900 72300 113000 147000 166000
2020-07-09 21:00 12.42 76800 178000 (2019) 66700 (2017) 110000 68900 72300 113000 147000 166000
2020-07-09 20:00 12.43 76900 178000 (2019) 66700 (2017) 110000 68900 72300 113000 147000 166000
2020-07-09 19:00 12.44 76900 178000 (2019) 66700 (2017) 110000 68900 72300 113000 147000 166000
2020-07-09 18:00 12.47 77200 178000 (2019) 66700 (2017) 110000 68900 72300 113000 147000 166000
2020-07-09 17:00 12.48 77200 178000 (2019) 66700 (2017) 110000 68900 72300 113000 147000 166000
2020-07-09 16:00 12.49 77300 178000 (2019) 66700 (2017) 110000 68900 72300 113000 147000 166000
2020-07-09 15:00 12.50 77400 178000 (2019) 66700 (2017) 110000 68900 72300 113000 147000 166000
2020-07-09 14:00 12.50 77400 178000 (2019) 66700 (2017) 110000 68900 72300 113000 147000 166000
2020-07-09 13:00 12.51 77500 178000 (2019) 66700 (2017) 110000 68900 72300 113000 147000 166000
2020-07-09 12:00 12.52 77600 178000 (2019) 66700 (2017) 110000 68900 72300 113000 147000 166000
2020-07-09 11:00 12.52 77600 178000 (2019) 66700 (2017) 110000 68900 72300 113000 147000 166000
2020-07-09 10:00 12.52 77600 178000 (2019) 66700 (2017) 110000 68900 72300 113000 147000 166000
2020-07-09 09:00 12.54 77700 178000 (2019) 66700 (2017) 110000 68900 72300 113000 147000 166000
2020-07-09 08:00 12.56 77900 178000 (2019) 66700 (2017) 110000 68900 72300 113000 147000 166000
2020-07-09 07:00 12.57 77900 178000 (2019) 66700 (2017) 110000 68900 72300 113000 147000 166000
2020-07-09 06:00 12.58 78000 178000 (2019) 66700 (2017) 110000 68900 72300 113000 147000 166000
2020-07-09 05:00 12.61 78300 178000 (2019) 66700 (2017) 110000 68900 72300 113000 147000 166000
2020-07-09 04:00 12.63 78400 178000 (2019) 66700 (2017) 110000 68900 72300 113000 147000 166000
2020-07-09 03:00 12.64 78500 178000 (2019) 66700 (2017) 110000 68900 72300 113000 147000 166000
2020-07-09 02:00 12.66 78600 178000 (2019) 66700 (2017) 110000 68900 72300 113000 147000 166000
2020-07-09 01:00 12.66 78600 178000 (2019) 66700 (2017) 110000 68900 72300 113000 147000 166000
2020-07-09 00:00 12.68 78800 178000 (2019) 66700 (2017) 110000 68900 72300 113000 147000 166000
2020-07-08 23:00 12.71 79000 180000 (2019) 68600 (2017) 116000 69000 69700 120000 160000 172000
2020-07-08 22:00 12.71 79000 180000 (2019) 68600 (2017) 116000 69000 69700 120000 160000 172000
2020-07-08 21:00 12.73 79200 180000 (2019) 68600 (2017) 116000 69000 69700 120000 160000 172000
2020-07-08 20:00 12.74 79300 180000 (2019) 68600 (2017) 116000 69000 69700 120000 160000 172000
2020-07-08 19:00 12.75 79300 180000 (2019) 68600 (2017) 116000 69000 69700 120000 160000 172000
2020-07-08 18:00 12.77 79500 180000 (2019) 68600 (2017) 116000 69000 69700 120000 160000 172000
2020-07-08 17:00 12.78 79600 180000 (2019) 68600 (2017) 116000 69000 69700 120000 160000 172000
2020-07-08 16:00 12.78 76100 180000 (2019) 68600 (2017) 116000 69000 69700 120000 160000 172000
2020-07-08 15:00 12.81 76300 180000 (2019) 68600 (2017) 116000 69000 69700 120000 160000 172000
2020-07-08 14:00 12.81 76300 180000 (2019) 68600 (2017) 116000 69000 69700 120000 160000 172000
2020-07-08 13:00 12.83 76500 180000 (2019) 68600 (2017) 116000 69000 69700 120000 160000 172000
2020-07-08 12:00 12.83 76500 180000 (2019) 68600 (2017) 116000 69000 69700 120000 160000 172000
2020-07-08 11:00 12.83 76500 180000 (2019) 68600 (2017) 116000 69000 69700 120000 160000 172000
2020-07-08 10:00 12.85 76600 180000 (2019) 68600 (2017) 116000 69000 69700 120000 160000 172000
2020-07-08 09:00 12.85 76600 180000 (2019) 68600 (2017) 116000 69000 69700 120000 160000 172000
2020-07-08 08:00 12.84 76600 180000 (2019) 68600 (2017) 116000 69000 69700 120000 160000 172000
2020-07-08 07:00 12.85 76600 180000 (2019) 68600 (2017) 116000 69000 69700 120000 160000 172000
2020-07-08 06:00 12.85 76600 180000 (2019) 68600 (2017) 116000 69000 69700 120000 160000 172000
2020-07-08 05:00 12.84 76600 180000 (2019) 68600 (2017) 116000 69000 69700 120000 160000 172000
2020-07-08 04:00 12.83 76500 180000 (2019) 68600 (2017) 116000 69000 69700 120000 160000 172000
2020-07-08 03:00 12.84 76600 180000 (2019) 68600 (2017) 116000 69000 69700 120000 160000 172000
2020-07-08 02:00 12.81 76300 180000 (2019) 68600 (2017) 116000 69000 69700 120000 160000 172000
2020-07-08 01:00 12.82 76400 180000 (2019) 68600 (2017) 116000 69000 69700 120000 160000 172000
2020-07-08 00:00 12.82 76400 180000 (2019) 68600 (2017) 116000 69000 69700 120000 160000 172000
2020-07-07 23:00 12.81 76300 177000 (2019) 70600 (2016) 117000 70800 71000 128000 157000 169000
2020-07-07 22:00 12.81 76300 177000 (2019) 70600 (2016) 117000 70800 71000 128000 157000 169000
2020-07-07 21:00 12.81 76300 177000 (2019) 70600 (2016) 117000 70800 71000 128000 157000 169000
2020-07-07 20:00 12.80 76200 177000 (2019) 70600 (2016) 117000 70800 71000 128000 157000 169000
2020-07-07 19:00 12.80 76200 177000 (2019) 70600 (2016) 117000 70800 71000 128000 157000 169000
2020-07-07 18:00 12.82 76400 177000 (2019) 70600 (2016) 117000 70800 71000 128000 157000 169000
2020-07-07 17:00 12.82 76400 177000 (2019) 70600 (2016) 117000 70800 71000 128000 157000 169000
2020-07-07 16:00 12.82 76400 177000 (2019) 70600 (2016) 117000 70800 71000 128000 157000 169000
2020-07-07 15:00 12.84 76600 177000 (2019) 70600 (2016) 117000 70800 71000 128000 157000 169000
2020-07-07 14:00 12.86 76700 177000 (2019) 70600 (2016) 117000 70800 71000 128000 157000 169000
2020-07-07 13:00 12.88 76900 177000 (2019) 70600 (2016) 117000 70800 71000 128000 157000 169000
2020-07-07 12:00 12.88 76900 177000 (2019) 70600 (2016) 117000 70800 71000 128000 157000 169000
2020-07-07 11:00 12.90 77000 177000 (2019) 70600 (2016) 117000 70800 71000 128000 157000 169000
2020-07-07 10:00 12.91 77100 177000 (2019) 70600 (2016) 117000 70800 71000 128000 157000 169000
2020-07-07 09:00 12.95 77400 177000 (2019) 70600 (2016) 117000 70800 71000 128000 157000 169000
2020-07-07 08:00 12.98 77600 177000 (2019) 70600 (2016) 117000 70800 71000 128000 157000 169000
2020-07-07 07:00 12.98 77600 177000 (2019) 70600 (2016) 117000 70800 71000 128000 157000 169000
2020-07-07 06:00 13.02 77900 177000 (2019) 70600 (2016) 117000 70800 71000 128000 157000 169000
2020-07-07 05:00 13.04 78100 177000 (2019) 70600 (2016) 117000 70800 71000 128000 157000 169000
2020-07-07 04:00 13.07 78300 177000 (2019) 70600 (2016) 117000 70800 71000 128000 157000 169000
2020-07-07 03:00 13.08 78400 177000 (2019) 70600 (2016) 117000 70800 71000 128000 157000 169000
2020-07-07 02:00 13.10 78600 177000 (2019) 70600 (2016) 117000 70800 71000 128000 157000 169000
2020-07-07 01:00 13.14 78900 177000 (2019) 70600 (2016) 117000 70800 71000 128000 157000 169000
2020-07-07 00:00 13.16 79000 177000 (2019) 70600 (2016) 117000 70800 71000 128000 157000 169000
2020-07-06 23:00 13.17 79100 183000 (2019) 72800 (2016) 112000 73000 73400 93300 159000 173000
2020-07-06 22:00 13.19 79300 183000 (2019) 72800 (2016) 112000 73000 73400 93300 159000 173000
2020-07-06 21:00 13.23 79600 183000 (2019) 72800 (2016) 112000 73000 73400 93300 159000 173000
2020-07-06 20:00 13.24 79700 183000 (2019) 72800 (2016) 112000 73000 73400 93300 159000 173000
2020-07-06 19:00 13.26 79800 183000 (2019) 72800 (2016) 112000 73000 73400 93300 159000 173000
2020-07-06 18:00 13.27 79900 183000 (2019) 72800 (2016) 112000 73000 73400 93300 159000 173000
2020-07-06 17:00 13.31 80200 183000 (2019) 72800 (2016) 112000 73000 73400 93300 159000 173000
2020-07-06 16:00 13.35 80500 183000 (2019) 72800 (2016) 112000 73000 73400 93300 159000 173000
2020-07-06 15:00 13.35 80500 183000 (2019) 72800 (2016) 112000 73000 73400 93300 159000 173000
2020-07-06 14:00 13.38 80800 183000 (2019) 72800 (2016) 112000 73000 73400 93300 159000 173000
2020-07-06 13:00 13.40 80900 183000 (2019) 72800 (2016) 112000 73000 73400 93300 159000 173000
2020-07-06 12:00 13.43 81200 183000 (2019) 72800 (2016) 112000 73000 73400 93300 159000 173000
2020-07-06 11:00 13.47 81500 183000 (2019) 72800 (2016) 112000 73000 73400 93300 159000 173000
2020-07-06 10:00 13.49 81600 183000 (2019) 72800 (2016) 112000 73000 73400 93300 159000 173000
2020-07-06 09:00 13.52 81900 183000 (2019) 72800 (2016) 112000 73000 73400 93300 159000 173000
2020-07-06 08:00 13.55 82100 183000 (2019) 72800 (2016) 112000 73000 73400 93300 159000 173000
2020-07-06 07:00 13.58 82400 183000 (2019) 72800 (2016) 112000 73000 73400 93300 159000 173000
2020-07-06 06:00 13.60 82500 183000 (2019) 72800 (2016) 112000 73000 73400 93300 159000 173000
2020-07-06 05:00 13.64 82800 183000 (2019) 72800 (2016) 112000 73000 73400 93300 159000 173000
2020-07-06 04:00 13.67 83100 183000 (2019) 72800 (2016) 112000 73000 73400 93300 159000 173000
2020-07-06 03:00 13.72 83500 183000 (2019) 72800 (2016) 112000 73000 73400 93300 159000 173000
2020-07-06 02:00 13.75 83700 183000 (2019) 72800 (2016) 112000 73000 73400 93300 159000 173000
2020-07-06 01:00 13.78 84000 183000 (2019) 72800 (2016) 112000 73000 73400 93300 159000 173000
2020-07-06 00:00 13.81 84200 183000 (2019) 72800 (2016) 112000 73000 73400 93300 159000 173000
2020-07-05 23:00 13.83 84400 181000 (2019) 76500 (2016) 114000 76700 76900 95200 160000 173000
2020-07-05 22:00 13.86 84600 181000 (2019) 76500 (2016) 114000 76700 76900 95200 160000 173000
2020-07-05 21:00 13.88 84800 181000 (2019) 76500 (2016) 114000 76700 76900 95200 160000 173000
2020-07-05 20:00 13.91 85000 181000 (2019) 76500 (2016) 114000 76700 76900 95200 160000 173000
2020-07-05 19:00 13.92 85100 181000 (2019) 76500 (2016) 114000 76700 76900 95200 160000 173000
2020-07-05 18:00 13.97 85500 181000 (2019) 76500 (2016) 114000 76700 76900 95200 160000 173000
2020-07-05 17:00 14.01 85900 181000 (2019) 76500 (2016) 114000 76700 76900 95200 160000 173000
2020-07-05 16:00 14.05 86200 181000 (2019) 76500 (2016) 114000 76700 76900 95200 160000 173000
2020-07-05 15:00 14.08 86500 181000 (2019) 76500 (2016) 114000 76700 76900 95200 160000 173000
2020-07-05 14:00 14.12 86800 181000 (2019) 76500 (2016) 114000 76700 76900 95200 160000 173000
2020-07-05 13:00 14.16 87100 181000 (2019) 76500 (2016) 114000 76700 76900 95200 160000 173000
2020-07-05 12:00 14.21 87500 181000 (2019) 76500 (2016) 114000 76700 76900 95200 160000 173000
2020-07-05 11:00 14.24 87800 181000 (2019) 76500 (2016) 114000 76700 76900 95200 160000 173000
2020-07-05 10:00 14.27 88000 181000 (2019) 76500 (2016) 114000 76700 76900 95200 160000 173000
2020-07-05 09:00 14.33 88600 181000 (2019) 76500 (2016) 114000 76700 76900 95200 160000 173000
2020-07-05 08:00 14.38 89000 181000 (2019) 76500 (2016) 114000 76700 76900 95200 160000 173000
2020-07-05 07:00 14.43 89400 181000 (2019) 76500 (2016) 114000 76700 76900 95200 160000 173000
2020-07-05 06:00 14.49 89900 181000 (2019) 76500 (2016) 114000 76700 76900 95200 160000 173000
2020-07-05 05:00 14.55 90400 181000 (2019) 76500 (2016) 114000 76700 76900 95200 160000 173000
2020-07-05 04:00 14.60 90900 181000 (2019) 76500 (2016) 114000 76700 76900 95200 160000 173000
2020-07-05 03:00 14.67 91500 181000 (2019) 76500 (2016) 114000 76700 76900 95200 160000 173000
2020-07-05 02:00 14.74 92100 181000 (2019) 76500 (2016) 114000 76700 76900 95200 160000 173000
2020-07-05 01:00 14.78 92400 181000 (2019) 76500 (2016) 114000 76700 76900 95200 160000 173000
2020-07-05 00:00 14.81 92700 181000 (2019) 76500 (2016) 114000 76700 76900 95200 160000 173000
2020-07-04 23:00 14.85 93000 177000 (2019) 80300 (2017) 116000 81000 82200 99100 158000 169000
2020-07-04 22:00 14.92 93600 177000 (2019) 80300 (2017) 116000 81000 82200 99100 158000 169000
2020-07-04 21:00 14.94 93800 177000 (2019) 80300 (2017) 116000 81000 82200 99100 158000 169000
2020-07-04 20:00 14.98 94200 177000 (2019) 80300 (2017) 116000 81000 82200 99100 158000 169000
2020-07-04 19:00 15.00 94400 177000 (2019) 80300 (2017) 116000 81000 82200 99100 158000 169000
2020-07-04 18:00 15.05 94800 177000 (2019) 80300 (2017) 116000 81000 82200 99100 158000 169000
2020-07-04 17:00 15.05 94800 177000 (2019) 80300 (2017) 116000 81000 82200 99100 158000 169000
2020-07-04 16:00 15.04 94700 177000 (2019) 80300 (2017) 116000 81000 82200 99100 158000 169000
2020-07-04 15:00 15.06 94900 177000 (2019) 80300 (2017) 116000 81000 82200 99100 158000 169000
2020-07-04 14:00 15.04 94700 177000 (2019) 80300 (2017) 116000 81000 82200 99100 158000 169000
2020-07-04 13:00 15.02 94500 177000 (2019) 80300 (2017) 116000 81000 82200 99100 158000 169000
2020-07-04 12:00 15.02 94500 177000 (2019) 80300 (2017) 116000 81000 82200 99100 158000 169000
2020-07-04 11:00 14.99 94300 177000 (2019) 80300 (2017) 116000 81000 82200 99100 158000 169000
2020-07-04 10:00 14.94 93800 177000 (2019) 80300 (2017) 116000 81000 82200 99100 158000 169000
2020-07-04 09:00 14.91 93600 177000 (2019) 80300 (2017) 116000 81000 82200 99100 158000 169000
2020-07-04 08:00 14.87 93200 177000 (2019) 80300 (2017) 116000 81000 82200 99100 158000 169000
2020-07-04 07:00 14.82 92800 177000 (2019) 80300 (2017) 116000 81000 82200 99100 158000 169000
2020-07-04 06:00 14.80 92600 177000 (2019) 80300 (2017) 116000 81000 82200 99100 158000 169000
2020-07-04 05:00 14.79 92500 177000 (2019) 80300 (2017) 116000 81000 82200 99100 158000 169000
2020-07-04 04:00 14.78 92400 177000 (2019) 80300 (2017) 116000 81000 82200 99100 158000 169000
2020-07-04 03:00 14.76 92200 177000 (2019) 80300 (2017) 116000 81000 82200 99100 158000 169000
2020-07-04 02:00 14.76 92200 177000 (2019) 80300 (2017) 116000 81000 82200 99100 158000 169000
2020-07-04 01:00 14.78 92400 177000 (2019) 80300 (2017) 116000 81000 82200 99100 158000 169000
2020-07-04 00:00 14.81 92700 177000 (2019) 80300 (2017) 116000 81000 82200 99100 158000 169000
2020-07-03 23:00 14.85 93000 180000 (2019) 87200 (2017) 120000 87400 87600 107000 160000 172000
2020-07-03 22:00 14.87 93200 180000 (2019) 87200 (2017) 120000 87400 87600 107000 160000 172000
2020-07-03 21:00 14.89 93400 180000 (2019) 87200 (2017) 120000 87400 87600 107000 160000 172000
2020-07-03 20:00 14.91 93600 180000 (2019) 87200 (2017) 120000 87400 87600 107000 160000 172000
2020-07-03 19:00 14.95 93900 180000 (2019) 87200 (2017) 120000 87400 87600 107000 160000 172000
2020-07-03 18:00 14.97 94100 180000 (2019) 87200 (2017) 120000 87400 87600 107000 160000 172000
2020-07-03 17:00 14.99 94300 180000 (2019) 87200 (2017) 120000 87400 87600 107000 160000 172000
2020-07-03 16:00 14.99 94300 180000 (2019) 87200 (2017) 120000 87400 87600 107000 160000 172000
2020-07-03 15:00 15.02 94500 180000 (2019) 87200 (2017) 120000 87400 87600 107000 160000 172000
2020-07-03 14:00 15.03 94600 180000 (2019) 87200 (2017) 120000 87400 87600 107000 160000 172000
2020-07-03 13:00 15.04 94700 180000 (2019) 87200 (2017) 120000 87400 87600 107000 160000 172000
2020-07-03 12:00 15.02 94500 180000 (2019) 87200 (2017) 120000 87400 87600 107000 160000 172000
2020-07-03 11:00 15.04 94700 180000 (2019) 87200 (2017) 120000 87400 87600 107000 160000 172000
2020-07-03 10:00 15.04 94700 180000 (2019) 87200 (2017) 120000 87400 87600 107000 160000 172000
2020-07-03 09:00 15.01 94400 180000 (2019) 87200 (2017) 120000 87400 87600 107000 160000 172000
2020-07-03 08:00 15.01 94400 180000 (2019) 87200 (2017) 120000 87400 87600 107000 160000 172000
2020-07-03 07:00 15.00 94400 180000 (2019) 87200 (2017) 120000 87400 87600 107000 160000 172000
2020-07-03 06:00 14.97 94100 180000 (2019) 87200 (2017) 120000 87400 87600 107000 160000 172000
2020-07-03 05:00 14.95 93900 180000 (2019) 87200 (2017) 120000 87400 87600 107000 160000 172000
2020-07-03 04:00 14.93 93700 180000 (2019) 87200 (2017) 120000 87400 87600 107000 160000 172000
2020-07-03 03:00 14.93 93700 180000 (2019) 87200 (2017) 120000 87400 87600 107000 160000 172000
2020-07-03 02:00 14.92 93600 180000 (2019) 87200 (2017) 120000 87400 87600 107000 160000 172000
2020-07-03 01:00 14.90 93500 180000 (2019) 87200 (2017) 120000 87400 87600 107000 160000 172000
2020-07-03 00:00 14.86 93100 180000 (2019) 87200 (2017) 120000 87400 87600 107000 160000 172000
2020-07-02 23:00 14.85 93000 184000 (2019) 65900 (2016) 119000 71300 79400 117000 161000 175000
2020-07-02 22:00 14.84 92900 184000 (2019) 65900 (2016) 119000 71300 79400 117000 161000 175000
2020-07-02 21:00 14.78 92400 184000 (2019) 65900 (2016) 119000 71300 79400 117000 161000 175000
2020-07-02 20:00 14.74 92100 184000 (2019) 65900 (2016) 119000 71300 79400 117000 161000 175000
2020-07-02 19:00 14.73 92000 184000 (2019) 65900 (2016) 119000 71300 79400 117000 161000 175000
2020-07-02 18:00 14.71 91800 184000 (2019) 65900 (2016) 119000 71300 79400 117000 161000 175000
2020-07-02 17:00 14.70 91700 184000 (2019) 65900 (2016) 119000 71300 79400 117000 161000 175000
2020-07-02 16:00 14.68 91600 184000 (2019) 65900 (2016) 119000 71300 79400 117000 161000 175000
2020-07-02 15:00 14.66 91400 184000 (2019) 65900 (2016) 119000 71300 79400 117000 161000 175000
2020-07-02 14:00 14.66 91400 184000 (2019) 65900 (2016) 119000 71300 79400 117000 161000 175000
2020-07-02 13:00 14.66 91400 184000 (2019) 65900 (2016) 119000 71300 79400 117000 161000 175000
2020-07-02 12:00 14.64 91200 184000 (2019) 65900 (2016) 119000 71300 79400 117000 161000 175000
2020-07-02 11:00 14.61 90900 184000 (2019) 65900 (2016) 119000 71300 79400 117000 161000 175000
2020-07-02 10:00 14.61 90900 184000 (2019) 65900 (2016) 119000 71300 79400 117000 161000 175000
2020-07-02 09:00 14.60 90900 184000 (2019) 65900 (2016) 119000 71300 79400 117000 161000 175000
2020-07-02 08:00 14.59 90800 184000 (2019) 65900 (2016) 119000 71300 79400 117000 161000 175000
2020-07-02 07:00 14.59 90800 184000 (2019) 65900 (2016) 119000 71300 79400 117000 161000 175000
2020-07-02 06:00 14.60 90900 184000 (2019) 65900 (2016) 119000 71300 79400 117000 161000 175000
2020-07-02 05:00 14.63 91100 184000 (2019) 65900 (2016) 119000 71300 79400 117000 161000 175000
2020-07-02 04:00 14.63 91100 184000 (2019) 65900 (2016) 119000 71300 79400 117000 161000 175000
2020-07-02 03:00 14.62 91000 184000 (2019) 65900 (2016) 119000 71300 79400 117000 161000 175000
2020-07-02 02:00 14.66 91400 184000 (2019) 65900 (2016) 119000 71300 79400 117000 161000 175000
2020-07-02 01:00 14.66 91400 184000 (2019) 65900 (2016) 119000 71300 79400 117000 161000 175000
2020-07-02 00:00 14.69 91600 184000 (2019) 65900 (2016) 119000 71300 79400 117000 161000 175000
2020-07-01 23:00 14.71 91800 192000 (2019) 65900 (2016) 124000 74300 87000 117000 164000 181000
2020-07-01 22:00 14.76 92200 192000 (2019) 65900 (2016) 124000 74300 87000 117000 164000 181000
2020-07-01 21:00 14.80 92600 192000 (2019) 65900 (2016) 124000 74300 87000 117000 164000 181000
2020-07-01 20:00 14.82 92800 192000 (2019) 65900 (2016) 124000 74300 87000 117000 164000 181000
2020-07-01 19:00 14.85 93000 192000 (2019) 65900 (2016) 124000 74300 87000 117000 164000 181000
2020-07-01 18:00 14.89 93400 192000 (2019) 65900 (2016) 124000 74300 87000 117000 164000 181000
2020-07-01 17:00 14.90 93500 192000 (2019) 65900 (2016) 124000 74300 87000 117000 164000 181000
2020-07-01 16:00 14.90 93500 192000 (2019) 65900 (2016) 124000 74300 87000 117000 164000 181000
2020-07-01 15:00 14.87 93200 192000 (2019) 65900 (2016) 124000 74300 87000 117000 164000 181000
2020-07-01 14:00 14.80 95200 192000 (2019) 65900 (2016) 124000 74300 87000 117000 164000 181000
2020-07-01 13:00 14.74 94700 192000 (2019) 65900 (2016) 124000 74300 87000 117000 164000 181000
2020-07-01 12:00 14.65 93900 192000 (2019) 65900 (2016) 124000 74300 87000 117000 164000 181000
2020-07-01 11:00 14.54 92900 192000 (2019) 65900 (2016) 124000 74300 87000 117000 164000 181000
2020-07-01 10:00 14.42 91900 192000 (2019) 65900 (2016) 124000 74300 87000 117000 164000 181000
2020-07-01 09:00 14.30 90900 192000 (2019) 65900 (2016) 124000 74300 87000 117000 164000 181000
2020-07-01 08:00 14.19 89900 192000 (2019) 65900 (2016) 124000 74300 87000 117000 164000 181000
2020-07-01 07:00 14.12 89300 192000 (2019) 65900 (2016) 124000 74300 87000 117000 164000 181000
2020-07-01 06:00 14.13 89400 192000 (2019) 65900 (2016) 124000 74300 87000 117000 164000 181000
2020-07-01 05:00 14.01 88400 192000 (2019) 65900 (2016) 124000 74300 87000 117000 164000 181000
2020-07-01 04:00 14.03 88600 192000 (2019) 65900 (2016) 124000 74300 87000 117000 164000 181000
2020-07-01 03:00 14.03 88600 192000 (2019) 65900 (2016) 124000 74300 87000 117000 164000 181000
2020-07-01 02:00 14.05 88700 192000 (2019) 65900 (2016) 124000 74300 87000 117000 164000 181000
2020-07-01 01:00 14.06 88800 192000 (2019) 65900 (2016) 124000 74300 87000 117000 164000 181000
2020-07-01 00:00 14.08 89000 192000 (2019) 65900 (2016) 124000 74300 87000 117000 164000 181000
2020-06-30 23:00 14.11 89200 199000 (2019) 67400 (2016) 122000 74300 84700 117000 162000 184000
2020-06-30 22:00 14.12 89300 199000 (2019) 67400 (2016) 122000 74300 84700 117000 162000 184000
2020-06-30 21:00 14.14 89500 199000 (2019) 67400 (2016) 122000 74300 84700 117000 162000 184000
2020-06-30 20:00 14.16 89700 199000 (2019) 67400 (2016) 122000 74300 84700 117000 162000 184000
2020-06-30 19:00 14.17 89700 199000 (2019) 67400 (2016) 122000 74300 84700 117000 162000 184000
2020-06-30 18:00 14.20 90000 199000 (2019) 67400 (2016) 122000 74300 84700 117000 162000 184000
2020-06-30 17:00 14.24 90300 199000 (2019) 67400 (2016) 122000 74300 84700 117000 162000 184000
2020-06-30 16:00 14.27 90600 199000 (2019) 67400 (2016) 122000 74300 84700 117000 162000 184000
2020-06-30 15:00 14.30 90900 199000 (2019) 67400 (2016) 122000 74300 84700 117000 162000 184000
2020-06-30 14:00 14.32 91000 199000 (2019) 67400 (2016) 122000 74300 84700 117000 162000 184000
2020-06-30 13:00 14.36 91400 199000 (2019) 67400 (2016) 122000 74300 84700 117000 162000 184000
2020-06-30 12:00 14.39 91600 199000 (2019) 67400 (2016) 122000 74300 84700 117000 162000 184000
2020-06-30 11:00 14.41 91800 199000 (2019) 67400 (2016) 122000 74300 84700 117000 162000 184000
2020-06-30 10:00 14.44 92100 199000 (2019) 67400 (2016) 122000 74300 84700 117000 162000 184000
2020-06-30 09:00 14.45 92200 199000 (2019) 67400 (2016) 122000 74300 84700 117000 162000 184000
2020-06-30 08:00 14.48 92400 199000 (2019) 67400 (2016) 122000 74300 84700 117000 162000 184000
2020-06-30 07:00 14.54 92900 199000 (2019) 67400 (2016) 122000 74300 84700 117000 162000 184000
2020-06-30 06:00 14.54 92900 199000 (2019) 67400 (2016) 122000 74300 84700 117000 162000 184000
2020-06-30 05:00 14.58 93300 199000 (2019) 67400 (2016) 122000 74300 84700 117000 162000 184000
2020-06-30 04:00 14.62 93600 199000 (2019) 67400 (2016) 122000 74300 84700 117000 162000 184000
2020-06-30 03:00 14.64 93800 199000 (2019) 67400 (2016) 122000 74300 84700 117000 162000 184000
2020-06-30 02:00 14.67 94100 199000 (2019) 67400 (2016) 122000 74300 84700 117000 162000 184000
2020-06-30 01:00 14.73 94600 199000 (2019) 67400 (2016) 122000 74300 84700 117000 162000 184000
2020-06-30 00:00 14.80 95200 199000 (2019) 67400 (2016) 122000 74300 84700 117000 162000 184000
2020-06-29 23:00 14.83 95500 202000 (2019) 68000 (2017) 117000 68400 69000 119000 163000 186000
2020-06-29 22:00 14.88 96000 202000 (2019) 68000 (2017) 117000 68400 69000 119000 163000 186000
2020-06-29 21:00 14.92 96300 202000 (2019) 68000 (2017) 117000 68400 69000 119000 163000 186000
2020-06-29 20:00 14.95 96600 202000 (2019) 68000 (2017) 117000 68400 69000 119000 163000 186000
2020-06-29 19:00 15.00 97000 202000 (2019) 68000 (2017) 117000 68400 69000 119000 163000 186000
2020-06-29 18:00 15.06 97600 202000 (2019) 68000 (2017) 117000 68400 69000 119000 163000 186000
2020-06-29 17:00 15.12 98100 202000 (2019) 68000 (2017) 117000 68400 69000 119000 163000 186000
2020-06-29 16:00 15.17 98600 202000 (2019) 68000 (2017) 117000 68400 69000 119000 163000 186000
2020-06-29 15:00 15.21 98900 202000 (2019) 68000 (2017) 117000 68400 69000 119000 163000 186000
2020-06-29 14:00 15.25 99300 202000 (2019) 68000 (2017) 117000 68400 69000 119000 163000 186000
2020-06-29 13:00 15.30 99800 202000 (2019) 68000 (2017) 117000 68400 69000 119000 163000 186000
2020-06-29 12:00 15.34 100000 202000 (2019) 68000 (2017) 117000 68400 69000 119000 163000 186000
2020-06-29 11:00 15.37 100000 202000 (2019) 68000 (2017) 117000 68400 69000 119000 163000 186000
2020-06-29 10:00 15.42 101000 202000 (2019) 68000 (2017) 117000 68400 69000 119000 163000 186000
2020-06-29 09:00 15.47 101000 202000 (2019) 68000 (2017) 117000 68400 69000 119000 163000 186000
2020-06-29 08:00 15.52 102000 202000 (2019) 68000 (2017) 117000 68400 69000 119000 163000 186000
2020-06-29 07:00 15.59 102000 202000 (2019) 68000 (2017) 117000 68400 69000 119000 163000 186000
2020-06-29 06:00 15.61 103000 202000 (2019) 68000 (2017) 117000 68400 69000 119000 163000 186000
2020-06-29 05:00 15.64 103000 202000 (2019) 68000 (2017) 117000 68400 69000 119000 163000 186000
2020-06-29 04:00 15.68 103000 202000 (2019) 68000 (2017) 117000 68400 69000 119000 163000 186000
2020-06-29 03:00 15.71 104000 202000 (2019) 68000 (2017) 117000 68400 69000 119000 163000 186000
2020-06-29 02:00 15.72 104000 202000 (2019) 68000 (2017) 117000 68400 69000 119000 163000 186000
2020-06-29 01:00 15.77 104000 202000 (2019) 68000 (2017) 117000 68400 69000 119000 163000 186000
2020-06-29 00:00 15.79 104000 202000 (2019) 68000 (2017) 117000 68400 69000 119000 163000 186000
2020-06-28 23:00 15.80 104000 201000 (2019) 66100 (2017) 117000 67100 68600 109000 169000 188000
2020-06-28 22:00 15.82 105000 201000 (2019) 66100 (2017) 117000 67100 68600 109000 169000 188000
2020-06-28 21:00 15.83 105000 201000 (2019) 66100 (2017) 117000 67100 68600 109000 169000 188000
2020-06-28 20:00 15.83 105000 201000 (2019) 66100 (2017) 117000 67100 68600 109000 169000 188000
2020-06-28 19:00 15.81 105000 201000 (2019) 66100 (2017) 117000 67100 68600 109000 169000 188000
2020-06-28 18:00 15.83 105000 201000 (2019) 66100 (2017) 117000 67100 68600 109000 169000 188000
2020-06-28 17:00 15.81 105000 201000 (2019) 66100 (2017) 117000 67100 68600 109000 169000 188000
2020-06-28 16:00 15.81 105000 201000 (2019) 66100 (2017) 117000 67100 68600 109000 169000 188000
2020-06-28 15:00 15.81 105000 201000 (2019) 66100 (2017) 117000 67100 68600 109000 169000 188000
2020-06-28 14:00 15.79 104000 201000 (2019) 66100 (2017) 117000 67100 68600 109000 169000 188000
2020-06-28 13:00 15.77 104000 201000 (2019) 66100 (2017) 117000 67100 68600 109000 169000 188000
2020-06-28 12:00 15.75 104000 201000 (2019) 66100 (2017) 117000 67100 68600 109000 169000 188000
2020-06-28 11:00 15.69 103000 201000 (2019) 66100 (2017) 117000 67100 68600 109000 169000 188000
2020-06-28 10:00 15.68 103000 201000 (2019) 66100 (2017) 117000 67100 68600 109000 169000 188000
2020-06-28 09:00 15.64 103000 201000 (2019) 66100 (2017) 117000 67100 68600 109000 169000 188000
2020-06-28 08:00 15.58 102000 201000 (2019) 66100 (2017) 117000 67100 68600 109000 169000 188000
2020-06-28 07:00 15.53 102000 201000 (2019) 66100 (2017) 117000 67100 68600 109000 169000 188000
2020-06-28 06:00 15.46 101000 201000 (2019) 66100 (2017) 117000 67100 68600 109000 169000 188000
2020-06-28 05:00 15.37 100000 201000 (2019) 66100 (2017) 117000 67100 68600 109000 169000 188000
2020-06-28 04:00 15.32 99900 201000 (2019) 66100 (2017) 117000 67100 68600 109000 169000 188000
2020-06-28 03:00 15.22 99000 201000 (2019) 66100 (2017) 117000 67100 68600 109000 169000 188000
2020-06-28 02:00 15.11 98000 201000 (2019) 66100 (2017) 117000 67100 68600 109000 169000 188000
2020-06-28 01:00 15.00 97000 201000 (2019) 66100 (2017) 117000 67100 68600 109000 169000 188000
2020-06-28 00:00 14.88 96000 201000 (2019) 66100 (2017) 117000 67100 68600 109000 169000 188000
2020-06-27 23:00 14.80 95200 210000 (2019) 67000 (2017) 120000 68000 69500 98200 181000 198000
2020-06-27 22:00 14.70 94400 210000 (2019) 67000 (2017) 120000 68000 69500 98200 181000 198000
2020-06-27 21:00 14.58 93300 210000 (2019) 67000 (2017) 120000 68000 69500 98200 181000 198000
2020-06-27 20:00 14.48 92400 210000 (2019) 67000 (2017) 120000 68000 69500 98200 181000 198000
2020-06-27 19:00 14.41 91800 210000 (2019) 67000 (2017) 120000 68000 69500 98200 181000 198000
2020-06-27 18:00 14.35 91300 210000 (2019) 67000 (2017) 120000 68000 69500 98200 181000 198000
2020-06-27 17:00 14.29 90800 210000 (2019) 67000 (2017) 120000 68000 69500 98200 181000 198000
2020-06-27 16:00 14.24 90300 210000 (2019) 67000 (2017) 120000 68000 69500 98200 181000 198000
2020-06-27 15:00 14.19 89900 210000 (2019) 67000 (2017) 120000 68000 69500 98200 181000 198000
2020-06-27 14:00 14.12 89300 210000 (2019) 67000 (2017) 120000 68000 69500 98200 181000 198000
2020-06-27 13:00 14.08 89000 210000 (2019) 67000 (2017) 120000 68000 69500 98200 181000 198000
2020-06-27 12:00 14.03 88600 210000 (2019) 67000 (2017) 120000 68000 69500 98200 181000 198000
2020-06-27 11:00 14.00 88300 210000 (2019) 67000 (2017) 120000 68000 69500 98200 181000 198000
2020-06-27 10:00 13.95 87900 210000 (2019) 67000 (2017) 120000 68000 69500 98200 181000 198000
2020-06-27 09:00 13.89 87400 210000 (2019) 67000 (2017) 120000 68000 69500 98200 181000 198000
2020-06-27 08:00 13.87 87200 210000 (2019) 67000 (2017) 120000 68000 69500 98200 181000 198000
2020-06-27 07:00 13.79 86500 210000 (2019) 67000 (2017) 120000 68000 69500 98200 181000 198000
2020-06-27 06:00 13.76 86300 210000 (2019) 67000 (2017) 120000 68000 69500 98200 181000 198000
2020-06-27 05:00 13.74 86100 210000 (2019) 67000 (2017) 120000 68000 69500 98200 181000 198000
2020-06-27 04:00 13.74 86100 210000 (2019) 67000 (2017) 120000 68000 69500 98200 181000 198000
2020-06-27 03:00 13.71 85900 210000 (2019) 67000 (2017) 120000 68000 69500 98200 181000 198000
2020-06-27 02:00 13.72 86000 210000 (2019) 67000 (2017) 120000 68000 69500 98200 181000 198000
2020-06-27 01:00 13.71 85900 210000 (2019) 67000 (2017) 120000 68000 69500 98200 181000 198000
2020-06-27 00:00 13.71 85900 210000 (2019) 67000 (2017) 120000 68000 69500 98200 181000 198000
2020-06-26 23:00 13.71 85900 233000 (2019) 69100 (2017) 124000 70000 71300 95300 190000 216000
2020-06-26 22:00 13.72 86000 233000 (2019) 69100 (2017) 124000 70000 71300 95300 190000 216000
2020-06-26 21:00 13.74 86100 233000 (2019) 69100 (2017) 124000 70000 71300 95300 190000 216000
2020-06-26 20:00 13.73 86000 233000 (2019) 69100 (2017) 124000 70000 71300 95300 190000 216000
2020-06-26 19:00 13.73 86000 233000 (2019) 69100 (2017) 124000 70000 71300 95300 190000 216000
2020-06-26 18:00 13.75 86200 233000 (2019) 69100 (2017) 124000 70000 71300 95300 190000 216000
2020-06-26 17:00 13.75 86200 233000 (2019) 69100 (2017) 124000 70000 71300 95300 190000 216000
2020-06-26 16:00 13.76 86300 233000 (2019) 69100 (2017) 124000 70000 71300 95300 190000 216000
2020-06-26 15:00 13.74 86100 233000 (2019) 69100 (2017) 124000 70000 71300 95300 190000 216000
2020-06-26 14:00 13.73 86000 233000 (2019) 69100 (2017) 124000 70000 71300 95300 190000 216000
2020-06-26 13:00 13.72 86000 233000 (2019) 69100 (2017) 124000 70000 71300 95300 190000 216000
2020-06-26 12:00 13.73 86000 233000 (2019) 69100 (2017) 124000 70000 71300 95300 190000 216000
2020-06-26 11:00 13.73 86000 233000 (2019) 69100 (2017) 124000 70000 71300 95300 190000 216000
2020-06-26 10:00 13.75 86200 233000 (2019) 69100 (2017) 124000 70000 71300 95300 190000 216000
2020-06-26 09:00 13.72 86000 233000 (2019) 69100 (2017) 124000 70000 71300 95300 190000 216000
2020-06-26 08:00 13.75 86200 233000 (2019) 69100 (2017) 124000 70000 71300 95300 190000 216000
2020-06-26 07:00 13.76 86300 233000 (2019) 69100 (2017) 124000 70000 71300 95300 190000 216000
2020-06-26 06:00 13.75 86200 233000 (2019) 69100 (2017) 124000 70000 71300 95300 190000 216000
2020-06-26 05:00 13.74 86100 233000 (2019) 69100 (2017) 124000 70000 71300 95300 190000 216000
2020-06-26 04:00 13.75 86200 233000 (2019) 69100 (2017) 124000 70000 71300 95300 190000 216000
2020-06-26 03:00 13.72 86000 233000 (2019) 69100 (2017) 124000 70000 71300 95300 190000 216000
2020-06-26 02:00 13.71 85900 233000 (2019) 69100 (2017) 124000 70000 71300 95300 190000 216000
2020-06-26 01:00 13.73 86000 233000 (2019) 69100 (2017) 124000 70000 71300 95300 190000 216000
2020-06-26 00:00 13.73 86000 233000 (2019) 69100 (2017) 124000 70000 71300 95300 190000 216000
2020-06-25 23:00 13.72 86000 255000 (2019) 71500 (2017) 123000 72600 74400 92200 188000 228000
2020-06-25 22:00 13.72 86000 255000 (2019) 71500 (2017) 123000 72600 74400 92200 188000 228000
2020-06-25 21:00 13.71 85900 255000 (2019) 71500 (2017) 123000 72600 74400 92200 188000 228000
2020-06-25 20:00 13.68 85600 255000 (2019) 71500 (2017) 123000 72600 74400 92200 188000 228000
2020-06-25 19:00 13.69 85700 255000 (2019) 71500 (2017) 123000 72600 74400 92200 188000 228000
2020-06-25 18:00 13.69 85700 255000 (2019) 71500 (2017) 123000 72600 74400 92200 188000 228000
2020-06-25 17:00 13.70 85800 255000 (2019) 71500 (2017) 123000 72600 74400 92200 188000 228000
2020-06-25 16:00 13.69 85700 255000 (2019) 71500 (2017) 123000 72600 74400 92200 188000 228000
2020-06-25 15:00 13.68 85600 255000 (2019) 71500 (2017) 123000 72600 74400 92200 188000 228000
2020-06-25 14:00 13.68 85600 255000 (2019) 71500 (2017) 123000 72600 74400 92200 188000 228000
2020-06-25 13:00 13.68 85600 255000 (2019) 71500 (2017) 123000 72600 74400 92200 188000 228000
2020-06-25 12:00 13.67 85500 255000 (2019) 71500 (2017) 123000 72600 74400 92200 188000 228000
2020-06-25 11:00 13.67 85500 255000 (2019) 71500 (2017) 123000 72600 74400 92200 188000 228000
2020-06-25 10:00 13.66 85500 255000 (2019) 71500 (2017) 123000 72600 74400 92200 188000 228000
2020-06-25 09:00 13.62 85100 255000 (2019) 71500 (2017) 123000 72600 74400 92200 188000 228000
2020-06-25 08:00 13.64 85300 255000 (2019) 71500 (2017) 123000 72600 74400 92200 188000 228000
2020-06-25 07:00 13.66 85500 255000 (2019) 71500 (2017) 123000 72600 74400 92200 188000 228000
2020-06-25 06:00 13.65 85400 255000 (2019) 71500 (2017) 123000 72600 74400 92200 188000 228000
2020-06-25 05:00 13.62 85100 255000 (2019) 71500 (2017) 123000 72600 74400 92200 188000 228000
2020-06-25 04:00 13.62 85100 255000 (2019) 71500 (2017) 123000 72600 74400 92200 188000 228000
2020-06-25 03:00 13.64 85300 255000 (2019) 71500 (2017) 123000 72600 74400 92200 188000 228000
2020-06-25 02:00 13.64 85300 255000 (2019) 71500 (2017) 123000 72600 74400 92200 188000 228000
2020-06-25 01:00 13.63 85200 255000 (2019) 71500 (2017) 123000 72600 74400 92200 188000 228000
2020-06-25 00:00 13.64 85300 255000 (2019) 71500 (2017) 123000 72600 74400 92200 188000 228000
2020-06-24 23:00 13.63 85200 249000 (2019) 74500 (2017) 125000 76400 79300 94400 186000 224000
2020-06-24 22:00 13.67 85500 249000 (2019) 74500 (2017) 125000 76400 79300 94400 186000 224000
2020-06-24 21:00 13.67 85500 249000 (2019) 74500 (2017) 125000 76400 79300 94400 186000 224000
2020-06-24 20:00 13.68 85600 249000 (2019) 74500 (2017) 125000 76400 79300 94400 186000 224000
2020-06-24 19:00 13.71 85900 249000 (2019) 74500 (2017) 125000 76400 79300 94400 186000 224000
2020-06-24 18:00 13.71 85900 249000 (2019) 74500 (2017) 125000 76400 79300 94400 186000 224000
2020-06-24 17:00 13.73 86000 249000 (2019) 74500 (2017) 125000 76400 79300 94400 186000 224000
2020-06-24 16:00 13.72 86000 249000 (2019) 74500 (2017) 125000 76400 79300 94400 186000 224000
2020-06-24 15:00 13.74 86100 249000 (2019) 74500 (2017) 125000 76400 79300 94400 186000 224000
2020-06-24 14:00 13.75 86200 249000 (2019) 74500 (2017) 125000 76400 79300 94400 186000 224000
2020-06-24 13:00 13.77 86400 249000 (2019) 74500 (2017) 125000 76400 79300 94400 186000 224000
2020-06-24 12:00 13.77 86400 249000 (2019) 74500 (2017) 125000 76400 79300 94400 186000 224000
2020-06-24 11:00 13.78 86500 249000 (2019) 74500 (2017) 125000 76400 79300 94400 186000 224000
2020-06-24 10:00 13.78 86500 249000 (2019) 74500 (2017) 125000 76400 79300 94400 186000 224000
2020-06-24 09:00 13.80 86600 249000 (2019) 74500 (2017) 125000 76400 79300 94400 186000 224000
2020-06-24 08:00 13.80 86600 249000 (2019) 74500 (2017) 125000 76400 79300 94400 186000 224000
2020-06-24 07:00 13.80 86600 249000 (2019) 74500 (2017) 125000 76400 79300 94400 186000 224000
2020-06-24 06:00 13.81 86700 249000 (2019) 74500 (2017) 125000 76400 79300 94400 186000 224000
2020-06-24 05:00 13.82 86800 249000 (2019) 74500 (2017) 125000 76400 79300 94400 186000 224000
2020-06-24 04:00 13.83 86900 249000 (2019) 74500 (2017) 125000 76400 79300 94400 186000 224000
2020-06-24 03:00 13.80 86600 249000 (2019) 74500 (2017) 125000 76400 79300 94400 186000 224000
2020-06-24 02:00 13.82 86800 249000 (2019) 74500 (2017) 125000 76400 79300 94400 186000 224000
2020-06-24 01:00 13.82 86800 249000 (2019) 74500 (2017) 125000 76400 79300 94400 186000 224000
2020-06-24 00:00 13.85 87000 249000 (2019) 74500 (2017) 125000 76400 79300 94400 186000 224000
2020-06-23 23:00 13.86 87100 220000 (2019) 77900 (2017) 124000 81200 86100 98700 174000 202000
2020-06-23 22:00 13.86 87100 220000 (2019) 77900 (2017) 124000 81200 86100 98700 174000 202000
2020-06-23 21:00 13.86 87100 220000 (2019) 77900 (2017) 124000 81200 86100 98700 174000 202000
2020-06-23 20:00 13.86 87100 220000 (2019) 77900 (2017) 124000 81200 86100 98700 174000 202000
2020-06-23 19:00 13.87 87200 220000 (2019) 77900 (2017) 124000 81200 86100 98700 174000 202000
2020-06-23 18:00 13.89 87400 220000 (2019) 77900 (2017) 124000 81200 86100 98700 174000 202000
2020-06-23 17:00 13.92 87600 220000 (2019) 77900 (2017) 124000 81200 86100 98700 174000 202000
2020-06-23 16:00 13.93 87700 220000 (2019) 77900 (2017) 124000 81200 86100 98700 174000 202000
2020-06-23 15:00 13.94 87800 220000 (2019) 77900 (2017) 124000 81200 86100 98700 174000 202000
2020-06-23 14:00 13.98 88100 220000 (2019) 77900 (2017) 124000 81200 86100 98700 174000 202000
2020-06-23 13:00 13.99 88200 220000 (2019) 77900 (2017) 124000 81200 86100 98700 174000 202000
2020-06-23 12:00 14.03 88600 220000 (2019) 77900 (2017) 124000 81200 86100 98700 174000 202000
2020-06-23 11:00 14.05 88700 220000 (2019) 77900 (2017) 124000 81200 86100 98700 174000 202000
2020-06-23 10:00 14.07 88900 220000 (2019) 77900 (2017) 124000 81200 86100 98700 174000 202000
2020-06-23 09:00 14.09 89100 220000 (2019) 77900 (2017) 124000 81200 86100 98700 174000 202000
2020-06-23 08:00 14.11 89200 220000 (2019) 77900 (2017) 124000 81200 86100 98700 174000 202000
2020-06-23 07:00 14.14 89500 220000 (2019) 77900 (2017) 124000 81200 86100 98700 174000 202000
2020-06-23 06:00 14.16 89700 220000 (2019) 77900 (2017) 124000 81200 86100 98700 174000 202000
2020-06-23 05:00 14.19 89900 220000 (2019) 77900 (2017) 124000 81200 86100 98700 174000 202000
2020-06-23 04:00 14.21 90100 220000 (2019) 77900 (2017) 124000 81200 86100 98700 174000 202000
2020-06-23 03:00 14.22 90200 220000 (2019) 77900 (2017) 124000 81200 86100 98700 174000 202000
2020-06-23 02:00 14.24 90300 220000 (2019) 77900 (2017) 124000 81200 86100 98700 174000 202000
2020-06-23 01:00 14.28 90700 220000 (2019) 77900 (2017) 124000 81200 86100 98700 174000 202000
2020-06-23 00:00 14.30 90900 220000 (2019) 77900 (2017) 124000 81200 86100 98700 174000 202000
2020-06-22 23:00 14.33 91100 186000 (2019) 80800 (2017) 122000 83800 88300 108000 162000 176000
2020-06-22 22:00 14.34 91200 186000 (2019) 80800 (2017) 122000 83800 88300 108000 162000 176000
2020-06-22 21:00 14.37 91500 186000 (2019) 80800 (2017) 122000 83800 88300 108000 162000 176000
2020-06-22 20:00 14.41 91800 186000 (2019) 80800 (2017) 122000 83800 88300 108000 162000 176000
2020-06-22 19:00 14.41 91800 186000 (2019) 80800 (2017) 122000 83800 88300 108000 162000 176000
2020-06-22 18:00 14.43 92000 186000 (2019) 80800 (2017) 122000 83800 88300 108000 162000 176000
2020-06-22 17:00 14.45 92200 186000 (2019) 80800 (2017) 122000 83800 88300 108000 162000 176000
2020-06-22 16:00 14.46 92200 186000 (2019) 80800 (2017) 122000 83800 88300 108000 162000 176000
2020-06-22 15:00 14.49 92500 186000 (2019) 80800 (2017) 122000 83800 88300 108000 162000 176000
2020-06-22 14:00 14.52 92800 186000 (2019) 80800 (2017) 122000 83800 88300 108000 162000 176000
2020-06-22 13:00 14.51 92700 186000 (2019) 80800 (2017) 122000 83800 88300 108000 162000 176000
2020-06-22 12:00 14.54 92900 186000 (2019) 80800 (2017) 122000 83800 88300 108000 162000 176000
2020-06-22 11:00 14.54 92900 186000 (2019) 80800 (2017) 122000 83800 88300 108000 162000 176000
2020-06-22 10:00 14.55 93000 186000 (2019) 80800 (2017) 122000 83800 88300 108000 162000 176000
2020-06-22 09:00 14.56 93100 186000 (2019) 80800 (2017) 122000 83800 88300 108000 162000 176000
2020-06-22 08:00 14.56 93100 186000 (2019) 80800 (2017) 122000 83800 88300 108000 162000 176000
2020-06-22 07:00 14.57 93200 186000 (2019) 80800 (2017) 122000 83800 88300 108000 162000 176000
2020-06-22 06:00 14.57 93200 186000 (2019) 80800 (2017) 122000 83800 88300 108000 162000 176000
2020-06-22 05:00 14.56 93100 186000 (2019) 80800 (2017) 122000 83800 88300 108000 162000 176000
2020-06-22 04:00 14.56 93100 186000 (2019) 80800 (2017) 122000 83800 88300 108000 162000 176000
2020-06-22 03:00 14.59 93400 186000 (2019) 80800 (2017) 122000 83800 88300 108000 162000 176000
2020-06-22 02:00 14.57 93200 186000 (2019) 80800 (2017) 122000 83800 88300 108000 162000 176000
2020-06-22 01:00 14.57 93200 186000 (2019) 80800 (2017) 122000 83800 88300 108000 162000 176000
2020-06-22 00:00 14.57 93200 186000 (2019) 80800 (2017) 122000 83800 88300 108000 162000 176000
2020-06-21 23:00 14.57 93200 182000 (2019) 83400 (2018) 118000 83800 84400 108000 157000 172000
2020-06-21 22:00 14.58 93300 182000 (2019) 83400 (2018) 118000 83800 84400 108000 157000 172000
2020-06-21 21:00 14.57 93200 182000 (2019) 83400 (2018) 118000 83800 84400 108000 157000 172000
2020-06-21 20:00 14.56 93100 182000 (2019) 83400 (2018) 118000 83800 84400 108000 157000 172000
2020-06-21 19:00 14.55 93000 182000 (2019) 83400 (2018) 118000 83800 84400 108000 157000 172000
2020-06-21 18:00 14.54 92900 182000 (2019) 83400 (2018) 118000 83800 84400 108000 157000 172000
2020-06-21 17:00 14.52 92800 182000 (2019) 83400 (2018) 118000 83800 84400 108000 157000 172000
2020-06-21 16:00 14.54 92900 182000 (2019) 83400 (2018) 118000 83800 84400 108000 157000 172000
2020-06-21 15:00 14.50 92600 182000 (2019) 83400 (2018) 118000 83800 84400 108000 157000 172000
2020-06-21 14:00 14.48 92400 182000 (2019) 83400 (2018) 118000 83800 84400 108000 157000 172000
2020-06-21 13:00 14.47 92300 182000 (2019) 83400 (2018) 118000 83800 84400 108000 157000 172000
2020-06-21 12:00 14.46 92200 182000 (2019) 83400 (2018) 118000 83800 84400 108000 157000 172000
2020-06-21 11:00 14.45 92200 182000 (2019) 83400 (2018) 118000 83800 84400 108000 157000 172000
2020-06-21 10:00 14.43 92000 182000 (2019) 83400 (2018) 118000 83800 84400 108000 157000 172000
2020-06-21 09:00 14.41 91800 182000 (2019) 83400 (2018) 118000 83800 84400 108000 157000 172000
2020-06-21 08:00 14.38 91600 182000 (2019) 83400 (2018) 118000 83800 84400 108000 157000 172000
2020-06-21 07:00 14.39 91600 182000 (2019) 83400 (2018) 118000 83800 84400 108000 157000 172000
2020-06-21 06:00 14.35 91300 182000 (2019) 83400 (2018) 118000 83800 84400 108000 157000 172000
2020-06-21 05:00 14.33 91100 182000 (2019) 83400 (2018) 118000 83800 84400 108000 157000 172000
2020-06-21 04:00 14.31 90900 182000 (2019) 83400 (2018) 118000 83800 84400 108000 157000 172000
2020-06-21 03:00 14.30 90900 182000 (2019) 83400 (2018) 118000 83800 84400 108000 157000 172000
2020-06-21 02:00 14.30 90900 182000 (2019) 83400 (2018) 118000 83800 84400 108000 157000 172000
2020-06-21 01:00 14.27 90600 182000 (2019) 83400 (2018) 118000 83800 84400 108000 157000 172000
2020-06-21 00:00 14.28 90700 182000 (2019) 83400 (2018) 118000 83800 84400 108000 157000 172000
2020-06-20 23:00 14.26 90500 174000 (2019) 74200 (2018) 114000 77700 82900 96400 154000 166000
2020-06-20 22:00 14.23 90300 174000 (2019) 74200 (2018) 114000 77700 82900 96400 154000 166000
2020-06-20 21:00 14.22 90200 174000 (2019) 74200 (2018) 114000 77700 82900 96400 154000 166000
2020-06-20 20:00 14.23 90300 174000 (2019) 74200 (2018) 114000 77700 82900 96400 154000 166000
2020-06-20 19:00 14.23 90300 174000 (2019) 74200 (2018) 114000 77700 82900 96400 154000 166000
2020-06-20 18:00 14.22 90200 174000 (2019) 74200 (2018) 114000 77700 82900 96400 154000 166000
2020-06-20 17:00 14.23 90300 174000 (2019) 74200 (2018) 114000 77700 82900 96400 154000 166000
2020-06-20 16:00 14.20 90000 174000 (2019) 74200 (2018) 114000 77700 82900 96400 154000 166000
2020-06-20 15:00 14.22 90200 174000 (2019) 74200 (2018) 114000 77700 82900 96400 154000 166000
2020-06-20 14:00 14.21 90100 174000 (2019) 74200 (2018) 114000 77700 82900 96400 154000 166000
2020-06-20 13:00 14.19 89900 174000 (2019) 74200 (2018) 114000 77700 82900 96400 154000 166000
2020-06-20 12:00 14.19 89900 174000 (2019) 74200 (2018) 114000 77700 82900 96400 154000 166000
2020-06-20 11:00 14.18 89800 174000 (2019) 74200 (2018) 114000 77700 82900 96400 154000 166000
2020-06-20 10:00 14.16 89700 174000 (2019) 74200 (2018) 114000 77700 82900 96400 154000 166000
2020-06-20 09:00 14.15 89600 174000 (2019) 74200 (2018) 114000 77700 82900 96400 154000 166000
2020-06-20 08:00 14.12 89300 174000 (2019) 74200 (2018) 114000 77700 82900 96400 154000 166000
2020-06-20 07:00 14.12 89300 174000 (2019) 74200 (2018) 114000 77700 82900 96400 154000 166000
2020-06-20 06:00 14.10 89100 174000 (2019) 74200 (2018) 114000 77700 82900 96400 154000 166000
2020-06-20 05:00 14.10 89100 174000 (2019) 74200 (2018) 114000 77700 82900 96400 154000 166000
2020-06-20 04:00 14.08 89000 174000 (2019) 74200 (2018) 114000 77700 82900 96400 154000 166000
2020-06-20 03:00 14.07 88900 174000 (2019) 74200 (2018) 114000 77700 82900 96400 154000 166000
2020-06-20 02:00 14.06 88800 174000 (2019) 74200 (2018) 114000 77700 82900 96400 154000 166000
2020-06-20 01:00 14.04 88600 174000 (2019) 74200 (2018) 114000 77700 82900 96400 154000 166000
2020-06-20 00:00 14.04 88600 174000 (2019) 74200 (2018) 114000 77700 82900 96400 154000 166000
2020-06-19 23:00 14.04 88600 177000 (2019) 71800 (2018) 118000 75900 82100 115000 157000 169000
2020-06-19 22:00 14.03 88600 177000 (2019) 71800 (2018) 118000 75900 82100 115000 157000 169000
2020-06-19 21:00 14.00 88300 177000 (2019) 71800 (2018) 118000 75900 82100 115000 157000 169000
2020-06-19 20:00 13.99 88200 177000 (2019) 71800 (2018) 118000 75900 82100 115000 157000 169000
2020-06-19 19:00 13.99 88200 177000 (2019) 71800 (2018) 118000 75900 82100 115000 157000 169000
2020-06-19 18:00 13.98 88100 177000 (2019) 71800 (2018) 118000 75900 82100 115000 157000 169000
2020-06-19 17:00 13.98 88100 177000 (2019) 71800 (2018) 118000 75900 82100 115000 157000 169000
2020-06-19 16:00 13.95 87900 177000 (2019) 71800 (2018) 118000 75900 82100 115000 157000 169000
2020-06-19 12:00 13.78 86500 177000 (2019) 71800 (2018) 118000 75900 82100 115000 157000 169000
2020-06-19 11:00 13.88 85600 177000 (2019) 71800 (2018) 118000 75900 82100 115000 157000 169000
2020-06-19 06:00 13.82 85100 177000 (2019) 71800 (2018) 118000 75900 82100 115000 157000 169000
2020-06-19 05:00 13.79 84900 177000 (2019) 71800 (2018) 118000 75900 82100 115000 157000 169000
2020-06-19 04:00 13.78 84800 177000 (2019) 71800 (2018) 118000 75900 82100 115000 157000 169000
2020-06-19 03:00 13.77 84700 177000 (2019) 71800 (2018) 118000 75900 82100 115000 157000 169000
2020-06-19 02:00 13.75 84600 177000 (2019) 71800 (2018) 118000 75900 82100 115000 157000 169000
2020-06-19 01:00 13.75 84600 177000 (2019) 71800 (2018) 118000 75900 82100 115000 157000 169000
2020-06-19 00:00 13.74 84500 177000 (2019) 71800 (2018) 118000 75900 82100 115000 157000 169000
2020-06-18 23:00 13.72 84300 180000 (2019) 72100 (2018) 121000 76700 83600 107000 165000 174000
2020-06-18 22:00 13.73 84400 180000 (2019) 72100 (2018) 121000 76700 83600 107000 165000 174000
2020-06-18 21:00 13.73 84400 180000 (2019) 72100 (2018) 121000 76700 83600 107000 165000 174000
2020-06-18 20:00 13.73 84400 180000 (2019) 72100 (2018) 121000 76700 83600 107000 165000 174000
2020-06-18 19:00 13.71 84200 180000 (2019) 72100 (2018) 121000 76700 83600 107000 165000 174000
2020-06-18 18:00 13.71 84200 180000 (2019) 72100 (2018) 121000 76700 83600 107000 165000 174000
2020-06-18 17:00 13.72 84300 180000 (2019) 72100 (2018) 121000 76700 83600 107000 165000 174000
2020-06-18 16:00 13.72 84300 180000 (2019) 72100 (2018) 121000 76700 83600 107000 165000 174000
2020-06-18 15:00 13.73 84400 180000 (2019) 72100 (2018) 121000 76700 83600 107000 165000 174000
2020-06-18 14:00 13.72 84300 180000 (2019) 72100 (2018) 121000 76700 83600 107000 165000 174000
2020-06-18 13:00 13.72 84300 180000 (2019) 72100 (2018) 121000 76700 83600 107000 165000 174000
2020-06-18 10:00 13.70 84100 180000 (2019) 72100 (2018) 121000 76700 83600 107000 165000 174000
2020-06-18 09:00 13.71 84200 180000 (2019) 72100 (2018) 121000 76700 83600 107000 165000 174000
2020-06-18 08:00 13.72 84300 180000 (2019) 72100 (2018) 121000 76700 83600 107000 165000 174000
2020-06-18 07:00 13.70 84100 180000 (2019) 72100 (2018) 121000 76700 83600 107000 165000 174000
2020-06-18 06:00 13.73 84400 180000 (2019) 72100 (2018) 121000 76700 83600 107000 165000 174000
2020-06-18 05:00 13.71 84200 180000 (2019) 72100 (2018) 121000 76700 83600 107000 165000 174000
2020-06-18 04:00 13.71 84200 180000 (2019) 72100 (2018) 121000 76700 83600 107000 165000 174000
2020-06-18 03:00 13.70 84100 180000 (2019) 72100 (2018) 121000 76700 83600 107000 165000 174000
2020-06-18 02:00 13.71 84200 180000 (2019) 72100 (2018) 121000 76700 83600 107000 165000 174000
2020-06-18 01:00 13.72 84300 180000 (2019) 72100 (2018) 121000 76700 83600 107000 165000 174000
2020-06-18 00:00 13.72 84300 180000 (2019) 72100 (2018) 121000 76700 83600 107000 165000 174000
2020-06-17 23:00 13.71 84200 186000 (2019) 73800 (2018) 120000 76200 79700 95300 172000 181000
2020-06-17 22:00 13.70 84100 186000 (2019) 73800 (2018) 120000 76200 79700 95300 172000 181000
2020-06-17 21:00 13.73 84400 186000 (2019) 73800 (2018) 120000 76200 79700 95300 172000 181000
2020-06-17 20:00 13.73 84400 186000 (2019) 73800 (2018) 120000 76200 79700 95300 172000 181000
2020-06-17 19:00 13.73 84400 186000 (2019) 73800 (2018) 120000 76200 79700 95300 172000 181000
2020-06-17 18:00 13.76 84600 186000 (2019) 73800 (2018) 120000 76200 79700 95300 172000 181000
2020-06-17 17:00 13.74 84500 186000 (2019) 73800 (2018) 120000 76200 79700 95300 172000 181000
2020-06-17 16:00 13.74 84500 186000 (2019) 73800 (2018) 120000 76200 79700 95300 172000 181000
2020-06-17 15:00 13.73 84400 186000 (2019) 73800 (2018) 120000 76200 79700 95300 172000 181000
2020-06-17 14:00 13.74 84500 186000 (2019) 73800 (2018) 120000 76200 79700 95300 172000 181000
2020-06-17 13:00 13.73 84400 186000 (2019) 73800 (2018) 120000 76200 79700 95300 172000 181000
2020-06-17 12:00 13.75 84600 186000 (2019) 73800 (2018) 120000 76200 79700 95300 172000 181000
2020-06-17 11:00 13.76 84600 186000 (2019) 73800 (2018) 120000 76200 79700 95300 172000 181000
2020-06-17 10:00 13.77 84700 186000 (2019) 73800 (2018) 120000 76200 79700 95300 172000 181000
2020-06-17 09:00 13.76 84600 186000 (2019) 73800 (2018) 120000 76200 79700 95300 172000 181000
2020-06-17 08:00 13.76 84600 186000 (2019) 73800 (2018) 120000 76200 79700 95300 172000 181000
2020-06-17 07:00 13.76 84600 186000 (2019) 73800 (2018) 120000 76200 79700 95300 172000 181000
2020-06-17 06:00 13.75 84600 186000 (2019) 73800 (2018) 120000 76200 79700 95300 172000 181000
2020-06-17 05:00 13.75 84600 186000 (2019) 73800 (2018) 120000 76200 79700 95300 172000 181000
2020-06-17 04:00 13.75 84600 186000 (2019) 73800 (2018) 120000 76200 79700 95300 172000 181000
2020-06-17 03:00 13.74 84500 186000 (2019) 73800 (2018) 120000 76200 79700 95300 172000 181000
2020-06-17 02:00 13.73 84400 186000 (2019) 73800 (2018) 120000 76200 79700 95300 172000 181000
2020-06-17 01:00 13.73 84400 186000 (2019) 73800 (2018) 120000 76200 79700 95300 172000 181000
2020-06-17 00:00 13.75 84600 186000 (2019) 73800 (2018) 120000 76200 79700 95300 172000 181000
2020-06-16 23:00 13.76 84600 193000 (2019) 76900 (2018) 119000 77900 79400 97000 169000 183000
2020-06-16 22:00 13.73 84400 193000 (2019) 76900 (2018) 119000 77900 79400 97000 169000 183000
2020-06-16 21:00 13.76 84600 193000 (2019) 76900 (2018) 119000 77900 79400 97000 169000 183000
2020-06-16 20:00 13.76 84600 193000 (2019) 76900 (2018) 119000 77900 79400 97000 169000 183000
2020-06-16 19:00 13.77 84700 193000 (2019) 76900 (2018) 119000 77900 79400 97000 169000 183000
2020-06-16 18:00 13.76 84600 193000 (2019) 76900 (2018) 119000 77900 79400 97000 169000 183000
2020-06-16 17:00 13.75 84600 193000 (2019) 76900 (2018) 119000 77900 79400 97000 169000 183000
2020-06-16 16:00 13.78 84800 193000 (2019) 76900 (2018) 119000 77900 79400 97000 169000 183000
2020-06-16 15:00 13.78 84800 193000 (2019) 76900 (2018) 119000 77900 79400 97000 169000 183000
2020-06-16 14:00 13.80 85000 193000 (2019) 76900 (2018) 119000 77900 79400 97000 169000 183000
2020-06-16 13:00 13.79 84900 193000 (2019) 76900 (2018) 119000 77900 79400 97000 169000 183000
2020-06-16 12:00 13.82 85100 193000 (2019) 76900 (2018) 119000 77900 79400 97000 169000 183000
2020-06-16 11:00 13.83 85200 193000 (2019) 76900 (2018) 119000 77900 79400 97000 169000 183000
2020-06-16 10:00 13.82 85100 193000 (2019) 76900 (2018) 119000 77900 79400 97000 169000 183000
2020-06-16 09:00 13.84 85300 193000 (2019) 76900 (2018) 119000 77900 79400 97000 169000 183000
2020-06-16 08:00 13.83 85200 193000 (2019) 76900 (2018) 119000 77900 79400 97000 169000 183000
2020-06-16 07:00 13.83 85200 193000 (2019) 76900 (2018) 119000 77900 79400 97000 169000 183000
2020-06-16 06:00 13.85 85400 193000 (2019) 76900 (2018) 119000 77900 79400 97000 169000 183000
2020-06-16 05:00 13.85 85400 193000 (2019) 76900 (2018) 119000 77900 79400 97000 169000 183000
2020-06-16 04:00 13.84 85300 193000 (2019) 76900 (2018) 119000 77900 79400 97000 169000 183000
2020-06-16 03:00 13.86 85500 193000 (2019) 76900 (2018) 119000 77900 79400 97000 169000 183000
2020-06-16 02:00 13.85 85400 193000 (2019) 76900 (2018) 119000 77900 79400 97000 169000 183000
2020-06-16 01:00 13.86 85500 193000 (2019) 76900 (2018) 119000 77900 79400 97000 169000 183000
2020-06-16 00:00 13.85 85400 193000 (2019) 76900 (2018) 119000 77900 79400 97000 169000 183000
2020-06-15 23:00 13.84 85300 200000 (2019) 81500 (2017) 125000 81700 82000 102000 180000 192000
2020-06-15 22:00 13.84 85300 200000 (2019) 81500 (2017) 125000 81700 82000 102000 180000 192000
2020-06-15 21:00 13.83 85200 200000 (2019) 81500 (2017) 125000 81700 82000 102000 180000 192000
2020-06-15 20:00 13.80 85000 200000 (2019) 81500 (2017) 125000 81700 82000 102000 180000 192000
2020-06-15 19:00 13.78 84800 200000 (2019) 81500 (2017) 125000 81700 82000 102000 180000 192000
2020-06-15 18:00 13.75 84600 200000 (2019) 81500 (2017) 125000 81700 82000 102000 180000 192000
2020-06-15 17:00 13.76 84600 200000 (2019) 81500 (2017) 125000 81700 82000 102000 180000 192000
2020-06-15 16:00 13.72 84300 200000 (2019) 81500 (2017) 125000 81700 82000 102000 180000 192000
2020-06-15 15:00 13.70 84100 200000 (2019) 81500 (2017) 125000 81700 82000 102000 180000 192000
2020-06-15 14:00 13.70 84100 200000 (2019) 81500 (2017) 125000 81700 82000 102000 180000 192000
2020-06-15 13:00 13.68 84000 200000 (2019) 81500 (2017) 125000 81700 82000 102000 180000 192000
2020-06-15 12:00 13.65 83700 200000 (2019) 81500 (2017) 125000 81700 82000 102000 180000 192000
2020-06-15 11:00 13.63 83600 200000 (2019) 81500 (2017) 125000 81700 82000 102000 180000 192000
2020-06-15 10:00 13.62 83500 200000 (2019) 81500 (2017) 125000 81700 82000 102000 180000 192000
2020-06-15 09:00 13.61 83400 200000 (2019) 81500 (2017) 125000 81700 82000 102000 180000 192000
2020-06-15 08:00 13.60 83300 200000 (2019) 81500 (2017) 125000 81700 82000 102000 180000 192000
2020-06-15 07:00 13.58 83200 200000 (2019) 81500 (2017) 125000 81700 82000 102000 180000 192000
2020-06-15 06:00 13.59 83300 200000 (2019) 81500 (2017) 125000 81700 82000 102000 180000 192000
2020-06-15 05:00 13.57 83100 200000 (2019) 81500 (2017) 125000 81700 82000 102000 180000 192000
2020-06-15 04:00 13.58 83200 200000 (2019) 81500 (2017) 125000 81700 82000 102000 180000 192000
2020-06-15 03:00 13.58 83200 200000 (2019) 81500 (2017) 125000 81700 82000 102000 180000 192000
2020-06-15 02:00 13.57 83100 200000 (2019) 81500 (2017) 125000 81700 82000 102000 180000 192000
2020-06-15 01:00 13.55 82900 200000 (2019) 81500 (2017) 125000 81700 82000 102000 180000 192000
2020-06-15 00:00 13.55 82900 200000 (2019) 81500 (2017) 125000 81700 82000 102000 180000 192000
2020-06-14 23:00 13.56 83000 208000 (2019) 81900 (2017) 135000 82900 84300 107000 199000 204000
2020-06-14 22:00 13.58 83200 208000 (2019) 81900 (2017) 135000 82900 84300 107000 199000 204000
2020-06-14 21:00 13.59 83300 208000 (2019) 81900 (2017) 135000 82900 84300 107000 199000 204000
2020-06-14 20:00 13.60 83300 208000 (2019) 81900 (2017) 135000 82900 84300 107000 199000 204000
2020-06-14 19:00 13.61 83400 208000 (2019) 81900 (2017) 135000 82900 84300 107000 199000 204000
2020-06-14 18:00 13.62 83500 208000 (2019) 81900 (2017) 135000 82900 84300 107000 199000 204000
2020-06-14 17:00 13.64 83700 208000 (2019) 81900 (2017) 135000 82900 84300 107000 199000 204000
2020-06-14 16:00 13.64 83700 208000 (2019) 81900 (2017) 135000 82900 84300 107000 199000 204000
2020-06-14 15:00 13.67 83900 208000 (2019) 81900 (2017) 135000 82900 84300 107000 199000 204000
2020-06-14 14:00 13.68 84000 208000 (2019) 81900 (2017) 135000 82900 84300 107000 199000 204000
2020-06-14 13:00 13.69 84100 208000 (2019) 81900 (2017) 135000 82900 84300 107000 199000 204000
2020-06-14 12:00 13.73 84400 208000 (2019) 81900 (2017) 135000 82900 84300 107000 199000 204000
2020-06-14 11:00 13.77 84700 208000 (2019) 81900 (2017) 135000 82900 84300 107000 199000 204000
2020-06-14 10:00 13.79 84900 208000 (2019) 81900 (2017) 135000 82900 84300 107000 199000 204000
2020-06-14 08:00 13.87 85500 208000 (2019) 81900 (2017) 135000 82900 84300 107000 199000 204000
2020-06-14 07:00 13.90 85800 208000 (2019) 81900 (2017) 135000 82900 84300 107000 199000 204000
2020-06-14 06:00 13.94 86100 208000 (2019) 81900 (2017) 135000 82900 84300 107000 199000 204000
2020-06-14 05:00 13.97 86400 208000 (2019) 81900 (2017) 135000 82900 84300 107000 199000 204000
2020-06-14 04:00 14.01 86700 208000 (2019) 81900 (2017) 135000 82900 84300 107000 199000 204000
2020-06-14 03:00 14.08 87300 208000 (2019) 81900 (2017) 135000 82900 84300 107000 199000 204000
2020-06-14 02:00 14.11 87500 208000 (2019) 81900 (2017) 135000 82900 84300 107000 199000 204000
2020-06-14 01:00 14.14 87800 208000 (2019) 81900 (2017) 135000 82900 84300 107000 199000 204000
2020-06-14 00:00 14.19 88200 208000 (2019) 81900 (2017) 135000 82900 84300 107000 199000 204000
2020-06-13 23:00 14.23 88600 217000 (2019) 78000 (2018) 136000 79300 81200 109000 203000 211000
2020-06-13 22:00 14.28 89000 217000 (2019) 78000 (2018) 136000 79300 81200 109000 203000 211000
2020-06-13 21:00 14.31 89200 217000 (2019) 78000 (2018) 136000 79300 81200 109000 203000 211000
2020-06-13 20:00 14.37 89700 217000 (2019) 78000 (2018) 136000 79300 81200 109000 203000 211000
2020-06-13 19:00 14.41 90100 217000 (2019) 78000 (2018) 136000 79300 81200 109000 203000 211000
2020-06-13 18:00 14.45 90400 217000 (2019) 78000 (2018) 136000 79300 81200 109000 203000 211000
2020-06-13 17:00 14.48 90700 217000 (2019) 78000 (2018) 136000 79300 81200 109000 203000 211000
2020-06-13 16:00 14.54 91200 217000 (2019) 78000 (2018) 136000 79300 81200 109000 203000 211000
2020-06-13 15:00 14.60 91700 217000 (2019) 78000 (2018) 136000 79300 81200 109000 203000 211000
2020-06-13 14:00 14.62 91900 217000 (2019) 78000 (2018) 136000 79300 81200 109000 203000 211000
2020-06-13 13:00 14.66 92200 217000 (2019) 78000 (2018) 136000 79300 81200 109000 203000 211000
2020-06-13 12:00 14.70 92600 217000 (2019) 78000 (2018) 136000 79300 81200 109000 203000 211000
2020-06-13 11:00 14.73 92900 217000 (2019) 78000 (2018) 136000 79300 81200 109000 203000 211000
2020-06-13 10:00 14.76 93100 217000 (2019) 78000 (2018) 136000 79300 81200 109000 203000 211000
2020-06-13 08:00 14.83 93700 217000 (2019) 78000 (2018) 136000 79300 81200 109000 203000 211000
2020-06-13 07:00 14.87 94100 217000 (2019) 78000 (2018) 136000 79300 81200 109000 203000 211000
2020-06-13 06:00 14.89 94300 217000 (2019) 78000 (2018) 136000 79300 81200 109000 203000 211000
2020-06-13 05:00 14.90 94400 217000 (2019) 78000 (2018) 136000 79300 81200 109000 203000 211000
2020-06-13 04:00 14.93 94600 217000 (2019) 78000 (2018) 136000 79300 81200 109000 203000 211000
2020-06-13 03:00 14.98 95100 217000 (2019) 78000 (2018) 136000 79300 81200 109000 203000 211000
2020-06-13 02:00 15.01 95300 217000 (2019) 78000 (2018) 136000 79300 81200 109000 203000 211000
2020-06-13 01:00 15.03 95500 217000 (2019) 78000 (2018) 136000 79300 81200 109000 203000 211000
2020-06-13 00:00 15.04 95600 217000 (2019) 78000 (2018) 136000 79300 81200 109000 203000 211000
2020-06-12 23:00 15.07 95900 226000 (2019) 74500 (2018) 125000 76800 80300 112000 176000 206000
2020-06-12 22:00 15.07 95900 226000 (2019) 74500 (2018) 125000 76800 80300 112000 176000 206000
2020-06-12 21:00 15.08 96000 226000 (2019) 74500 (2018) 125000 76800 80300 112000 176000 206000
2020-06-12 20:00 15.10 96100 226000 (2019) 74500 (2018) 125000 76800 80300 112000 176000 206000
2020-06-12 19:00 15.06 95800 226000 (2019) 74500 (2018) 125000 76800 80300 112000 176000 206000
2020-06-12 18:00 15.05 95700 226000 (2019) 74500 (2018) 125000 76800 80300 112000 176000 206000
2020-06-12 17:00 15.07 95900 226000 (2019) 74500 (2018) 125000 76800 80300 112000 176000 206000
2020-06-12 16:00 15.04 95600 226000 (2019) 74500 (2018) 125000 76800 80300 112000 176000 206000
2020-06-12 15:00 15.00 95200 226000 (2019) 74500 (2018) 125000 76800 80300 112000 176000 206000
2020-06-12 14:00 14.94 94700 226000 (2019) 74500 (2018) 125000 76800 80300 112000 176000 206000
2020-06-12 13:00 14.94 94700 226000 (2019) 74500 (2018) 125000 76800 80300 112000 176000 206000
2020-06-12 12:00 14.90 94400 226000 (2019) 74500 (2018) 125000 76800 80300 112000 176000 206000
2020-06-12 11:00 14.86 94000 226000 (2019) 74500 (2018) 125000 76800 80300 112000 176000 206000
2020-06-12 10:00 14.80 93500 226000 (2019) 74500 (2018) 125000 76800 80300 112000 176000 206000
2020-06-12 09:00 14.75 93000 226000 (2019) 74500 (2018) 125000 76800 80300 112000 176000 206000
2020-06-12 08:00 14.68 92400 226000 (2019) 74500 (2018) 125000 76800 80300 112000 176000 206000
2020-06-12 07:00 14.60 91700 226000 (2019) 74500 (2018) 125000 76800 80300 112000 176000 206000
2020-06-12 06:00 14.56 91400 226000 (2019) 74500 (2018) 125000 76800 80300 112000 176000 206000
2020-06-12 05:00 14.48 90700 226000 (2019) 74500 (2018) 125000 76800 80300 112000 176000 206000
2020-06-12 04:00 14.42 90200 226000 (2019) 74500 (2018) 125000 76800 80300 112000 176000 206000
2020-06-12 03:00 14.34 89500 226000 (2019) 74500 (2018) 125000 76800 80300 112000 176000 206000
2020-06-12 02:00 14.27 88900 226000 (2019) 74500 (2018) 125000 76800 80300 112000 176000 206000
2020-06-12 01:00 14.22 88500 226000 (2019) 74500 (2018) 125000 76800 80300 112000 176000 206000
2020-06-12 00:00 14.14 87800 226000 (2019) 74500 (2018) 125000 76800 80300 112000 176000 206000
2020-06-11 23:00 14.06 87100 234000 (2019) 73400 (2018) 124000 76200 80400 110000 174000 210000
2020-06-11 22:00 13.98 86500 234000 (2019) 73400 (2018) 124000 76200 80400 110000 174000 210000
2020-06-11 21:00 13.91 85900 234000 (2019) 73400 (2018) 124000 76200 80400 110000 174000 210000
2020-06-11 20:00 13.84 85300 234000 (2019) 73400 (2018) 124000 76200 80400 110000 174000 210000
2020-06-11 19:00 13.77 84700 234000 (2019) 73400 (2018) 124000 76200 80400 110000 174000 210000
2020-06-11 18:00 13.71 84200 234000 (2019) 73400 (2018) 124000 76200 80400 110000 174000 210000
2020-06-11 17:00 13.66 83800 234000 (2019) 73400 (2018) 124000 76200 80400 110000 174000 210000
2020-06-11 16:00 13.60 83300 234000 (2019) 73400 (2018) 124000 76200 80400 110000 174000 210000
2020-06-11 15:00 13.55 82900 234000 (2019) 73400 (2018) 124000 76200 80400 110000 174000 210000
2020-06-11 14:00 13.51 82600 234000 (2019) 73400 (2018) 124000 76200 80400 110000 174000 210000
2020-06-11 13:00 13.48 82400 234000 (2019) 73400 (2018) 124000 76200 80400 110000 174000 210000
2020-06-11 12:00 13.45 82900 234000 (2019) 73400 (2018) 124000 76200 80400 110000 174000 210000
2020-06-11 11:00 13.42 82700 234000 (2019) 73400 (2018) 124000 76200 80400 110000 174000 210000
2020-06-11 10:00 13.41 82600 234000 (2019) 73400 (2018) 124000 76200 80400 110000 174000 210000
2020-06-11 09:00 13.39 82400 234000 (2019) 73400 (2018) 124000 76200 80400 110000 174000 210000
2020-06-11 08:00 13.38 82400 234000 (2019) 73400 (2018) 124000 76200 80400 110000 174000 210000
2020-06-11 07:00 13.37 82300 234000 (2019) 73400 (2018) 124000 76200 80400 110000 174000 210000
2020-06-11 06:00 13.37 82300 234000 (2019) 73400 (2018) 124000 76200 80400 110000 174000 210000
2020-06-11 05:00 13.34 82000 234000 (2019) 73400 (2018) 124000 76200 80400 110000 174000 210000
2020-06-11 04:00 13.34 82000 234000 (2019) 73400 (2018) 124000 76200 80400 110000 174000 210000
2020-06-11 03:00 13.35 82100 234000 (2019) 73400 (2018) 124000 76200 80400 110000 174000 210000
2020-06-11 02:00 13.34 82000 234000 (2019) 73400 (2018) 124000 76200 80400 110000 174000 210000
2020-06-11 01:00 13.34 82000 234000 (2019) 73400 (2018) 124000 76200 80400 110000 174000 210000
2020-06-11 00:00 13.32 81900 234000 (2019) 73400 (2018) 124000 76200 80400 110000 174000 210000
2020-06-10 23:00 13.33 82000 241000 (2019) 72400 (2018) 126000 75800 80900 110000 178000 216000
2020-06-10 22:00 13.32 81900 241000 (2019) 72400 (2018) 126000 75800 80900 110000 178000 216000
2020-06-10 21:00 13.31 81800 241000 (2019) 72400 (2018) 126000 75800 80900 110000 178000 216000
2020-06-10 20:00 13.32 81900 241000 (2019) 72400 (2018) 126000 75800 80900 110000 178000 216000
2020-06-10 19:00 13.31 81800 241000 (2019) 72400 (2018) 126000 75800 80900 110000 178000 216000
2020-06-10 13:00 13.30 81700 241000 (2019) 72400 (2018) 126000 75800 80900 110000 178000 216000
2020-06-10 08:00 13.38 82400 241000 (2019) 72400 (2018) 126000 75800 80900 110000 178000 216000
2020-06-10 07:00 13.42 82700 241000 (2019) 72400 (2018) 126000 75800 80900 110000 178000 216000
2020-06-10 06:00 13.41 82600 241000 (2019) 72400 (2018) 126000 75800 80900 110000 178000 216000
2020-06-10 05:00 13.43 82800 241000 (2019) 72400 (2018) 126000 75800 80900 110000 178000 216000
2020-06-10 04:00 13.45 82900 241000 (2019) 72400 (2018) 126000 75800 80900 110000 178000 216000
2020-06-10 03:00 13.46 83000 241000 (2019) 72400 (2018) 126000 75800 80900 110000 178000 216000
2020-06-10 02:00 13.47 83100 241000 (2019) 72400 (2018) 126000 75800 80900 110000 178000 216000
2020-06-10 01:00 13.49 83300 241000 (2019) 72400 (2018) 126000 75800 80900 110000 178000 216000
2020-06-10 00:00 13.50 83300 241000 (2019) 72400 (2018) 126000 75800 80900 110000 178000 216000
2020-06-09 23:00 13.51 83400 249000 (2019) 73000 (2018) 131000 76400 81400 120000 185000 223000
2020-06-09 22:00 13.50 83300 249000 (2019) 73000 (2018) 131000 76400 81400 120000 185000 223000
2020-06-09 21:00 13.50 83300 249000 (2019) 73000 (2018) 131000 76400 81400 120000 185000 223000
2020-06-09 20:00 13.53 83600 249000 (2019) 73000 (2018) 131000 76400 81400 120000 185000 223000
2020-06-09 19:00 13.52 83500 249000 (2019) 73000 (2018) 131000 76400 81400 120000 185000 223000
2020-06-09 18:00 13.53 83600 249000 (2019) 73000 (2018) 131000 76400 81400 120000 185000 223000
2020-06-09 17:00 13.55 83700 249000 (2019) 73000 (2018) 131000 76400 81400 120000 185000 223000
2020-06-09 16:00 13.58 84000 249000 (2019) 73000 (2018) 131000 76400 81400 120000 185000 223000
2020-06-09 15:00 13.57 83900 249000 (2019) 73000 (2018) 131000 76400 81400 120000 185000 223000
2020-06-09 14:00 13.58 84000 249000 (2019) 73000 (2018) 131000 76400 81400 120000 185000 223000
2020-06-09 13:00 13.58 84000 249000 (2019) 73000 (2018) 131000 76400 81400 120000 185000 223000
2020-06-09 12:00 13.60 84100 249000 (2019) 73000 (2018) 131000 76400 81400 120000 185000 223000
2020-06-09 11:00 13.61 84200 249000 (2019) 73000 (2018) 131000 76400 81400 120000 185000 223000
2020-06-09 10:00 13.63 84400 249000 (2019) 73000 (2018) 131000 76400 81400 120000 185000 223000
2020-06-09 09:00 13.65 84600 249000 (2019) 73000 (2018) 131000 76400 81400 120000 185000 223000
2020-06-09 08:00 13.67 84700 249000 (2019) 73000 (2018) 131000 76400 81400 120000 185000 223000
2020-06-09 07:00 13.68 84800 249000 (2019) 73000 (2018) 131000 76400 81400 120000 185000 223000
2020-06-09 06:00 13.71 85000 249000 (2019) 73000 (2018) 131000 76400 81400 120000 185000 223000
2020-06-09 05:00 13.72 85100 249000 (2019) 73000 (2018) 131000 76400 81400 120000 185000 223000
2020-06-09 04:00 13.74 85300 249000 (2019) 73000 (2018) 131000 76400 81400 120000 185000 223000
2020-06-09 03:00 13.76 85500 249000 (2019) 73000 (2018) 131000 76400 81400 120000 185000 223000
2020-06-09 02:00 13.78 85600 249000 (2019) 73000 (2018) 131000 76400 81400 120000 185000 223000
2020-06-09 01:00 13.79 85700 249000 (2019) 73000 (2018) 131000 76400 81400 120000 185000 223000
2020-06-09 00:00 13.80 85800 249000 (2019) 73000 (2018) 131000 76400 81400 120000 185000 223000
2020-06-08 23:00 13.83 86000 255000 (2019) 73300 (2018) 140000 76600 81500 122000 207000 236000
2020-06-08 22:00 13.85 86200 255000 (2019) 73300 (2018) 140000 76600 81500 122000 207000 236000
2020-06-08 21:00 13.86 86300 255000 (2019) 73300 (2018) 140000 76600 81500 122000 207000 236000
2020-06-08 20:00 13.88 86500 255000 (2019) 73300 (2018) 140000 76600 81500 122000 207000 236000
2020-06-08 19:00 13.90 86600 255000 (2019) 73300 (2018) 140000 76600 81500 122000 207000 236000
2020-06-08 18:00 13.90 86600 255000 (2019) 73300 (2018) 140000 76600 81500 122000 207000 236000
2020-06-08 17:00 13.91 86700 255000 (2019) 73300 (2018) 140000 76600 81500 122000 207000 236000
2020-06-08 16:00 13.95 87000 255000 (2019) 73300 (2018) 140000 76600 81500 122000 207000 236000
2020-06-08 15:00 13.97 87200 255000 (2019) 73300 (2018) 140000 76600 81500 122000 207000 236000
2020-06-08 14:00 13.99 87400 255000 (2019) 73300 (2018) 140000 76600 81500 122000 207000 236000
2020-06-08 13:00 13.99 87400 255000 (2019) 73300 (2018) 140000 76600 81500 122000 207000 236000
2020-06-08 12:00 14.02 87600 255000 (2019) 73300 (2018) 140000 76600 81500 122000 207000 236000
2020-06-08 11:00 14.04 87800 255000 (2019) 73300 (2018) 140000 76600 81500 122000 207000 236000
2020-06-08 10:00 14.07 88000 255000 (2019) 73300 (2018) 140000 76600 81500 122000 207000 236000
2020-06-08 09:00 14.08 88100 255000 (2019) 73300 (2018) 140000 76600 81500 122000 207000 236000
2020-06-08 08:00 14.12 88500 255000 (2019) 73300 (2018) 140000 76600 81500 122000 207000 236000
2020-06-08 07:00 14.13 88600 255000 (2019) 73300 (2018) 140000 76600 81500 122000 207000 236000
2020-06-08 06:00 14.14 88600 255000 (2019) 73300 (2018) 140000 76600 81500 122000 207000 236000
2020-06-08 05:00 14.16 88800 255000 (2019) 73300 (2018) 140000 76600 81500 122000 207000 236000
2020-06-08 04:00 14.20 89100 255000 (2019) 73300 (2018) 140000 76600 81500 122000 207000 236000
2020-06-08 03:00 14.23 89400 255000 (2019) 73300 (2018) 140000 76600 81500 122000 207000 236000
2020-06-08 02:00 14.26 89700 255000 (2019) 73300 (2018) 140000 76600 81500 122000 207000 236000
2020-06-08 01:00 14.29 89900 255000 (2019) 73300 (2018) 140000 76600 81500 122000 207000 236000
2020-06-08 00:00 14.33 90300 255000 (2019) 73300 (2018) 140000 76600 81500 122000 207000 236000
2020-06-07 23:00 14.35 90400 259000 (2019) 74600 (2018) 153000 77800 82700 127000 237000 250000
2020-06-07 22:00 14.37 90600 259000 (2019) 74600 (2018) 153000 77800 82700 127000 237000 250000
2020-06-07 21:00 14.42 91000 259000 (2019) 74600 (2018) 153000 77800 82700 127000 237000 250000
2020-06-07 20:00 14.46 91400 259000 (2019) 74600 (2018) 153000 77800 82700 127000 237000 250000
2020-06-07 19:00 14.47 91500 259000 (2019) 74600 (2018) 153000 77800 82700 127000 237000 250000
2020-06-07 18:00 14.51 91800 259000 (2019) 74600 (2018) 153000 77800 82700 127000 237000 250000
2020-06-07 17:00 14.55 92200 259000 (2019) 74600 (2018) 153000 77800 82700 127000 237000 250000
2020-06-07 16:00 14.57 92300 259000 (2019) 74600 (2018) 153000 77800 82700 127000 237000 250000
2020-06-07 15:00 14.59 92500 259000 (2019) 74600 (2018) 153000 77800 82700 127000 237000 250000
2020-06-07 14:00 14.62 92800 259000 (2019) 74600 (2018) 153000 77800 82700 127000 237000 250000
2020-06-07 13:00 14.65 93000 259000 (2019) 74600 (2018) 153000 77800 82700 127000 237000 250000
2020-06-07 12:00 14.69 93400 259000 (2019) 74600 (2018) 153000 77800 82700 127000 237000 250000
2020-06-07 11:00 14.72 93600 259000 (2019) 74600 (2018) 153000 77800 82700 127000 237000 250000
2020-06-07 10:00 14.75 93900 259000 (2019) 74600 (2018) 153000 77800 82700 127000 237000 250000
2020-06-07 09:00 14.80 94400 259000 (2019) 74600 (2018) 153000 77800 82700 127000 237000 250000
2020-06-07 08:00 14.82 94500 259000 (2019) 74600 (2018) 153000 77800 82700 127000 237000 250000
2020-06-07 07:00 14.87 95000 259000 (2019) 74600 (2018) 153000 77800 82700 127000 237000 250000
2020-06-07 06:00 14.88 95100 259000 (2019) 74600 (2018) 153000 77800 82700 127000 237000 250000
2020-06-07 05:00 14.90 95200 259000 (2019) 74600 (2018) 153000 77800 82700 127000 237000 250000
2020-06-07 04:00 14.94 95600 259000 (2019) 74600 (2018) 153000 77800 82700 127000 237000 250000
2020-06-07 03:00 14.96 95800 259000 (2019) 74600 (2018) 153000 77800 82700 127000 237000 250000
2020-06-07 02:00 15.00 96100 259000 (2019) 74600 (2018) 153000 77800 82700 127000 237000 250000
2020-06-07 01:00 15.02 96300 259000 (2019) 74600 (2018) 153000 77800 82700 127000 237000 250000
2020-06-07 00:00 15.05 96600 259000 (2019) 74600 (2018) 153000 77800 82700 127000 237000 250000
2020-06-06 23:00 15.08 96800 267000 (2019) 76800 (2018) 159000 80100 85000 132000 246000 259000
2020-06-06 22:00 15.10 97000 267000 (2019) 76800 (2018) 159000 80100 85000 132000 246000 259000
2020-06-06 21:00 15.14 97400 267000 (2019) 76800 (2018) 159000 80100 85000 132000 246000 259000
2020-06-06 20:00 15.18 97800 267000 (2019) 76800 (2018) 159000 80100 85000 132000 246000 259000
2020-06-06 19:00 15.19 97800 267000 (2019) 76800 (2018) 159000 80100 85000 132000 246000 259000
2020-06-06 18:00 15.20 97900 267000 (2019) 76800 (2018) 159000 80100 85000 132000 246000 259000
2020-06-06 17:00 15.24 98300 267000 (2019) 76800 (2018) 159000 80100 85000 132000 246000 259000
2020-06-06 16:00 15.26 98500 267000 (2019) 76800 (2018) 159000 80100 85000 132000 246000 259000
2020-06-06 15:00 15.29 98800 267000 (2019) 76800 (2018) 159000 80100 85000 132000 246000 259000
2020-06-06 14:00 15.31 98900 267000 (2019) 76800 (2018) 159000 80100 85000 132000 246000 259000
2020-06-06 13:00 15.34 99200 267000 (2019) 76800 (2018) 159000 80100 85000 132000 246000 259000
2020-06-06 12:00 15.37 99500 267000 (2019) 76800 (2018) 159000 80100 85000 132000 246000 259000
2020-06-06 09:00 15.41 99900 267000 (2019) 76800 (2018) 159000 80100 85000 132000 246000 259000
2020-06-06 08:00 15.43 100000 267000 (2019) 76800 (2018) 159000 80100 85000 132000 246000 259000
2020-06-06 07:00 15.46 100000 267000 (2019) 76800 (2018) 159000 80100 85000 132000 246000 259000
2020-06-06 06:00 15.47 100000 267000 (2019) 76800 (2018) 159000 80100 85000 132000 246000 259000
2020-06-06 05:00 15.50 101000 267000 (2019) 76800 (2018) 159000 80100 85000 132000 246000 259000
2020-06-06 04:00 15.51 101000 267000 (2019) 76800 (2018) 159000 80100 85000 132000 246000 259000
2020-06-06 03:00 15.51 101000 267000 (2019) 76800 (2018) 159000 80100 85000 132000 246000 259000
2020-06-06 02:00 15.51 101000 267000 (2019) 76800 (2018) 159000 80100 85000 132000 246000 259000
2020-06-06 01:00 15.56 101000 267000 (2019) 76800 (2018) 159000 80100 85000 132000 246000 259000
2020-06-06 00:00 15.54 101000 267000 (2019) 76800 (2018) 159000 80100 85000 132000 246000 259000
2020-06-05 23:00 15.56 101000 276000 (2019) 78200 (2018) 152000 81800 87200 135000 226000 256000
2020-06-05 22:00 15.57 101000 276000 (2019) 78200 (2018) 152000 81800 87200 135000 226000 256000
2020-06-05 21:00 15.58 101000 276000 (2019) 78200 (2018) 152000 81800 87200 135000 226000 256000
2020-06-05 20:00 15.59 102000 276000 (2019) 78200 (2018) 152000 81800 87200 135000 226000 256000
2020-06-05 19:00 15.60 102000 276000 (2019) 78200 (2018) 152000 81800 87200 135000 226000 256000
2020-06-05 18:00 15.60 102000 276000 (2019) 78200 (2018) 152000 81800 87200 135000 226000 256000
2020-06-05 17:00 15.60 102000 276000 (2019) 78200 (2018) 152000 81800 87200 135000 226000 256000
2020-06-05 14:00 15.55 101000 276000 (2019) 78200 (2018) 152000 81800 87200 135000 226000 256000
2020-06-05 13:00 15.53 101000 276000 (2019) 78200 (2018) 152000 81800 87200 135000 226000 256000
2020-06-05 12:00 15.51 101000 276000 (2019) 78200 (2018) 152000 81800 87200 135000 226000 256000
2020-06-05 11:00 15.49 101000 276000 (2019) 78200 (2018) 152000 81800 87200 135000 226000 256000
2020-06-05 10:00 15.43 100000 276000 (2019) 78200 (2018) 152000 81800 87200 135000 226000 256000
2020-06-05 09:00 15.44 100000 276000 (2019) 78200 (2018) 152000 81800 87200 135000 226000 256000
2020-06-05 08:00 15.42 99900 276000 (2019) 78200 (2018) 152000 81800 87200 135000 226000 256000
2020-06-05 06:00 15.37 99500 276000 (2019) 78200 (2018) 152000 81800 87200 135000 226000 256000
2020-06-05 05:00 15.37 99500 276000 (2019) 78200 (2018) 152000 81800 87200 135000 226000 256000
2020-06-05 04:00 15.36 99400 276000 (2019) 78200 (2018) 152000 81800 87200 135000 226000 256000
2020-06-05 03:00 15.37 99500 276000 (2019) 78200 (2018) 152000 81800 87200 135000 226000 256000
2020-06-05 02:00 15.38 99600 276000 (2019) 78200 (2018) 152000 81800 87200 135000 226000 256000
2020-06-05 01:00 15.40 99800 276000 (2019) 78200 (2018) 152000 81800 87200 135000 226000 256000
2020-06-05 00:00 15.41 99900 276000 (2019) 78200 (2018) 152000 81800 87200 135000 226000 256000
2020-06-04 23:00 15.41 99900 287000 (2019) 76300 (2018) 145000 80700 87200 128000 211000 257000
2020-06-04 22:00 15.41 99900 287000 (2019) 76300 (2018) 145000 80700 87200 128000 211000 257000
2020-06-04 21:00 15.41 99900 287000 (2019) 76300 (2018) 145000 80700 87200 128000 211000 257000
2020-06-04 20:00 15.42 99900 287000 (2019) 76300 (2018) 145000 80700 87200 128000 211000 257000
2020-06-04 19:00 15.43 100000 287000 (2019) 76300 (2018) 145000 80700 87200 128000 211000 257000
2020-06-04 18:00 15.44 100000 287000 (2019) 76300 (2018) 145000 80700 87200 128000 211000 257000
2020-06-04 17:00 15.44 100000 287000 (2019) 76300 (2018) 145000 80700 87200 128000 211000 257000
2020-06-04 16:00 15.45 100000 287000 (2019) 76300 (2018) 145000 80700 87200 128000 211000 257000
2020-06-04 15:00 15.47 100000 287000 (2019) 76300 (2018) 145000 80700 87200 128000 211000 257000
2020-06-04 14:00 15.50 101000 287000 (2019) 76300 (2018) 145000 80700 87200 128000 211000 257000
2020-06-04 13:00 15.50 101000 287000 (2019) 76300 (2018) 145000 80700 87200 128000 211000 257000
2020-06-04 12:00 15.50 101000 287000 (2019) 76300 (2018) 145000 80700 87200 128000 211000 257000
2020-06-04 11:00 15.51 101000 287000 (2019) 76300 (2018) 145000 80700 87200 128000 211000 257000
2020-06-04 10:00 15.50 101000 287000 (2019) 76300 (2018) 145000 80700 87200 128000 211000 257000
2020-06-04 09:00 15.48 100000 287000 (2019) 76300 (2018) 145000 80700 87200 128000 211000 257000
2020-06-04 08:00 15.46 100000 287000 (2019) 76300 (2018) 145000 80700 87200 128000 211000 257000
2020-06-04 07:00 15.45 100000 287000 (2019) 76300 (2018) 145000 80700 87200 128000 211000 257000
2020-06-04 06:00 15.42 99900 287000 (2019) 76300 (2018) 145000 80700 87200 128000 211000 257000
2020-06-04 05:00 15.39 99700 287000 (2019) 76300 (2018) 145000 80700 87200 128000 211000 257000
2020-06-04 04:00 15.38 99600 287000 (2019) 76300 (2018) 145000 80700 87200 128000 211000 257000
2020-06-04 03:00 15.34 99200 287000 (2019) 76300 (2018) 145000 80700 87200 128000 211000 257000
2020-06-04 02:00 15.25 98400 287000 (2019) 76300 (2018) 145000 80700 87200 128000 211000 257000
2020-06-04 01:00 15.29 98800 287000 (2019) 76300 (2018) 145000 80700 87200 128000 211000 257000
2020-06-04 00:00 15.31 98900 287000 (2019) 76300 (2018) 145000 80700 87200 128000 211000 257000
2020-06-03 23:00 15.34 99200 300000 (2019) 75000 (2018) 142000 79900 87200 102000 216000 267000
2020-06-03 22:00 15.39 99700 300000 (2019) 75000 (2018) 142000 79900 87200 102000 216000 267000
2020-06-03 21:00 15.38 99600 300000 (2019) 75000 (2018) 142000 79900 87200 102000 216000 267000
2020-06-03 20:00 15.41 99900 300000 (2019) 75000 (2018) 142000 79900 87200 102000 216000 267000
2020-06-03 19:00 15.43 100000 300000 (2019) 75000 (2018) 142000 79900 87200 102000 216000 267000
2020-06-03 18:00 15.47 100000 300000 (2019) 75000 (2018) 142000 79900 87200 102000 216000 267000
2020-06-03 17:00 15.47 100000 300000 (2019) 75000 (2018) 142000 79900 87200 102000 216000 267000
2020-06-03 16:00 15.52 101000 300000 (2019) 75000 (2018) 142000 79900 87200 102000 216000 267000
2020-06-03 15:00 15.55 101000 300000 (2019) 75000 (2018) 142000 79900 87200 102000 216000 267000
2020-06-03 14:00 15.58 101000 300000 (2019) 75000 (2018) 142000 79900 87200 102000 216000 267000
2020-06-03 13:00 15.58 101000 300000 (2019) 75000 (2018) 142000 79900 87200 102000 216000 267000
2020-06-03 12:00 15.65 102000 300000 (2019) 75000 (2018) 142000 79900 87200 102000 216000 267000
2020-06-03 11:00 15.66 102000 300000 (2019) 75000 (2018) 142000 79900 87200 102000 216000 267000
2020-06-03 10:00 15.69 102000 300000 (2019) 75000 (2018) 142000 79900 87200 102000 216000 267000
2020-06-03 09:00 15.72 103000 300000 (2019) 75000 (2018) 142000 79900 87200 102000 216000 267000
2020-06-03 08:00 15.75 103000 300000 (2019) 75000 (2018) 142000 79900 87200 102000 216000 267000
2020-06-03 07:00 15.78 103000 300000 (2019) 75000 (2018) 142000 79900 87200 102000 216000 267000
2020-06-03 06:00 15.80 103000 300000 (2019) 75000 (2018) 142000 79900 87200 102000 216000 267000
2020-06-03 05:00 15.84 104000 300000 (2019) 75000 (2018) 142000 79900 87200 102000 216000 267000
2020-06-03 04:00 15.87 104000 300000 (2019) 75000 (2018) 142000 79900 87200 102000 216000 267000
2020-06-03 03:00 15.89 104000 300000 (2019) 75000 (2018) 142000 79900 87200 102000 216000 267000
2020-06-03 02:00 15.92 105000 300000 (2019) 75000 (2018) 142000 79900 87200 102000 216000 267000
2020-06-03 01:00 15.96 105000 300000 (2019) 75000 (2018) 142000 79900 87200 102000 216000 267000
2020-06-03 00:00 16.00 105000 300000 (2019) 75000 (2018) 142000 79900 87200 102000 216000 267000
2020-06-02 23:00 16.03 106000 305000 (2019) 76200 (2018) 144000 80400 86700 103000 221000 271000
2020-06-02 22:00 16.05 106000 305000 (2019) 76200 (2018) 144000 80400 86700 103000 221000 271000
2020-06-02 21:00 16.09 106000 305000 (2019) 76200 (2018) 144000 80400 86700 103000 221000 271000
2020-06-02 20:00 16.12 107000 305000 (2019) 76200 (2018) 144000 80400 86700 103000 221000 271000
2020-06-02 19:00 16.17 107000 305000 (2019) 76200 (2018) 144000 80400 86700 103000 221000 271000
2020-06-02 18:00 16.18 107000 305000 (2019) 76200 (2018) 144000 80400 86700 103000 221000 271000
2020-06-02 17:00 16.21 107000 305000 (2019) 76200 (2018) 144000 80400 86700 103000 221000 271000
2020-06-02 16:00 16.22 107000 305000 (2019) 76200 (2018) 144000 80400 86700 103000 221000 271000
2020-06-02 15:00 16.26 108000 305000 (2019) 76200 (2018) 144000 80400 86700 103000 221000 271000
2020-06-02 14:00 16.29 108000 305000 (2019) 76200 (2018) 144000 80400 86700 103000 221000 271000
2020-06-02 13:00 16.31 108000 305000 (2019) 76200 (2018) 144000 80400 86700 103000 221000 271000
2020-06-02 12:00 16.37 109000 305000 (2019) 76200 (2018) 144000 80400 86700 103000 221000 271000
2020-06-02 11:00 16.39 109000 305000 (2019) 76200 (2018) 144000 80400 86700 103000 221000 271000
2020-06-02 10:00 16.43 110000 305000 (2019) 76200 (2018) 144000 80400 86700 103000 221000 271000
2020-06-02 09:00 16.46 110000 305000 (2019) 76200 (2018) 144000 80400 86700 103000 221000 271000
2020-06-02 08:00 16.48 110000 305000 (2019) 76200 (2018) 144000 80400 86700 103000 221000 271000
2020-06-02 07:00 16.54 111000 305000 (2019) 76200 (2018) 144000 80400 86700 103000 221000 271000
2020-06-02 06:00 16.57 111000 305000 (2019) 76200 (2018) 144000 80400 86700 103000 221000 271000
2020-06-02 05:00 16.59 111000 305000 (2019) 76200 (2018) 144000 80400 86700 103000 221000 271000
2020-06-02 04:00 16.63 112000 305000 (2019) 76200 (2018) 144000 80400 86700 103000 221000 271000
2020-06-02 03:00 16.66 112000 305000 (2019) 76200 (2018) 144000 80400 86700 103000 221000 271000
2020-06-02 02:00 16.69 112000 305000 (2019) 76200 (2018) 144000 80400 86700 103000 221000 271000
2020-06-02 01:00 16.73 113000 305000 (2019) 76200 (2018) 144000 80400 86700 103000 221000 271000
2020-06-02 00:00 16.76 113000 305000 (2019) 76200 (2018) 144000 80400 86700 103000 221000 271000
2020-06-01 23:00 16.77 113000 294000 (2019) 76400 (2018) 147000 81700 89700 111000 222000 265000
2020-06-01 22:00 16.80 113000 294000 (2019) 76400 (2018) 147000 81700 89700 111000 222000 265000
2020-06-01 21:00 16.88 114000 294000 (2019) 76400 (2018) 147000 81700 89700 111000 222000 265000
2020-06-01 20:00 16.91 114000 294000 (2019) 76400 (2018) 147000 81700 89700 111000 222000 265000
2020-06-01 19:00 16.93 115000 294000 (2019) 76400 (2018) 147000 81700 89700 111000 222000 265000
2020-06-01 18:00 16.99 115000 294000 (2019) 76400 (2018) 147000 81700 89700 111000 222000 265000
2020-06-01 17:00 17.05 116000 294000 (2019) 76400 (2018) 147000 81700 89700 111000 222000 265000
2020-06-01 16:00 17.08 116000 294000 (2019) 76400 (2018) 147000 81700 89700 111000 222000 265000
2020-06-01 15:00 17.12 116000 294000 (2019) 76400 (2018) 147000 81700 89700 111000 222000 265000
2020-06-01 14:00 17.17 117000 294000 (2019) 76400 (2018) 147000 81700 89700 111000 222000 265000
2020-06-01 13:00 17.21 117000 294000 (2019) 76400 (2018) 147000 81700 89700 111000 222000 265000
2020-06-01 12:00 17.28 118000 294000 (2019) 76400 (2018) 147000 81700 89700 111000 222000 265000
2020-06-01 11:00 17.33 119000 294000 (2019) 76400 (2018) 147000 81700 89700 111000 222000 265000
2020-06-01 10:00 17.37 119000 294000 (2019) 76400 (2018) 147000 81700 89700 111000 222000 265000
2020-06-01 09:00 17.43 120000 294000 (2019) 76400 (2018) 147000 81700 89700 111000 222000 265000
2020-06-01 08:00 17.49 120000 294000 (2019) 76400 (2018) 147000 81700 89700 111000 222000 265000
2020-06-01 07:00 17.56 121000 294000 (2019) 76400 (2018) 147000 81700 89700 111000 222000 265000
2020-06-01 06:00 17.60 121000 294000 (2019) 76400 (2018) 147000 81700 89700 111000 222000 265000
2020-06-01 05:00 17.64 122000 294000 (2019) 76400 (2018) 147000 81700 89700 111000 222000 265000
2020-06-01 04:00 17.73 123000 294000 (2019) 76400 (2018) 147000 81700 89700 111000 222000 265000
2020-06-01 03:00 17.81 124000 294000 (2019) 76400 (2018) 147000 81700 89700 111000 222000 265000
2020-06-01 02:00 17.88 124000 294000 (2019) 76400 (2018) 147000 81700 89700 111000 222000 265000
2020-06-01 01:00 17.96 125000 294000 (2019) 76400 (2018) 147000 81700 89700 111000 222000 265000
2020-06-01 00:00 18.03 126000 294000 (2019) 76400 (2018) 147000 81700 89700 111000 222000 265000
2020-05-31 23:00 18.09 127000 280000 (2019) 76500 (2018) 152000 84200 95800 115000 228000 259000
2020-05-31 22:00 18.19 128000 280000 (2019) 76500 (2018) 152000 84200 95800 115000 228000 259000
2020-05-31 21:00 18.24 128000 280000 (2019) 76500 (2018) 152000 84200 95800 115000 228000 259000
2020-05-31 20:00 18.33 129000 280000 (2019) 76500 (2018) 152000 84200 95800 115000 228000 259000
2020-05-31 19:00 18.39 130000 280000 (2019) 76500 (2018) 152000 84200 95800 115000 228000 259000
2020-05-31 18:00 18.46 131000 280000 (2019) 76500 (2018) 152000 84200 95800 115000 228000 259000
2020-05-31 17:00 18.56 132000 280000 (2019) 76500 (2018) 152000 84200 95800 115000 228000 259000
2020-05-31 16:00 18.63 133000 280000 (2019) 76500 (2018) 152000 84200 95800 115000 228000 259000
2020-05-31 15:00 18.71 133000 280000 (2019) 76500 (2018) 152000 84200 95800 115000 228000 259000
2020-05-31 14:00 18.78 134000 280000 (2019) 76500 (2018) 152000 84200 95800 115000 228000 259000
2020-05-31 13:00 18.86 135000 280000 (2019) 76500 (2018) 152000 84200 95800 115000 228000 259000
2020-05-31 12:00 18.93 136000 280000 (2019) 76500 (2018) 152000 84200 95800 115000 228000 259000
2020-05-31 11:00 18.99 137000 280000 (2019) 76500 (2018) 152000 84200 95800 115000 228000 259000
2020-05-31 10:00 19.06 137000 280000 (2019) 76500 (2018) 152000 84200 95800 115000 228000 259000
2020-05-31 09:00 19.13 138000 280000 (2019) 76500 (2018) 152000 84200 95800 115000 228000 259000
2020-05-31 08:00 19.19 139000 280000 (2019) 76500 (2018) 152000 84200 95800 115000 228000 259000
2020-05-31 07:00 19.25 140000 280000 (2019) 76500 (2018) 152000 84200 95800 115000 228000 259000
2020-05-31 06:00 19.32 140000 280000 (2019) 76500 (2018) 152000 84200 95800 115000 228000 259000
2020-05-31 05:00 19.38 141000 280000 (2019) 76500 (2018) 152000 84200 95800 115000 228000 259000
2020-05-31 04:00 19.44 142000 280000 (2019) 76500 (2018) 152000 84200 95800 115000 228000 259000
2020-05-31 03:00 19.52 143000 280000 (2019) 76500 (2018) 152000 84200 95800 115000 228000 259000
2020-05-31 02:00 19.55 143000 280000 (2019) 76500 (2018) 152000 84200 95800 115000 228000 259000
2020-05-31 01:00 19.65 144000 280000 (2019) 76500 (2018) 152000 84200 95800 115000 228000 259000
2020-05-31 00:00 19.70 145000 280000 (2019) 76500 (2018) 152000 84200 95800 115000 228000 259000
2020-05-30 23:00 19.75 146000 264000 (2019) 75700 (2018) 160000 84400 97400 124000 240000 255000
2020-05-30 22:00 19.84 147000 264000 (2019) 75700 (2018) 160000 84400 97400 124000 240000 255000
2020-05-30 21:00 19.87 147000 264000 (2019) 75700 (2018) 160000 84400 97400 124000 240000 255000
2020-05-30 20:00 19.95 148000 264000 (2019) 75700 (2018) 160000 84400 97400 124000 240000 255000
2020-05-30 19:00 20.03 149000 264000 (2019) 75700 (2018) 160000 84400 97400 124000 240000 255000
2020-05-30 18:00 20.10 150000 264000 (2019) 75700 (2018) 160000 84400 97400 124000 240000 255000
2020-05-30 17:00 20.13 150000 264000 (2019) 75700 (2018) 160000 84400 97400 124000 240000 255000
2020-05-30 16:00 20.21 151000 264000 (2019) 75700 (2018) 160000 84400 97400 124000 240000 255000
2020-05-30 15:00 20.27 152000 264000 (2019) 75700 (2018) 160000 84400 97400 124000 240000 255000
2020-05-30 14:00 20.34 153000 264000 (2019) 75700 (2018) 160000 84400 97400 124000 240000 255000
2020-05-30 13:00 20.40 153000 264000 (2019) 75700 (2018) 160000 84400 97400 124000 240000 255000
2020-05-30 12:00 20.47 154000 264000 (2019) 75700 (2018) 160000 84400 97400 124000 240000 255000
2020-05-30 11:00 20.59 156000 264000 (2019) 75700 (2018) 160000 84400 97400 124000 240000 255000
2020-05-30 10:00 20.64 156000 264000 (2019) 75700 (2018) 160000 84400 97400 124000 240000 255000
2020-05-30 09:00 20.73 158000 264000 (2019) 75700 (2018) 160000 84400 97400 124000 240000 255000
2020-05-30 08:00 20.86 159000 264000 (2019) 75700 (2018) 160000 84400 97400 124000 240000 255000
2020-05-30 07:00 20.93 160000 264000 (2019) 75700 (2018) 160000 84400 97400 124000 240000 255000
2020-05-30 06:00 21.02 161000 264000 (2019) 75700 (2018) 160000 84400 97400 124000 240000 255000
2020-05-30 05:00 21.14 163000 264000 (2019) 75700 (2018) 160000 84400 97400 124000 240000 255000
2020-05-30 04:00 21.27 164000 264000 (2019) 75700 (2018) 160000 84400 97400 124000 240000 255000
2020-05-30 03:00 21.38 166000 264000 (2019) 75700 (2018) 160000 84400 97400 124000 240000 255000
2020-05-30 02:00 21.49 167000 264000 (2019) 75700 (2018) 160000 84400 97400 124000 240000 255000
2020-05-30 01:00 21.59 169000 264000 (2019) 75700 (2018) 160000 84400 97400 124000 240000 255000
2020-05-30 00:00 21.73 170000 264000 (2019) 75700 (2018) 160000 84400 97400 124000 240000 255000
2020-05-29 23:00 21.86 172000 266000 (2016) 74400 (2018) 169000 84100 98700 124000 261000 264000
2020-05-29 22:00 21.97 174000 266000 (2016) 74400 (2018) 169000 84100 98700 124000 261000 264000
2020-05-29 21:00 22.11 176000 266000 (2016) 74400 (2018) 169000 84100 98700 124000 261000 264000
2020-05-29 20:00 22.24 177000 266000 (2016) 74400 (2018) 169000 84100 98700 124000 261000 264000
2020-05-29 19:00 22.39 179000 266000 (2016) 74400 (2018) 169000 84100 98700 124000 261000 264000
2020-05-29 18:00 22.52 181000 266000 (2016) 74400 (2018) 169000 84100 98700 124000 261000 264000
2020-05-29 17:00 22.66 183000 266000 (2016) 74400 (2018) 169000 84100 98700 124000 261000 264000
2020-05-29 16:00 22.84 186000 266000 (2016) 74400 (2018) 169000 84100 98700 124000 261000 264000
2020-05-29 15:00 22.91 192000 266000 (2016) 74400 (2018) 169000 84100 98700 124000 261000 264000
2020-05-29 14:00 23.05 194000 266000 (2016) 74400 (2018) 169000 84100 98700 124000 261000 264000
2020-05-29 13:00 23.13 195000 266000 (2016) 74400 (2018) 169000 84100 98700 124000 261000 264000
2020-05-29 12:00 23.24 196000 266000 (2016) 74400 (2018) 169000 84100 98700 124000 261000 264000
2020-05-29 11:00 23.26 197000 266000 (2016) 74400 (2018) 169000 84100 98700 124000 261000 264000
2020-05-29 10:00 23.33 198000 266000 (2016) 74400 (2018) 169000 84100 98700 124000 261000 264000
2020-05-29 09:00 23.41 199000 266000 (2016) 74400 (2018) 169000 84100 98700 124000 261000 264000
2020-05-29 08:00 23.44 199000 266000 (2016) 74400 (2018) 169000 84100 98700 124000 261000 264000
2020-05-29 07:00 23.44 199000 266000 (2016) 74400 (2018) 169000 84100 98700 124000 261000 264000
2020-05-29 06:00 23.47 200000 266000 (2016) 74400 (2018) 169000 84100 98700 124000 261000 264000
2020-05-29 05:00 23.45 200000 266000 (2016) 74400 (2018) 169000 84100 98700 124000 261000 264000
2020-05-29 04:00 23.45 200000 266000 (2016) 74400 (2018) 169000 84100 98700 124000 261000 264000
2020-05-29 03:00 23.42 199000 266000 (2016) 74400 (2018) 169000 84100 98700 124000 261000 264000
2020-05-29 02:00 23.39 199000 266000 (2016) 74400 (2018) 169000 84100 98700 124000 261000 264000
2020-05-29 01:00 23.38 199000 266000 (2016) 74400 (2018) 169000 84100 98700 124000 261000 264000
2020-05-29 00:00 23.37 198000 266000 (2016) 74400 (2018) 169000 84100 98700 124000 261000 264000
2020-05-28 23:00 23.31 197000 256000 (2016) 76200 (2018) 169000 85600 99600 135000 255000 255000
2020-05-28 22:00 23.24 196000 256000 (2016) 76200 (2018) 169000 85600 99600 135000 255000 255000
2020-05-28 21:00 23.21 196000 256000 (2016) 76200 (2018) 169000 85600 99600 135000 255000 255000
2020-05-28 20:00 23.19 196000 256000 (2016) 76200 (2018) 169000 85600 99600 135000 255000 255000
2020-05-28 19:00 23.12 195000 256000 (2016) 76200 (2018) 169000 85600 99600 135000 255000 255000
2020-05-28 18:00 23.03 193000 256000 (2016) 76200 (2018) 169000 85600 99600 135000 255000 255000
2020-05-28 17:00 22.87 191000 256000 (2016) 76200 (2018) 169000 85600 99600 135000 255000 255000
2020-05-28 16:00 22.70 189000 256000 (2016) 76200 (2018) 169000 85600 99600 135000 255000 255000
2020-05-28 15:00 22.52 186000 256000 (2016) 76200 (2018) 169000 85600 99600 135000 255000 255000
2020-05-28 14:00 22.48 186000 256000 (2016) 76200 (2018) 169000 85600 99600 135000 255000 255000
2020-05-28 13:00 22.37 184000 256000 (2016) 76200 (2018) 169000 85600 99600 135000 255000 255000
2020-05-28 12:00 22.28 183000 256000 (2016) 76200 (2018) 169000 85600 99600 135000 255000 255000
2020-05-28 11:00 22.14 181000 256000 (2016) 76200 (2018) 169000 85600 99600 135000 255000 255000
2020-05-28 10:00 22.02 179000 256000 (2016) 76200 (2018) 169000 85600 99600 135000 255000 255000
2020-05-28 09:00 21.94 178000 256000 (2016) 76200 (2018) 169000 85600 99600 135000 255000 255000
2020-05-28 08:00 21.86 177000 256000 (2016) 76200 (2018) 169000 85600 99600 135000 255000 255000
2020-05-28 07:00 21.82 176000 256000 (2016) 76200 (2018) 169000 85600 99600 135000 255000 255000
2020-05-28 06:00 21.87 177000 256000 (2016) 76200 (2018) 169000 85600 99600 135000 255000 255000
2020-05-28 05:00 21.84 177000 256000 (2016) 76200 (2018) 169000 85600 99600 135000 255000 255000
2020-05-28 04:00 21.73 175000 256000 (2016) 76200 (2018) 169000 85600 99600 135000 255000 255000
2020-05-28 03:00 21.59 173000 256000 (2016) 76200 (2018) 169000 85600 99600 135000 255000 255000
2020-05-28 02:00 21.53 172000 256000 (2016) 76200 (2018) 169000 85600 99600 135000 255000 255000
2020-05-28 01:00 21.44 171000 256000 (2016) 76200 (2018) 169000 85600 99600 135000 255000 255000
2020-05-28 00:00 21.32 170000 256000 (2016) 76200 (2018) 169000 85600 99600 135000 255000 255000
2020-05-27 23:00 21.26 169000 249000 (2019) 77900 (2018) 160000 86300 99000 144000 229000 241000
2020-05-27 22:00 21.19 168000 249000 (2019) 77900 (2018) 160000 86300 99000 144000 229000 241000
2020-05-27 21:00 21.12 167000 249000 (2019) 77900 (2018) 160000 86300 99000 144000 229000 241000
2020-05-27 20:00 21.13 167000 249000 (2019) 77900 (2018) 160000 86300 99000 144000 229000 241000
2020-05-27 19:00 21.09 167000 249000 (2019) 77900 (2018) 160000 86300 99000 144000 229000 241000
2020-05-27 18:00 21.01 166000 249000 (2019) 77900 (2018) 160000 86300 99000 144000 229000 241000
2020-05-27 17:00 21.01 166000 249000 (2019) 77900 (2018) 160000 86300 99000 144000 229000 241000
2020-05-27 16:00 20.98 165000 249000 (2019) 77900 (2018) 160000 86300 99000 144000 229000 241000
2020-05-27 15:00 20.96 165000 249000 (2019) 77900 (2018) 160000 86300 99000 144000 229000 241000
2020-05-27 14:00 20.91 164000 249000 (2019) 77900 (2018) 160000 86300 99000 144000 229000 241000
2020-05-27 13:00 20.84 163000 249000 (2019) 77900 (2018) 160000 86300 99000 144000 229000 241000
2020-05-27 12:00 20.72 162000 249000 (2019) 77900 (2018) 160000 86300 99000 144000 229000 241000
2020-05-27 11:00 20.64 161000 249000 (2019) 77900 (2018) 160000 86300 99000 144000 229000 241000
2020-05-27 10:00 20.53 159000 249000 (2019) 77900 (2018) 160000 86300 99000 144000 229000 241000
2020-05-27 09:00 20.45 158000 249000 (2019) 77900 (2018) 160000 86300 99000 144000 229000 241000
2020-05-27 08:00 20.32 157000 249000 (2019) 77900 (2018) 160000 86300 99000 144000 229000 241000
2020-05-27 07:00 20.19 155000 249000 (2019) 77900 (2018) 160000 86300 99000 144000 229000 241000
2020-05-27 06:00 20.06 154000 249000 (2019) 77900 (2018) 160000 86300 99000 144000 229000 241000
2020-05-27 05:00 19.91 152000 249000 (2019) 77900 (2018) 160000 86300 99000 144000 229000 241000
2020-05-27 04:00 19.75 150000 249000 (2019) 77900 (2018) 160000 86300 99000 144000 229000 241000
2020-05-27 03:00 19.57 148000 249000 (2019) 77900 (2018) 160000 86300 99000 144000 229000 241000
2020-05-27 02:00 19.36 145000 249000 (2019) 77900 (2018) 160000 86300 99000 144000 229000 241000
2020-05-27 01:00 19.17 143000 249000 (2019) 77900 (2018) 160000 86300 99000 144000 229000 241000
2020-05-27 00:00 18.93 140000 249000 (2019) 77900 (2018) 160000 86300 99000 144000 229000 241000
2020-05-26 23:00 18.73 138000 245000 (2019) 81600 (2018) 138000 88300 98300 121000 185000 221000
2020-05-26 22:00 18.54 136000 245000 (2019) 81600 (2018) 138000 88300 98300 121000 185000 221000
2020-05-26 21:00 18.35 133000 245000 (2019) 81600 (2018) 138000 88300 98300 121000 185000 221000
2020-05-26 20:00 18.14 131000 245000 (2019) 81600 (2018) 138000 88300 98300 121000 185000 221000
2020-05-26 19:00 17.96 129000 245000 (2019) 81600 (2018) 138000 88300 98300 121000 185000 221000
2020-05-26 18:00 17.76 127000 245000 (2019) 81600 (2018) 138000 88300 98300 121000 185000 221000
2020-05-26 17:00 17.58 125000 245000 (2019) 81600 (2018) 138000 88300 98300 121000 185000 221000
2020-05-26 15:00 17.24 121000 245000 (2019) 81600 (2018) 138000 88300 98300 121000 185000 221000
2020-05-26 14:00 17.08 120000 245000 (2019) 81600 (2018) 138000 88300 98300 121000 185000 221000
2020-05-26 13:00 16.91 118000 245000 (2019) 81600 (2018) 138000 88300 98300 121000 185000 221000
2020-05-26 12:00 16.78 117000 245000 (2019) 81600 (2018) 138000 88300 98300 121000 185000 221000
2020-05-26 11:00 16.65 115000 245000 (2019) 81600 (2018) 138000 88300 98300 121000 185000 221000
2020-05-26 10:00 16.53 114000 245000 (2019) 81600 (2018) 138000 88300 98300 121000 185000 221000
2020-05-26 09:00 16.38 113000 245000 (2019) 81600 (2018) 138000 88300 98300 121000 185000 221000
2020-05-26 08:00 16.26 111000 245000 (2019) 81600 (2018) 138000 88300 98300 121000 185000 221000
2020-05-26 07:00 16.14 110000 245000 (2019) 81600 (2018) 138000 88300 98300 121000 185000 221000
2020-05-26 06:00 16.01 109000 245000 (2019) 81600 (2018) 138000 88300 98300 121000 185000 221000
2020-05-26 05:00 15.93 108000 245000 (2019) 81600 (2018) 138000 88300 98300 121000 185000 221000
2020-05-26 04:00 15.82 107000 245000 (2019) 81600 (2018) 138000 88300 98300 121000 185000 221000
2020-05-26 03:00 15.73 106000 245000 (2019) 81600 (2018) 138000 88300 98300 121000 185000 221000
2020-05-26 02:00 15.64 105000 245000 (2019) 81600 (2018) 138000 88300 98300 121000 185000 221000
2020-05-26 01:00 15.56 105000 245000 (2019) 81600 (2018) 138000 88300 98300 121000 185000 221000
2020-05-26 00:00 15.49 104000 245000 (2019) 81600 (2018) 138000 88300 98300 121000 185000 221000
2020-05-25 23:00 15.43 103000 236000 (2019) 86500 (2018) 139000 90200 95800 127000 189000 217000
2020-05-25 22:00 15.37 103000 236000 (2019) 86500 (2018) 139000 90200 95800 127000 189000 217000
2020-05-25 21:00 15.31 102000 236000 (2019) 86500 (2018) 139000 90200 95800 127000 189000 217000
2020-05-25 20:00 15.26 102000 236000 (2019) 86500 (2018) 139000 90200 95800 127000 189000 217000
2020-05-25 19:00 15.22 101000 236000 (2019) 86500 (2018) 139000 90200 95800 127000 189000 217000
2020-05-25 18:00 15.19 101000 236000 (2019) 86500 (2018) 139000 90200 95800 127000 189000 217000
2020-05-25 17:00 15.15 101000 236000 (2019) 86500 (2018) 139000 90200 95800 127000 189000 217000
2020-05-25 16:00 15.12 100000 236000 (2019) 86500 (2018) 139000 90200 95800 127000 189000 217000
2020-05-25 15:00 15.06 99900 236000 (2019) 86500 (2018) 139000 90200 95800 127000 189000 217000
2020-05-25 14:00 15.01 99400 236000 (2019) 86500 (2018) 139000 90200 95800 127000 189000 217000
2020-05-25 13:00 15.00 99300 236000 (2019) 86500 (2018) 139000 90200 95800 127000 189000 217000
2020-05-25 12:00 14.98 99100 236000 (2019) 86500 (2018) 139000 90200 95800 127000 189000 217000
2020-05-25 11:00 14.95 98800 236000 (2019) 86500 (2018) 139000 90200 95800 127000 189000 217000
2020-05-25 10:00 14.90 98400 236000 (2019) 86500 (2018) 139000 90200 95800 127000 189000 217000
2020-05-25 09:00 14.87 98100 236000 (2019) 86500 (2018) 139000 90200 95800 127000 189000 217000
2020-05-25 08:00 14.82 97700 236000 (2019) 86500 (2018) 139000 90200 95800 127000 189000 217000
2020-05-25 07:00 14.77 97200 236000 (2019) 86500 (2018) 139000 90200 95800 127000 189000 217000
2020-05-25 06:00 14.72 96800 236000 (2019) 86500 (2018) 139000 90200 95800 127000 189000 217000
2020-05-25 05:00 14.65 96100 236000 (2019) 86500 (2018) 139000 90200 95800 127000 189000 217000
2020-05-25 04:00 14.55 95200 236000 (2019) 86500 (2018) 139000 90200 95800 127000 189000 217000
2020-05-25 03:00 14.46 94400 236000 (2019) 86500 (2018) 139000 90200 95800 127000 189000 217000
2020-05-25 02:00 14.38 93700 236000 (2019) 86500 (2018) 139000 90200 95800 127000 189000 217000
2020-05-25 01:00 14.26 92700 236000 (2019) 86500 (2018) 139000 90200 95800 127000 189000 217000
2020-05-25 00:00 14.17 91900 236000 (2019) 86500 (2018) 139000 90200 95800 127000 189000 217000
2020-05-24 23:00 14.05 90900 217000 (2019) 82500 (2018) 135000 87400 94800 124000 179000 202000
2020-05-24 22:00 13.92 89700 217000 (2019) 82500 (2018) 135000 87400 94800 124000 179000 202000
2020-05-24 21:00 13.84 89100 217000 (2019) 82500 (2018) 135000 87400 94800 124000 179000 202000
2020-05-24 20:00 13.72 88000 217000 (2019) 82500 (2018) 135000 87400 94800 124000 179000 202000
2020-05-24 19:00 13.60 87000 217000 (2019) 82500 (2018) 135000 87400 94800 124000 179000 202000
2020-05-24 18:00 13.53 86500 217000 (2019) 82500 (2018) 135000 87400 94800 124000 179000 202000
2020-05-24 17:00 13.41 85500 217000 (2019) 82500 (2018) 135000 87400 94800 124000 179000 202000
2020-05-24 16:00 13.31 84600 217000 (2019) 82500 (2018) 135000 87400 94800 124000 179000 202000
2020-05-24 15:00 13.27 84300 217000 (2019) 82500 (2018) 135000 87400 94800 124000 179000 202000
2020-05-24 14:00 13.19 83700 217000 (2019) 82500 (2018) 135000 87400 94800 124000 179000 202000
2020-05-24 13:00 13.10 82900 217000 (2019) 82500 (2018) 135000 87400 94800 124000 179000 202000
2020-05-24 12:00 13.01 82200 217000 (2019) 82500 (2018) 135000 87400 94800 124000 179000 202000
2020-05-24 11:00 12.96 81800 217000 (2019) 82500 (2018) 135000 87400 94800 124000 179000 202000
2020-05-24 10:00 12.91 81400 217000 (2019) 82500 (2018) 135000 87400 94800 124000 179000 202000
2020-05-24 09:00 12.89 81200 217000 (2019) 82500 (2018) 135000 87400 94800 124000 179000 202000
2020-05-24 08:00 12.81 80600 217000 (2019) 82500 (2018) 135000 87400 94800 124000 179000 202000
2020-05-24 07:00 12.78 80400 217000 (2019) 82500 (2018) 135000 87400 94800 124000 179000 202000
2020-05-24 06:00 12.75 80100 217000 (2019) 82500 (2018) 135000 87400 94800 124000 179000 202000
2020-05-24 05:00 12.72 79900 217000 (2019) 82500 (2018) 135000 87400 94800 124000 179000 202000
2020-05-24 04:00 12.69 79700 217000 (2019) 82500 (2018) 135000 87400 94800 124000 179000 202000
2020-05-24 03:00 12.67 79500 217000 (2019) 82500 (2018) 135000 87400 94800 124000 179000 202000
2020-05-24 02:00 12.65 79300 217000 (2019) 82500 (2018) 135000 87400 94800 124000 179000 202000
2020-05-24 01:00 12.61 79000 217000 (2019) 82500 (2018) 135000 87400 94800 124000 179000 202000
2020-05-24 00:00 12.60 79000 217000 (2019) 82500 (2018) 135000 87400 94800 124000 179000 202000
2020-05-23 23:00 12.57 78700 245000 (2019) 80000 (2018) 138000 84400 91000 104000 202000 228000
2020-05-23 22:00 12.56 78600 245000 (2019) 80000 (2018) 138000 84400 91000 104000 202000 228000
2020-05-23 21:00 12.56 78600 245000 (2019) 80000 (2018) 138000 84400 91000 104000 202000 228000
2020-05-23 20:00 12.54 78500 245000 (2019) 80000 (2018) 138000 84400 91000 104000 202000 228000
2020-05-23 19:00 12.52 78300 245000 (2019) 80000 (2018) 138000 84400 91000 104000 202000 228000
2020-05-23 18:00 12.51 78300 245000 (2019) 80000 (2018) 138000 84400 91000 104000 202000 228000
2020-05-23 17:00 12.49 78100 245000 (2019) 80000 (2018) 138000 84400 91000 104000 202000 228000
2020-05-23 16:00 12.49 78100 245000 (2019) 80000 (2018) 138000 84400 91000 104000 202000 228000
2020-05-23 15:00 12.49 78100 245000 (2019) 80000 (2018) 138000 84400 91000 104000 202000 228000
2020-05-23 14:00 12.50 78200 245000 (2019) 80000 (2018) 138000 84400 91000 104000 202000 228000
2020-05-23 13:00 12.49 78100 245000 (2019) 80000 (2018) 138000 84400 91000 104000 202000 228000
2020-05-23 12:00 12.49 78100 245000 (2019) 80000 (2018) 138000 84400 91000 104000 202000 228000
2020-05-23 11:00 12.49 78100 245000 (2019) 80000 (2018) 138000 84400 91000 104000 202000 228000
2020-05-23 10:00 12.49 78100 245000 (2019) 80000 (2018) 138000 84400 91000 104000 202000 228000
2020-05-23 09:00 12.48 78000 245000 (2019) 80000 (2018) 138000 84400 91000 104000 202000 228000
2020-05-23 08:00 12.46 77900 245000 (2019) 80000 (2018) 138000 84400 91000 104000 202000 228000
2020-05-23 07:00 12.43 77600 245000 (2019) 80000 (2018) 138000 84400 91000 104000 202000 228000
2020-05-23 06:00 12.46 77900 245000 (2019) 80000 (2018) 138000 84400 91000 104000 202000 228000
2020-05-23 05:00 12.42 77600 245000 (2019) 80000 (2018) 138000 84400 91000 104000 202000 228000
2020-05-23 04:00 12.42 77600 245000 (2019) 80000 (2018) 138000 84400 91000 104000 202000 228000
2020-05-23 03:00 12.42 77600 245000 (2019) 80000 (2018) 138000 84400 91000 104000 202000 228000
2020-05-23 02:00 12.43 77600 245000 (2019) 80000 (2018) 138000 84400 91000 104000 202000 228000
2020-05-23 01:00 12.42 77600 245000 (2019) 80000 (2018) 138000 84400 91000 104000 202000 228000
2020-05-23 00:00 12.39 77300 245000 (2019) 80000 (2018) 138000 84400 91000 104000 202000 228000
2020-05-22 23:00 12.40 77400 260000 (2019) 79800 (2018) 146000 84000 90400 118000 214000 242000
2020-05-22 22:00 12.38 77200 260000 (2019) 79800 (2018) 146000 84000 90400 118000 214000 242000
2020-05-22 21:00 12.40 77400 260000 (2019) 79800 (2018) 146000 84000 90400 118000 214000 242000
2020-05-22 20:00 12.40 77400 260000 (2019) 79800 (2018) 146000 84000 90400 118000 214000 242000
2020-05-22 19:00 12.40 77400 260000 (2019) 79800 (2018) 146000 84000 90400 118000 214000 242000
2020-05-22 18:00 12.40 77400 260000 (2019) 79800 (2018) 146000 84000 90400 118000 214000 242000
2020-05-22 17:00 12.40 77400 260000 (2019) 79800 (2018) 146000 84000 90400 118000 214000 242000
2020-05-22 16:00 12.42 77600 260000 (2019) 79800 (2018) 146000 84000 90400 118000 214000 242000
2020-05-22 15:00 12.41 77500 260000 (2019) 79800 (2018) 146000 84000 90400 118000 214000 242000
2020-05-22 14:00 12.44 77700 260000 (2019) 79800 (2018) 146000 84000 90400 118000 214000 242000
2020-05-22 13:00 12.42 77600 260000 (2019) 79800 (2018) 146000 84000 90400 118000 214000 242000
2020-05-22 12:00 12.46 77900 260000 (2019) 79800 (2018) 146000 84000 90400 118000 214000 242000
2020-05-22 11:00 12.47 77900 260000 (2019) 79800 (2018) 146000 84000 90400 118000 214000 242000
2020-05-22 10:00 12.48 78000 260000 (2019) 79800 (2018) 146000 84000 90400 118000 214000 242000
2020-05-22 09:00 12.50 78200 260000 (2019) 79800 (2018) 146000 84000 90400 118000 214000 242000
2020-05-22 08:00 12.51 78300 260000 (2019) 79800 (2018) 146000 84000 90400 118000 214000 242000
2020-05-22 07:00 12.51 78300 260000 (2019) 79800 (2018) 146000 84000 90400 118000 214000 242000
2020-05-22 06:00 12.55 78600 260000 (2019) 79800 (2018) 146000 84000 90400 118000 214000 242000
2020-05-22 05:00 12.56 78600 260000 (2019) 79800 (2018) 146000 84000 90400 118000 214000 242000
2020-05-22 04:00 12.57 78700 260000 (2019) 79800 (2018) 146000 84000 90400 118000 214000 242000
2020-05-22 03:00 12.59 78900 260000 (2019) 79800 (2018) 146000 84000 90400 118000 214000 242000
2020-05-22 02:00 12.61 79000 260000 (2019) 79800 (2018) 146000 84000 90400 118000 214000 242000
2020-05-22 01:00 12.63 79200 260000 (2019) 79800 (2018) 146000 84000 90400 118000 214000 242000
2020-05-22 00:00 12.61 79000 260000 (2019) 79800 (2018) 146000 84000 90400 118000 214000 242000
2020-05-21 23:00 12.64 79300 215000 (2019) 80300 (2018) 136000 84600 91100 125000 185000 203000
2020-05-21 22:00 12.66 79400 215000 (2019) 80300 (2018) 136000 84600 91100 125000 185000 203000
2020-05-21 21:00 12.67 79500 215000 (2019) 80300 (2018) 136000 84600 91100 125000 185000 203000
2020-05-21 20:00 12.69 79700 215000 (2019) 80300 (2018) 136000 84600 91100 125000 185000 203000
2020-05-21 19:00 12.69 79700 215000 (2019) 80300 (2018) 136000 84600 91100 125000 185000 203000
2020-05-21 18:00 12.70 79700 215000 (2019) 80300 (2018) 136000 84600 91100 125000 185000 203000
2020-05-21 17:00 12.72 79900 215000 (2019) 80300 (2018) 136000 84600 91100 125000 185000 203000
2020-05-21 16:00 12.75 80100 215000 (2019) 80300 (2018) 136000 84600 91100 125000 185000 203000
2020-05-21 15:00 12.77 80300 215000 (2019) 80300 (2018) 136000 84600 91100 125000 185000 203000
2020-05-21 14:00 12.79 80400 215000 (2019) 80300 (2018) 136000 84600 91100 125000 185000 203000
2020-05-21 13:00 12.79 80400 215000 (2019) 80300 (2018) 136000 84600 91100 125000 185000 203000
2020-05-21 12:00 12.80 80500 215000 (2019) 80300 (2018) 136000 84600 91100 125000 185000 203000
2020-05-21 11:00 12.81 80600 215000 (2019) 80300 (2018) 136000 84600 91100 125000 185000 203000
2020-05-21 10:00 12.83 80800 215000 (2019) 80300 (2018) 136000 84600 91100 125000 185000 203000
2020-05-21 09:00 12.81 80600 215000 (2019) 80300 (2018) 136000 84600 91100 125000 185000 203000
2020-05-21 08:00 12.87 81100 215000 (2019) 80300 (2018) 136000 84600 91100 125000 185000 203000
2020-05-21 07:00 12.88 81200 215000 (2019) 80300 (2018) 136000 84600 91100 125000 185000 203000
2020-05-21 06:00 12.92 81500 215000 (2019) 80300 (2018) 136000 84600 91100 125000 185000 203000
2020-05-21 05:00 12.92 81500 215000 (2019) 80300 (2018) 136000 84600 91100 125000 185000 203000
2020-05-21 04:00 12.92 81500 215000 (2019) 80300 (2018) 136000 84600 91100 125000 185000 203000
2020-05-21 03:00 12.92 81500 215000 (2019) 80300 (2018) 136000 84600 91100 125000 185000 203000
2020-05-21 02:00 12.95 81700 215000 (2019) 80300 (2018) 136000 84600 91100 125000 185000 203000
2020-05-21 01:00 12.96 81800 215000 (2019) 80300 (2018) 136000 84600 91100 125000 185000 203000
2020-05-21 00:00 12.98 82000 215000 (2019) 80300 (2018) 136000 84600 91100 125000 185000 203000
2020-05-20 23:00 12.99 82000 161000 (2019) 80700 (2018) 124000 85800 93300 129000 151000 157000
2020-05-20 22:00 13.01 82200 161000 (2019) 80700 (2018) 124000 85800 93300 129000 151000 157000
2020-05-20 21:00 13.00 82100 161000 (2019) 80700 (2018) 124000 85800 93300 129000 151000 157000
2020-05-20 20:00 13.01 82200 161000 (2019) 80700 (2018) 124000 85800 93300 129000 151000 157000
2020-05-20 19:00 13.02 82300 161000 (2019) 80700 (2018) 124000 85800 93300 129000 151000 157000
2020-05-20 18:00 13.03 82400 161000 (2019) 80700 (2018) 124000 85800 93300 129000 151000 157000
2020-05-20 17:00 13.05 82500 161000 (2019) 80700 (2018) 124000 85800 93300 129000 151000 157000
2020-05-20 16:00 13.08 82800 161000 (2019) 80700 (2018) 124000 85800 93300 129000 151000 157000
2020-05-20 15:00 13.09 82800 161000 (2019) 80700 (2018) 124000 85800 93300 129000 151000 157000
2020-05-20 14:00 13.10 82900 161000 (2019) 80700 (2018) 124000 85800 93300 129000 151000 157000
2020-05-20 13:00 13.08 82800 161000 (2019) 80700 (2018) 124000 85800 93300 129000 151000 157000
2020-05-20 12:00 13.10 82900 161000 (2019) 80700 (2018) 124000 85800 93300 129000 151000 157000
2020-05-20 11:00 13.10 82900 161000 (2019) 80700 (2018) 124000 85800 93300 129000 151000 157000
2020-05-20 10:00 13.13 83200 161000 (2019) 80700 (2018) 124000 85800 93300 129000 151000 157000
2020-05-20 09:00 13.16 83400 161000 (2019) 80700 (2018) 124000 85800 93300 129000 151000 157000
2020-05-20 08:00 13.17 83500 161000 (2019) 80700 (2018) 124000 85800 93300 129000 151000 157000
2020-05-20 07:00 13.19 83700 161000 (2019) 80700 (2018) 124000 85800 93300 129000 151000 157000
2020-05-20 06:00 13.19 83700 161000 (2019) 80700 (2018) 124000 85800 93300 129000 151000 157000
2020-05-20 05:00 13.18 83600 161000 (2019) 80700 (2018) 124000 85800 93300 129000 151000 157000
2020-05-20 04:00 13.20 83700 161000 (2019) 80700 (2018) 124000 85800 93300 129000 151000 157000
2020-05-20 03:00 13.20 83700 161000 (2019) 80700 (2018) 124000 85800 93300 129000 151000 157000
2020-05-20 02:00 13.19 83700 161000 (2019) 80700 (2018) 124000 85800 93300 129000 151000 157000
2020-05-20 01:00 13.20 83700 161000 (2019) 80700 (2018) 124000 85800 93300 129000 151000 157000
2020-05-20 00:00 13.20 83700 161000 (2019) 80700 (2018) 124000 85800 93300 129000 151000 157000
2020-05-19 23:00 13.21 83800 157000 (2019) 81500 (2018) 121000 86600 94300 110000 152000 155000
2020-05-19 22:00 13.20 83700 157000 (2019) 81500 (2018) 121000 86600 94300 110000 152000 155000
2020-05-19 21:00 13.21 83800 157000 (2019) 81500 (2018) 121000 86600 94300 110000 152000 155000
2020-05-19 20:00 13.22 83900 157000 (2019) 81500 (2018) 121000 86600 94300 110000 152000 155000
2020-05-19 19:00 13.22 83900 157000 (2019) 81500 (2018) 121000 86600 94300 110000 152000 155000
2020-05-19 18:00 13.22 83900 157000 (2019) 81500 (2018) 121000 86600 94300 110000 152000 155000
2020-05-19 17:00 13.22 83900 157000 (2019) 81500 (2018) 121000 86600 94300 110000 152000 155000
2020-05-19 16:00 13.20 83700 157000 (2019) 81500 (2018) 121000 86600 94300 110000 152000 155000
2020-05-19 15:00 13.19 83700 157000 (2019) 81500 (2018) 121000 86600 94300 110000 152000 155000
2020-05-19 14:00 13.19 83700 157000 (2019) 81500 (2018) 121000 86600 94300 110000 152000 155000
2020-05-19 13:00 13.17 83500 157000 (2019) 81500 (2018) 121000 86600 94300 110000 152000 155000
2020-05-19 12:00 13.16 83400 157000 (2019) 81500 (2018) 121000 86600 94300 110000 152000 155000
2020-05-19 11:00 13.18 83600 157000 (2019) 81500 (2018) 121000 86600 94300 110000 152000 155000
2020-05-19 10:00 13.19 83700 157000 (2019) 81500 (2018) 121000 86600 94300 110000 152000 155000
2020-05-19 09:00 13.19 83700 157000 (2019) 81500 (2018) 121000 86600 94300 110000 152000 155000
2020-05-19 08:00 13.18 83600 157000 (2019) 81500 (2018) 121000 86600 94300 110000 152000 155000
2020-05-19 07:00 13.18 83600 157000 (2019) 81500 (2018) 121000 86600 94300 110000 152000 155000
2020-05-19 06:00 13.18 83600 157000 (2019) 81500 (2018) 121000 86600 94300 110000 152000 155000
2020-05-19 05:00 13.20 83700 157000 (2019) 81500 (2018) 121000 86600 94300 110000 152000 155000
2020-05-19 04:00 13.20 83700 157000 (2019) 81500 (2018) 121000 86600 94300 110000 152000 155000
2020-05-19 03:00 13.21 83800 157000 (2019) 81500 (2018) 121000 86600 94300 110000 152000 155000
2020-05-19 02:00 13.22 83900 157000 (2019) 81500 (2018) 121000 86600 94300 110000 152000 155000
2020-05-19 01:00 13.22 83900 157000 (2019) 81500 (2018) 121000 86600 94300 110000 152000 155000
2020-05-19 00:00 13.23 84000 157000 (2019) 81500 (2018) 121000 86600 94300 110000 152000 155000
2020-05-18 23:00 13.25 84100 177000 (2015) 78900 (2017) 120000 79600 80600 114000 162000 171000
2020-05-18 22:00 13.27 84300 177000 (2015) 78900 (2017) 120000 79600 80600 114000 162000 171000
2020-05-18 21:00 13.27 84300 177000 (2015) 78900 (2017) 120000 79600 80600 114000 162000 171000
2020-05-18 20:00 13.29 84500 177000 (2015) 78900 (2017) 120000 79600 80600 114000 162000 171000
2020-05-18 19:00 13.32 84700 177000 (2015) 78900 (2017) 120000 79600 80600 114000 162000 171000
2020-05-18 18:00 13.34 84900 177000 (2015) 78900 (2017) 120000 79600 80600 114000 162000 171000
2020-05-18 17:00 13.39 85300 177000 (2015) 78900 (2017) 120000 79600 80600 114000 162000 171000
2020-05-18 16:00 13.41 85500 177000 (2015) 78900 (2017) 120000 79600 80600 114000 162000 171000
2020-05-18 15:00 13.41 85500 177000 (2015) 78900 (2017) 120000 79600 80600 114000 162000 171000
2020-05-18 14:00 13.45 85800 177000 (2015) 78900 (2017) 120000 79600 80600 114000 162000 171000
2020-05-18 13:00 13.46 85900 177000 (2015) 78900 (2017) 120000 79600 80600 114000 162000 171000
2020-05-18 12:00 13.50 86200 177000 (2015) 78900 (2017) 120000 79600 80600 114000 162000 171000
2020-05-18 11:00 13.50 86200 177000 (2015) 78900 (2017) 120000 79600 80600 114000 162000 171000
2020-05-18 10:00 13.56 86700 177000 (2015) 78900 (2017) 120000 79600 80600 114000 162000 171000
2020-05-18 09:00 13.60 87000 177000 (2015) 78900 (2017) 120000 79600 80600 114000 162000 171000
2020-05-18 08:00 13.65 87500 177000 (2015) 78900 (2017) 120000 79600 80600 114000 162000 171000
2020-05-18 07:00 13.68 87700 177000 (2015) 78900 (2017) 120000 79600 80600 114000 162000 171000
2020-05-18 06:00 13.70 87900 177000 (2015) 78900 (2017) 120000 79600 80600 114000 162000 171000
2020-05-18 05:00 13.76 88400 177000 (2015) 78900 (2017) 120000 79600 80600 114000 162000 171000
2020-05-18 04:00 13.82 88900 177000 (2015) 78900 (2017) 120000 79600 80600 114000 162000 171000
2020-05-18 03:00 13.87 89300 177000 (2015) 78900 (2017) 120000 79600 80600 114000 162000 171000
2020-05-18 02:00 13.94 89900 177000 (2015) 78900 (2017) 120000 79600 80600 114000 162000 171000
2020-05-18 01:00 14.01 90500 177000 (2015) 78900 (2017) 120000 79600 80600 114000 162000 171000
2020-05-18 00:00 14.03 90700 177000 (2015) 78900 (2017) 120000 79600 80600 114000 162000 171000
2020-05-17 23:00 14.12 91500 148000 (2019) 80500 (2018) 115000 80800 81200 117000 147000 148000
2020-05-17 22:00 14.16 91800 148000 (2019) 80500 (2018) 115000 80800 81200 117000 147000 148000
2020-05-17 21:00 14.23 92400 148000 (2019) 80500 (2018) 115000 80800 81200 117000 147000 148000
2020-05-17 20:00 14.31 93100 148000 (2019) 80500 (2018) 115000 80800 81200 117000 147000 148000
2020-05-17 19:00 14.37 93600 148000 (2019) 80500 (2018) 115000 80800 81200 117000 147000 148000
2020-05-17 18:00 14.48 94600 148000 (2019) 80500 (2018) 115000 80800 81200 117000 147000 148000
2020-05-17 17:00 14.54 95100 148000 (2019) 80500 (2018) 115000 80800 81200 117000 147000 148000
2020-05-17 16:00 14.60 95700 148000 (2019) 80500 (2018) 115000 80800 81200 117000 147000 148000
2020-05-17 15:00 14.65 96100 148000 (2019) 80500 (2018) 115000 80800 81200 117000 147000 148000
2020-05-17 14:00 14.69 96500 148000 (2019) 80500 (2018) 115000 80800 81200 117000 147000 148000
2020-05-17 13:00 14.78 97300 148000 (2019) 80500 (2018) 115000 80800 81200 117000 147000 148000
2020-05-17 12:00 14.83 97800 148000 (2019) 80500 (2018) 115000 80800 81200 117000 147000 148000
2020-05-17 11:00 14.89 98300 148000 (2019) 80500 (2018) 115000 80800 81200 117000 147000 148000
2020-05-17 10:00 14.90 98400 148000 (2019) 80500 (2018) 115000 80800 81200 117000 147000 148000
2020-05-17 09:00 14.96 98900 148000 (2019) 80500 (2018) 115000 80800 81200 117000 147000 148000
2020-05-17 08:00 14.98 99100 148000 (2019) 80500 (2018) 115000 80800 81200 117000 147000 148000
2020-05-17 07:00 15.00 99300 148000 (2019) 80500 (2018) 115000 80800 81200 117000 147000 148000
2020-05-17 06:00 15.00 99300 148000 (2019) 80500 (2018) 115000 80800 81200 117000 147000 148000
2020-05-17 05:00 14.96 98900 148000 (2019) 80500 (2018) 115000 80800 81200 117000 147000 148000
2020-05-17 04:00 14.93 98700 148000 (2019) 80500 (2018) 115000 80800 81200 117000 147000 148000
2020-05-17 03:00 14.86 98000 148000 (2019) 80500 (2018) 115000 80800 81200 117000 147000 148000
2020-05-17 02:00 14.83 97800 148000 (2019) 80500 (2018) 115000 80800 81200 117000 147000 148000
2020-05-17 01:00 14.75 97000 148000 (2019) 80500 (2018) 115000 80800 81200 117000 147000 148000
2020-05-17 00:00 14.65 96100 148000 (2019) 80500 (2018) 115000 80800 81200 117000 147000 148000
2020-05-16 23:00 14.54 95100 157000 (2019) 75400 (2018) 105000 77300 80000 87500 140000 150000
2020-05-16 22:00 14.47 94500 157000 (2019) 75400 (2018) 105000 77300 80000 87500 140000 150000
2020-05-16 21:00 14.39 93800 157000 (2019) 75400 (2018) 105000 77300 80000 87500 140000 150000
2020-05-16 20:00 14.28 92900 157000 (2019) 75400 (2018) 105000 77300 80000 87500 140000 150000
2020-05-16 19:00 14.18 92000 157000 (2019) 75400 (2018) 105000 77300 80000 87500 140000 150000
2020-05-16 18:00 14.09 91200 157000 (2019) 75400 (2018) 105000 77300 80000 87500 140000 150000
2020-05-16 17:00 13.99 90300 157000 (2019) 75400 (2018) 105000 77300 80000 87500 140000 150000
2020-05-16 16:00 13.89 89500 157000 (2019) 75400 (2018) 105000 77300 80000 87500 140000 150000
2020-05-16 15:00 13.81 88800 157000 (2019) 75400 (2018) 105000 77300 80000 87500 140000 150000
2020-05-16 14:00 13.74 88200 157000 (2019) 75400 (2018) 105000 77300 80000 87500 140000 150000
2020-05-16 13:00 13.67 87600 157000 (2019) 75400 (2018) 105000 77300 80000 87500 140000 150000
2020-05-16 12:00 13.66 87500 157000 (2019) 75400 (2018) 105000 77300 80000 87500 140000 150000
2020-05-16 11:00 13.60 87000 157000 (2019) 75400 (2018) 105000 77300 80000 87500 140000 150000
2020-05-16 10:00 13.58 86900 157000 (2019) 75400 (2018) 105000 77300 80000 87500 140000 150000
2020-05-16 09:00 13.56 86700 157000 (2019) 75400 (2018) 105000 77300 80000 87500 140000 150000
2020-05-16 08:00 13.54 86500 157000 (2019) 75400 (2018) 105000 77300 80000 87500 140000 150000
2020-05-16 07:00 13.55 86600 157000 (2019) 75400 (2018) 105000 77300 80000 87500 140000 150000
2020-05-16 06:00 13.56 86700 157000 (2019) 75400 (2018) 105000 77300 80000 87500 140000 150000
2020-05-16 05:00 13.56 86700 157000 (2019) 75400 (2018) 105000 77300 80000 87500 140000 150000
2020-05-16 04:00 13.55 86600 157000 (2019) 75400 (2018) 105000 77300 80000 87500 140000 150000
2020-05-16 03:00 13.56 86700 157000 (2019) 75400 (2018) 105000 77300 80000 87500 140000 150000
2020-05-16 02:00 13.57 86800 157000 (2019) 75400 (2018) 105000 77300 80000 87500 140000 150000
2020-05-16 01:00 13.55 86600 157000 (2019) 75400 (2018) 105000 77300 80000 87500 140000 150000
2020-05-16 00:00 13.54 86500 157000 (2019) 75400 (2018) 105000 77300 80000 87500 140000 150000
2020-05-15 23:00 13.55 86600 166000 (2019) 74300 (2018) 109000 75500 77400 86300 151000 160000
2020-05-15 22:00 13.54 86500 166000 (2019) 74300 (2018) 109000 75500 77400 86300 151000 160000
2020-05-15 21:00 13.55 86600 166000 (2019) 74300 (2018) 109000 75500 77400 86300 151000 160000
2020-05-15 20:00 13.58 86900 166000 (2019) 74300 (2018) 109000 75500 77400 86300 151000 160000
2020-05-15 19:00 13.61 87100 166000 (2019) 74300 (2018) 109000 75500 77400 86300 151000 160000
2020-05-15 18:00 13.61 87100 166000 (2019) 74300 (2018) 109000 75500 77400 86300 151000 160000
2020-05-15 17:00 13.59 87000 166000 (2019) 74300 (2018) 109000 75500 77400 86300 151000 160000
2020-05-15 16:00 13.60 87000 166000 (2019) 74300 (2018) 109000 75500 77400 86300 151000 160000
2020-05-15 15:00 13.60 87000 166000 (2019) 74300 (2018) 109000 75500 77400 86300 151000 160000
2020-05-15 14:00 13.61 87100 166000 (2019) 74300 (2018) 109000 75500 77400 86300 151000 160000
2020-05-15 13:00 13.62 87200 166000 (2019) 74300 (2018) 109000 75500 77400 86300 151000 160000
2020-05-15 12:00 13.61 87100 166000 (2019) 74300 (2018) 109000 75500 77400 86300 151000 160000
2020-05-15 11:00 13.60 87000 166000 (2019) 74300 (2018) 109000 75500 77400 86300 151000 160000
2020-05-15 10:00 13.58 86900 166000 (2019) 74300 (2018) 109000 75500 77400 86300 151000 160000
2020-05-15 09:00 13.55 86600 166000 (2019) 74300 (2018) 109000 75500 77400 86300 151000 160000
2020-05-15 08:00 13.53 86500 166000 (2019) 74300 (2018) 109000 75500 77400 86300 151000 160000
2020-05-15 07:00 13.51 86300 166000 (2019) 74300 (2018) 109000 75500 77400 86300 151000 160000
2020-05-15 06:00 13.46 85900 166000 (2019) 74300 (2018) 109000 75500 77400 86300 151000 160000
2020-05-15 05:00 13.39 85300 166000 (2019) 74300 (2018) 109000 75500 77400 86300 151000 160000
2020-05-15 04:00 13.39 85300 166000 (2019) 74300 (2018) 109000 75500 77400 86300 151000 160000
2020-05-15 03:00 13.42 85500 166000 (2019) 74300 (2018) 109000 75500 77400 86300 151000 160000
2020-05-15 02:00 13.34 84900 166000 (2019) 74300 (2018) 109000 75500 77400 86300 151000 160000
2020-05-15 01:00 13.32 84700 166000 (2019) 74300 (2018) 109000 75500 77400 86300 151000 160000
2020-05-15 00:00 13.25 84100 166000 (2019) 74300 (2018) 109000 75500 77400 86300 151000 160000
2020-05-14 23:00 13.27 84300 174000 (2019) 76700 (2018) 114000 77200 77900 90800 162000 169000
2020-05-14 22:00 13.28 84400 174000 (2019) 76700 (2018) 114000 77200 77900 90800 162000 169000
2020-05-14 21:00 13.28 84400 174000 (2019) 76700 (2018) 114000 77200 77900 90800 162000 169000
2020-05-14 20:00 13.29 84500 174000 (2019) 76700 (2018) 114000 77200 77900 90800 162000 169000
2020-05-14 19:00 13.28 84400 174000 (2019) 76700 (2018) 114000 77200 77900 90800 162000 169000
2020-05-14 18:00 13.28 84400 174000 (2019) 76700 (2018) 114000 77200 77900 90800 162000 169000
2020-05-14 17:00 13.27 84300 174000 (2019) 76700 (2018) 114000 77200 77900 90800 162000 169000
2020-05-14 16:00 13.27 84300 174000 (2019) 76700 (2018) 114000 77200 77900 90800 162000 169000
2020-05-14 15:00 13.27 84300 174000 (2019) 76700 (2018) 114000